[[{"header":{"parameterUnit":"m.s-1","parameterCategory":1,"la1":30.6,"la2":28.766,"lo1":-90.7593,"lo2":-88.6598,"dy":0.0162,"dx":0.0183,"nx":116,"ny":114,"refTime":"2023-11-15T06:00:00:Z","depth":0,"parameterNumber":2,"parameterNumberName":"U-component_of_WINDS"},"data":[0.0,0.0,0.0,0.0,0.0,0.0,0.0,0.0,0.0,0.0,0.0,0.0,0.0,0.0,0.0,0.0,0.0,0.0,0.0,0.0,0.0,0.0,0.0,0.0,0.0,0.0,0.0,0.0,0.0,0.0,0.0,0.0,0.0,0.0,0.0,0.0,0.0,0.0,0.0,0.0,0.0,0.0,0.0,0.0,0.0,0.0,0.0,0.0,0.0,0.0,0.0,0.0,0.0,0.0,0.0,0.0,0.0,0.0,0.0,0.0,0.0,0.0,0.0,0.0,0.0,0.0,0.0,0.0,0.0,0.0,0.0,0.0,0.0,0.0,0.0,0.0,0.0,0.0,0.0,0.0,0.0,0.0,0.0,0.0,0.0,0.0,0.0,0.0,0.0,0.0,0.0,0.0,0.0,0.0,0.0,0.0,0.0,0.0,0.0,0.0,0.0,0.0,0.0,0.0,0.0,0.0,0.0,0.0,0.0,0.0,0.0,0.0,0.0,0.0,0.0,0.0,0.0,0.0,0.0,0.0,0.0,0.0,0.0,0.0,0.0,0.0,0.0,0.0,0.0,0.0,0.0,0.0,0.0,0.0,0.0,0.0,0.0,0.0,0.0,0.0,0.0,0.0,0.0,0.0,0.0,0.0,0.0,0.0,0.0,0.0,0.0,0.0,0.0,0.0,0.0,0.0,0.0,0.0,0.0,0.0,0.0,0.0,0.0,0.0,0.0,0.0,0.0,0.0,0.0,0.0,0.0,0.0,0.0,0.0,0.0,0.0,0.0,0.0,0.0,0.0,0.0,0.0,0.0,0.0,0.0,0.0,0.0,0.0,0.0,0.0,0.0,0.0,0.0,0.0,0.0,0.0,0.0,0.0,0.0,0.0,0.0,0.0,0.0,0.0,0.0,0.0,0.0,0.0,0.0,0.0,0.0,0.0,0.0,0.0,0.0,0.0,0.0,0.0,0.0,0.0,0.0,0.0,0.0,0.0,0.0,0.0,0.0,0.0,0.0,0.0,0.0,0.0,0.0,0.0,0.0,0.0,0.0,0.0,0.0,0.0,0.0,0.0,0.0,0.0,0.0,0.0,0.0,0.0,0.0,0.0,0.0,0.0,0.0,0.0,0.0,0.0,0.0,0.0,0.0,0.0,0.0,0.0,0.0,0.0,0.0,0.0,0.0,0.0,0.0,0.0,0.0,0.0,0.0,0.0,0.0,0.0,0.0,0.0,0.0,0.0,0.0,0.0,0.0,0.0,0.0,0.0,0.0,0.0,0.0,0.0,0.0,0.0,0.0,0.0,0.0,0.0,0.0,0.0,0.0,0.0,0.0,0.0,0.0,0.0,0.0,0.0,0.0,0.0,0.0,0.0,0.0,0.0,0.0,0.0,0.0,0.0,0.0,0.0,0.0,0.0,0.0,0.0,0.0,0.0,0.0,0.0,0.0,0.0,0.0,0.0,0.0,0.0,0.0,0.0,0.0,0.0,0.0,0.0,0.0,0.0,0.0,0.0,0.0,0.0,0.0,0.0,0.0,0.0,0.0,0.0,0.0,0.0,0.0,0.0,0.0,0.0,0.0,0.0,0.0,0.0,0.0,0.0,0.0,0.0,0.0,0.0,0.0,0.0,0.0,0.0,0.0,0.0,0.0,0.0,0.0,0.0,0.0,0.0,0.0,0.0,0.0,0.0,0.0,0.0,0.0,0.0,0.0,0.0,0.0,0.0,0.0,0.0,0.0,0.0,0.0,0.0,0.0,0.0,0.0,0.0,0.0,0.0,0.0,0.0,0.0,0.0,0.0,0.0,0.0,0.0,0.0,0.0,0.0,0.0,0.0,0.0,0.0,0.0,0.0,0.0,0.0,0.0,0.0,0.0,0.0,0.0,0.0,0.0,0.0,0.0,0.0,0.0,0.0,0.0,0.0,0.0,0.0,0.0,0.0,0.0,0.0,0.0,0.0,0.0,0.0,0.0,0.0,0.0,0.0,0.0,0.0,0.0,0.0,0.0,0.0,0.0,0.0,0.0,0.0,0.0,0.0,0.0,0.0,0.0,0.0,0.0,0.0,0.0,0.0,0.0,0.0,0.0,0.0,0.0,0.0,0.0,0.0,0.0,0.0,0.0,0.0,0.0,0.0,0.0,0.0,0.0,0.0,0.0,0.0,0.0,0.0,0.0,0.0,0.0,0.0,0.0,0.0,0.0,0.0,0.0,0.0,0.0,0.0,0.0,0.0,0.0,0.0,0.0,0.0,0.0,0.0,0.0,0.0,0.0,0.0,0.0,0.0,0.0,0.0,0.0,0.0,0.0,0.0,0.0,0.0,0.0,0.0,0.0,0.0,0.0,0.0,0.0,0.0,0.0,0.0,0.0,0.0,0.0,0.0,0.0,0.0,0.0,0.0,0.0,0.0,0.0,0.0,0.0,0.0,0.0,0.0,0.0,0.0,0.0,0.0,0.0,0.0,0.0,0.0,0.0,0.0,0.0,0.0,0.0,0.0,0.0,0.0,0.0,0.0,0.0,0.0,0.0,0.0,0.0,0.0,0.0,0.0,0.0,0.0,0.0,0.0,0.0,0.0,0.0,0.0,0.0,0.0,0.0,0.0,0.0,0.0,0.0,0.0,0.0,0.0,0.0,0.0,0.0,0.0,0.0,0.0,0.0,0.0,0.0,0.0,0.0,0.0,0.0,0.0,0.0,0.0,0.0,0.0,0.0,0.0,0.0,0.0,0.0,0.0,0.0,0.0,0.0,0.0,0.0,0.0,0.0,0.0,0.0,0.0,0.0,0.0,0.0,0.0,0.0,0.0,0.0,0.0,0.0,0.0,0.0,0.0,0.0,0.0,0.0,0.0,0.0,0.0,0.0,0.0,0.0,0.0,0.0,0.0,0.0,0.0,0.0,0.0,0.0,0.0,0.0,0.0,0.0,0.0,0.0,0.0,0.0,0.0,0.0,0.0,0.0,0.0,0.0,0.0,0.0,0.0,0.0,0.0,0.0,0.0,0.0,0.0,0.0,0.0,0.0,0.0,0.0,0.0,0.0,0.0,0.0,0.0,0.0,0.0,0.0,0.0,0.0,0.0,0.0,0.0,0.0,0.0,0.0,0.0,0.0,0.0,0.0,0.0,0.0,0.0,0.0,0.0,0.0,0.0,0.0,0.0,0.0,0.0,0.0,0.0,0.0,0.0,0.0,0.0,0.0,0.0,0.0,0.0,0.0,0.0,0.0,0.0,0.0,0.0,0.0,0.0,0.0,0.0,0.0,0.0,0.0,0.0,0.0,0.0,0.0,0.0,0.0,0.0,0.0,0.0,0.0,0.0,0.0,0.0,0.0,0.0,0.0,0.0,0.0,0.0,0.0,0.0,0.0,0.0,0.0,0.0,0.0,0.0,0.0,0.0,0.0,0.0,0.0,0.0,0.0,0.0,0.0,0.0,0.0,0.0,0.0,0.0,0.0,0.0,0.0,0.0,0.0,0.0,0.0,0.0,0.0,0.0,0.0,0.0,0.0,0.0,0.0,0.0,0.0,0.0,0.0,0.0,0.0,0.0,0.0,0.0,0.0,0.0,0.0,0.0,0.0,0.0,0.0,0.0,0.0,0.0,0.0,0.0,0.0,0.0,0.0,0.0,0.0,0.0,0.0,0.0,0.0,0.0,0.0,0.0,0.0,0.0,0.0,0.0,0.0,0.0,0.0,0.0,0.0,0.0,0.0,0.0,0.0,0.0,0.0,0.0,0.0,0.0,0.0,0.0,0.0,0.0,0.0,0.0,0.0,0.0,0.0,0.0,0.0,0.0,0.0,0.0,0.0,0.0,0.0,0.0,0.0,0.0,0.0,0.0,0.0,0.0,0.0,0.0,0.0,0.0,0.0,0.0,0.0,0.0,0.0,0.0,0.0,0.0,0.0,0.0,0.0,0.0,0.0,0.0,0.0,0.0,0.0,0.0,0.0,0.0,0.0,0.0,0.0,0.0,0.0,0.0,0.0,0.0,0.0,0.0,0.0,0.0,0.0,0.0,0.0,0.0,0.0,0.0,0.0,0.0,0.0,0.0,0.0,0.0,0.0,0.0,0.0,0.0,0.0,0.0,0.0,0.0,0.0,0.0,0.0,0.0,0.0,0.0,0.0,0.0,0.0,0.0,0.0,0.0,0.0,0.0,0.0,0.0,0.0,0.0,0.0,0.0,0.0,0.0,0.0,0.0,0.0,0.0,0.0,0.0,0.0,0.0,0.0,0.0,0.0,0.0,0.0,0.0,0.0,0.0,0.0,0.0,0.0,0.0,0.0,0.0,0.0,0.0,0.0,0.0,0.0,0.0,0.0,0.0,0.0,0.0,0.0,0.0,0.0,0.0,0.0,0.0,0.0,0.0,0.0,0.0,0.0,0.0,0.0,0.0,0.0,0.0,0.0,0.0,0.0,0.0,0.0,0.0,0.0,0.0,0.0,0.0,0.0,0.0,0.0,0.0,0.0,0.0,0.0,0.0,0.0,0.0,0.0,0.0,0.0,0.0,0.0,0.0,0.0,0.0,0.0,0.0,0.0,0.0,0.0,0.0,0.0,0.0,0.0,0.0,0.0,0.0,0.0,0.0,0.0,0.0,0.0,0.0,0.0,0.0,0.0,0.0,0.0,0.0,0.0,0.0,0.0,0.0,0.0,0.0,0.0,0.0,0.0,0.0,0.0,0.0,0.0,0.0,0.0,0.0,0.0,0.0,0.0,0.0,0.0,0.0,0.0,0.0,0.0,0.0,0.0,0.0,0.0,0.0,0.0,0.0,0.0,0.0,0.0,0.0,0.0,0.0,0.0,0.0,0.0,0.0,0.0,0.0,0.0,0.0,0.0,0.0,0.0,0.0,0.0,0.0,0.0,0.0,0.0,0.0,0.0,0.0,0.0,0.0,0.0,0.0,0.0,0.0,0.0,0.0,0.0,0.0,0.0,0.0,0.0,0.0,0.0,0.0,0.0,0.0,0.0,0.0,0.0,0.0,0.0,0.0,0.0,0.0,0.0,0.0,0.0,0.0,0.0,0.0,0.0,0.0,0.0,0.0,0.0,0.0,0.0,0.0,0.0,0.0,0.0,0.0,0.0,0.0,0.0,0.0,0.0,0.0,0.0,0.0,0.0,0.0,0.0,0.0,0.0,0.0,0.0,0.0,0.0,0.0,0.0,0.0,0.0,0.0,0.0,0.0,0.0,0.0,0.0,0.0,0.0,0.0,0.0,0.0,0.0,0.0,0.0,0.0,0.0,0.0,0.0,0.0,0.0,0.0,0.0,0.0,0.0,0.0,0.0,0.0,0.0,0.0,0.0,0.0,0.0,0.0,0.0,0.0,0.0,0.0,0.0,0.0,0.0,0.0,0.0,0.0,0.0,0.0,0.0,0.0,0.0,0.0,0.0,0.0,0.0,0.0,0.0,0.0,0.0,0.0,0.0,0.0,0.0,0.0,0.0,0.0,0.0,0.0,0.0,0.0,0.0,0.0,0.0,0.0,0.0,0.0,0.0,0.0,0.0,0.0,0.0,0.0,0.0,0.0,0.0,0.0,0.0,0.0,0.0,0.0,0.0,0.0,0.0,0.0,0.0,0.0,0.0,0.0,0.0,0.0,0.0,0.0,0.0,0.0,0.0,0.0,0.0,0.0,0.0,0.0,0.0,0.0,0.0,0.0,0.0,0.0,0.0,0.0,0.0,0.0,0.0,0.0,0.0,0.0,0.0,0.0,0.0,0.0,0.0,0.0,0.0,0.0,0.0,0.0,0.0,0.0,0.0,0.0,0.0,0.0,0.0,0.0,0.0,0.0,0.0,0.0,0.0,0.0,0.0,0.0,0.0,0.0,0.0,0.0,0.0,0.0,0.0,0.0,0.0,0.0,0.0,0.0,0.0,0.0,0.0,0.0,0.0,0.0,0.0,0.0,0.0,0.0,0.0,0.0,0.0,0.0,0.0,0.0,0.0,0.0,0.0,0.0,0.0,0.0,0.0,0.0,0.0,0.0,0.0,0.0,0.0,0.0,0.0,0.0,0.0,0.0,0.0,0.0,0.0,0.0,0.0,0.0,0.0,0.0,0.0,0.0,0.0,0.0,0.0,0.0,0.0,4.7783,0.0,0.0,0.0,0.0,0.0,0.0,0.0,0.0,0.0,0.0,0.0,0.0,0.0,0.0,0.0,0.0,0.0,0.0,0.0,0.0,0.0,0.0,0.0,0.0,0.0,0.0,0.0,0.0,0.0,0.0,0.0,0.0,0.0,0.0,0.0,0.0,0.0,0.0,4.081,4.1197,4.1816,4.2628,4.1738,4.0655,3.9417,0.0,0.0,0.0,0.0,0.0,0.0,0.0,0.0,0.0,0.0,0.0,0.0,0.0,0.0,0.0,0.0,0.0,0.0,0.0,0.0,0.0,0.0,0.0,0.0,0.0,0.0,0.0,0.0,0.0,0.0,0.0,0.0,0.0,0.0,0.0,0.0,0.0,0.0,0.0,0.0,0.0,0.0,0.0,0.0,0.0,0.0,0.0,0.0,0.0,0.0,0.0,0.0,0.0,0.0,0.0,0.0,0.0,0.0,0.0,0.0,0.0,0.0,0.0,0.0,0.0,0.0,0.0,0.0,0.0,0.0,0.0,4.8174,0.0,0.0,0.0,0.0,0.0,0.0,0.0,0.0,0.0,0.0,0.0,0.0,0.0,0.0,0.0,0.0,0.0,0.0,0.0,0.0,0.0,0.0,0.0,3.6632,3.7483,3.8334,3.9069,3.9894,0.0,0.0,0.0,0.0,0.0,0.0,4.081,4.081,4.0848,4.1003,4.2125,4.3092,4.3982,4.4136,4.3363,4.1854,4.0694,0.0,0.0,0.0,0.0,0.0,0.0,0.0,0.0,0.0,0.0,0.0,0.0,0.0,0.0,0.0,0.0,0.0,0.0,0.0,0.0,0.0,0.0,0.0,0.0,0.0,0.0,0.0,0.0,0.0,0.0,0.0,0.0,0.0,0.0,0.0,0.0,0.0,0.0,0.0,0.0,0.0,0.0,0.0,0.0,0.0,0.0,0.0,0.0,0.0,0.0,0.0,0.0,0.0,0.0,0.0,0.0,0.0,0.0,0.0,0.0,0.0,0.0,0.0,5.2078,5.2897,5.4459,5.4459,5.4459,5.4303,5.1414,5.0321,5.0399,0.0,0.0,0.0,0.0,0.0,0.0,0.0,0.0,0.0,0.0,0.0,0.0,0.0,0.0,0.0,0.0,0.0,0.0,0.0,0.0,3.6809,3.6748,3.7522,3.8373,3.9262,3.9429,3.9894,4.0732,0.0,0.0,0.0,0.0,4.081,4.081,4.081,4.1119,4.1854,4.4175,4.5761,4.6612,4.7386,4.7192,4.6148,4.3827,4.2744,4.2589,0.0,0.0,0.0,0.0,0.0,0.0,0.0,0.0,0.0,0.0,0.0,0.0,0.0,0.0,0.0,0.0,0.0,0.0,0.0,0.0,0.0,0.0,0.0,0.0,0.0,0.0,0.0,0.0,0.0,0.0,0.0,0.0,0.0,0.0,0.0,0.0,0.0,0.0,0.0,0.0,0.0,4.5246,4.4738,0.0,0.0,0.0,0.0,0.0,0.0,0.0,0.0,0.0,0.0,0.0,0.0,0.0,0.0,5.3288,5.3327,5.3795,5.4771,5.4771,5.5318,5.6255,5.6255,5.6255,5.6216,5.5786,0.0,5.2273,5.118,0.0,0.0,0.0,0.0,0.0,0.0,0.0,0.0,0.0,0.0,0.0,0.0,0.0,0.0,0.0,0.0,0.0,0.0,0.0,0.0,0.0,3.9158,3.9997,4.081,4.1351,4.1583,4.1467,4.1467,0.0,0.0,4.081,4.081,4.081,4.1235,4.2357,4.4175,4.6264,4.7695,4.8585,4.9397,4.9591,4.9204,4.8082,4.6496,4.4639,4.3827,0.0,0.0,0.0,0.0,0.0,0.0,0.0,0.0,0.0,0.0,0.0,0.0,0.0,0.0,0.0,0.0,0.0,0.0,0.0,0.0,0.0,0.0,0.0,0.0,0.0,0.0,0.0,0.0,0.0,0.0,0.0,0.0,0.0,0.0,0.0,0.0,0.0,0.0,0.0,4.4075,4.5792,4.6378,4.6807,4.669,0.0,0.0,0.0,0.0,0.0,0.0,0.0,0.0,0.0,5.2234,5.3132,5.4186,5.5435,5.5474,5.5864,5.6723,5.6723,5.7426,5.8753,5.8753,5.8987,5.9456,5.8948,5.8089,5.6801,5.399,5.2117,5.0828,0.0,0.0,0.0,0.0,0.0,4.8564,0.0,0.0,0.0,0.0,0.0,0.0,0.0,0.0,0.0,0.0,0.0,0.0,3.9696,4.0989,4.2022,4.2628,4.344,4.3595,4.2705,4.2473,4.197,4.1119,4.0887,4.0887,4.1081,4.255,4.4485,4.6883,4.8546,4.9823,5.0674,5.1293,5.1563,5.1563,5.1563,4.9784,4.6728,4.5916,4.4949,4.3827,0.0,0.0,0.0,0.0,0.0,0.0,0.0,0.0,0.0,0.0,0.0,0.0,0.0,0.0,0.0,0.0,0.0,0.0,0.0,0.0,0.0,0.0,0.0,0.0,0.0,0.0,0.0,0.0,0.0,0.0,0.0,0.0,0.0,0.0,0.0,0.0,0.0,4.5168,4.6612,4.8369,4.8369,4.8174,0.0,0.0,0.0,0.0,0.0,0.0,5.1375,5.2858,5.4186,5.5279,5.5942,5.6801,5.7894,5.7894,5.8324,5.9143,5.9143,5.9924,6.1408,6.1408,6.1759,6.2345,6.1681,6.1252,6.0744,5.6645,5.4576,5.3834,5.2117,5.157,5.1726,5.1492,5.157,5.196,0.0,0.0,0.0,0.0,0.0,0.0,0.0,0.0,0.0,0.0,0.0,4.0721,4.0742,4.295,4.4447,4.4485,4.522,4.5336,4.4523,4.3711,4.286,4.197,4.1197,4.1158,4.1932,4.5142,4.7734,4.9513,5.1177,5.2453,5.3304,5.3343,5.3382,5.3382,5.3382,5.1912,4.9436,4.8585,4.727,4.5606,4.3866,0.0,0.0,0.0,0.0,0.0,0.0,0.0,0.0,0.0,0.0,0.0,0.0,0.0,0.0,0.0,0.0,0.0,0.0,0.0,0.0,0.0,0.0,0.0,0.0,0.0,0.0,0.0,0.0,0.0,0.0,0.0,0.0,0.0,0.0,0.0,0.0,0.0,0.0,5.0984,5.0477,0.0,0.0,0.0,0.0,5.2234,5.321,5.4108,5.5005,5.5903,5.7153,5.8792,5.8909,5.9729,6.1447,6.1447,6.1876,6.2735,6.2735,6.3204,6.4101,6.4101,6.414,6.4179,6.4101,6.3633,6.2618,5.9065,5.7582,5.7387,5.5708,5.5552,5.6177,5.5357,5.5552,5.6294,0.0,0.0,0.0,0.0,0.0,0.0,0.0,0.0,3.7489,3.8645,4.049,4.2322,4.3916,4.5402,4.6499,4.6999,4.7308,4.6883,4.5452,4.4601,4.3518,4.2048,4.1738,4.2744,4.522,4.7579,4.9861,5.2144,5.3807,5.5084,5.5973,5.6515,5.6786,5.6786,5.6786,5.5664,5.3575,5.1061,4.9359,4.8121,4.5838,4.4253,0.0,0.0,0.0,0.0,0.0,0.0,0.0,0.0,0.0,0.0,0.0,0.0,0.0,0.0,0.0,0.0,0.0,0.0,0.0,0.0,0.0,0.0,0.0,0.0,0.0,0.0,0.0,0.0,0.0,0.0,0.0,0.0,0.0,0.0,0.0,0.0,0.0,5.2038,5.2468,0.0,5.2702,5.3132,5.3483,5.3522,5.5864,5.7426,5.7738,5.9104,6.0393,6.1564,6.1603,6.2189,6.336,6.336,6.3516,6.3828,6.3828,6.4297,6.5155,6.5155,6.5429,6.5897,6.5351,6.496,6.4531,6.2735,6.0978,5.9378,5.8207,5.7933,5.8168,5.7855,5.7933,5.8207,0.0,0.0,0.0,0.0,0.0,0.0,0.0,3.6789,3.8071,3.9509,4.1655,4.3768,4.5711,4.7184,4.828,4.8778,4.9088,4.8508,4.6806,4.5916,4.4678,4.2937,4.3401,4.5065,4.7927,5.0248,5.2376,5.4349,5.6051,5.7327,5.8178,5.8449,5.8758,5.9029,5.872,5.7946,5.6708,5.4155,5.1912,4.9939,4.7927,4.6457,4.5181,0.0,0.0,0.0,0.0,0.0,0.0,0.0,0.0,0.0,0.0,0.0,0.0,0.0,0.0,0.0,0.0,0.0,0.0,0.0,0.0,0.0,0.0,0.0,0.0,0.0,0.0,0.0,0.0,0.0,0.0,0.0,0.0,0.0,0.0,0.0,5.2156,5.4186,5.4693,5.5005,5.5279,5.6098,5.6606,5.6606,5.8987,6.0432,6.0432,6.1798,6.2969,6.3867,6.414,6.457,6.5155,6.5429,6.5429,6.5155,6.5155,6.5468,6.6014,6.6014,6.6288,6.6756,6.6249,6.6014,6.5936,6.5077,6.3711,6.2071,6.1174,6.0861,6.0861,6.0861,6.0861,6.0822,0.0,0.0,0.0,0.0,0.0,0.0,3.5857,3.7294,3.8732,3.9664,4.2664,4.5076,4.5905,4.823,4.9751,4.9745,5.0442,5.0171,4.8508,4.754,4.6341,4.4755,4.6303,4.8043,4.9823,5.3149,5.5316,5.6167,5.783,5.9145,5.9996,5.9145,5.9223,5.9996,5.9145,5.872,5.8604,5.7791,5.4967,5.1022,5.0171,4.8778,4.7076,0.0,0.0,0.0,0.0,0.0,0.0,0.0,0.0,0.0,0.0,0.0,0.0,0.0,0.0,0.0,0.0,0.0,0.0,0.0,0.0,0.0,0.0,0.0,0.0,0.0,0.0,0.0,0.0,0.0,0.0,0.0,0.0,0.0,5.1531,5.3053,5.5083,5.7582,5.7231,5.7738,6.0198,5.969,5.9924,6.1603,6.2579,6.3086,6.3125,6.3945,6.4804,6.5702,6.6483,6.6873,6.6834,6.7693,6.7654,6.6795,6.6834,6.6834,6.6834,6.6873,6.6873,6.6834,6.6834,6.6834,6.6756,6.5975,6.5624,6.5546,6.4648,6.4297,6.4297,6.4297,6.4297,6.4179,0.0,0.0,0.0,0.0,0.0,0.0,3.6634,3.7683,3.9159,4.1257,4.3906,4.6201,4.765,4.9509,5.0642,5.0558,5.0248,4.9591,4.8469,4.6999,4.6225,4.6419,4.8624,5.0983,5.3343,5.5509,5.7637,5.9687,6.019,6.1195,6.2627,6.2394,6.2433,6.2627,6.2394,6.1582,6.0383,6.0151,5.8333,5.5354,5.3304,5.1796,5.0558,0.0,0.0,0.0,0.0,0.0,0.0,0.0,0.0,0.0,0.0,0.0,0.0,0.0,0.0,0.0,0.0,0.0,0.0,0.0,0.0,0.0,0.0,0.0,0.0,0.0,0.0,0.0,0.0,0.0,0.0,0.0,5.239,5.4225,5.4225,5.6216,5.8207,5.9534,6.0041,6.0588,6.1252,6.1681,6.2149,6.2618,6.4023,6.5155,6.5702,6.6561,6.7459,6.8318,6.8552,6.8396,6.7732,6.7966,6.7654,6.6795,6.7459,6.7732,6.7771,6.8396,6.8357,6.7732,6.7732,6.7381,6.6795,6.6561,6.6483,6.6327,6.4882,6.4297,6.4297,6.4297,6.4297,6.4258,0.0,0.0,0.0,0.0,0.0,0.0,3.6984,3.7838,3.9315,4.1879,4.44,4.6615,4.8309,4.9959,5.0937,5.0906,5.0171,4.932,4.8469,4.7463,4.7424,4.8624,5.1177,5.3575,5.5818,5.7869,5.9803,6.166,6.2008,6.2897,6.4251,6.3864,6.3864,6.4213,6.3864,6.3129,6.2201,6.2201,6.0925,5.8758,5.7288,5.5316,5.3072,5.1254,5.0317,4.9804,4.8141,4.6729,4.559,4.5274,0.0,0.0,0.0,0.0,0.0,0.0,0.0,0.0,0.0,0.0,0.0,0.0,0.0,0.0,0.0,0.0,0.0,0.0,0.0,0.0,0.0,0.0,0.0,0.0,5.5513,5.7543,5.7933,5.9261,6.0666,6.1876,6.2462,6.3086,6.3789,6.4297,6.4882,6.5624,6.6639,6.7381,6.7849,6.8357,6.8864,6.9372,6.9762,6.9528,6.8669,6.902,6.8747,6.7888,6.8396,6.863,6.8669,6.9176,6.9137,0.0,6.863,6.8357,6.7849,6.7498,6.7342,0.0,0.0,0.0,0.0,0.0,6.5351,6.5312,0.0,0.0,0.0,0.0,0.0,0.0,3.71,3.7916,3.9353,4.1995,4.435,4.6474,4.8309,4.979,5.0674,5.0751,4.9939,4.9126,4.843,4.8585,4.9475,5.1254,5.373,5.5896,5.7714,6.0035,6.1737,6.2704,6.3478,6.429,6.5102,6.4329,6.4367,6.5102,6.4329,6.3942,6.3826,6.3826,6.2897,6.1389,6.1389,5.8913,5.5122,5.4271,5.3475,5.2616,5.0874,4.9795,4.9027,4.8183,0.0,0.0,0.0,0.0,0.0,0.0,0.0,0.0,0.0,0.0,0.0,0.0,0.0,0.0,0.0,0.0,0.0,0.0,0.0,0.0,0.0,0.0,0.0,0.0,5.8519,6.0939,6.1993,6.2228,6.2852,6.4414,6.4687,6.5351,6.6951,6.7107,6.7732,6.9294,6.9411,6.945,6.9528,0.0,0.0,0.0,0.0,7.0426,6.9567,7.0309,7.027,6.9411,6.9489,6.9567,6.9567,6.9645,6.9645,6.9567,6.9567,6.9489,6.9333,6.8552,6.8239,6.8161,6.7185,6.6795,6.6795,6.6795,6.6795,0.0,0.0,0.0,0.0,0.0,0.0,0.0,3.7916,3.8305,3.9587,4.2811,4.4234,4.5854,4.8231,4.8745,4.9165,4.9861,4.8508,4.7811,4.8353,4.9668,5.1486,5.3923,5.5818,5.7946,6.0306,6.1543,6.2936,6.4483,6.4677,6.518,6.5953,6.5799,6.5799,6.5953,6.5799,6.5373,6.4754,6.4754,6.4135,6.3207,6.3207,6.1041,5.7753,5.6902,5.6476,5.6106,5.4436,5.3266,5.2443,5.1684,4.9819,4.7766,4.766,4.556,0.0,0.0,0.0,0.0,0.0,0.0,0.0,0.0,0.0,0.0,0.0,0.0,0.0,0.0,0.0,0.0,0.0,0.0,0.0,5.887,6.0549,6.2228,6.4531,6.539,6.5936,6.6288,6.6951,6.7771,6.8786,6.8903,6.902,6.9372,6.9411,6.9723,7.0426,7.0465,0.0,7.148,7.1675,7.1324,7.0465,7.0621,7.027,6.9411,0.0,0.0,7.0465,7.1167,7.1128,7.0465,7.0465,7.0035,6.9372,6.9215,6.9137,6.8981,6.742,6.6795,6.6795,6.6795,6.6795,6.6795,0.0,0.0,0.0,0.0,0.0,0.0,3.7566,3.811,3.9315,4.1879,4.3303,4.4691,4.6409,4.6886,4.727,4.7695,4.7347,4.7657,4.8972,5.1022,5.3149,5.5316,5.783,5.9996,6.1698,6.3013,6.4329,6.5605,6.5605,6.5799,6.6185,6.6185,6.6185,6.6185,6.6185,6.5992,6.5605,6.5605,6.5102,6.4329,6.4329,6.3071,6.1039,5.9761,5.8734,5.7899,5.7063,5.5932,5.4784,5.441,5.29,5.1047,5.0653,4.8825,4.6716,0.0,0.0,0.0,0.0,0.0,0.0,0.0,0.0,0.0,0.0,0.0,0.0,0.0,0.0,5.2078,5.4264,0.0,5.8558,6.0705,6.2501,6.4258,6.5975,6.6912,6.7459,6.7459,6.82,6.9098,6.9957,7.0035,7.023,7.066,7.0699,7.0894,7.1324,7.1363,7.1558,7.1987,7.1987,7.1792,7.1363,7.1363,7.1128,7.0699,7.1128,7.1363,7.1363,7.1792,7.1753,7.1363,7.1363,7.1089,7.066,7.023,6.9801,6.9294,6.8435,6.781,6.7459,6.7459,6.7185,6.6795,0.0,0.0,0.0,0.0,0.0,0.0,3.6984,3.7838,3.9004,4.0674,4.2216,4.354,4.4587,4.508,4.5388,4.5529,4.6496,4.7927,4.9823,5.2337,5.4581,5.6437,5.9455,6.1582,6.2627,6.4174,6.5373,6.6185,6.6185,6.6185,6.6185,6.6185,6.6185,6.6185,6.6185,6.6185,6.6185,6.6185,6.5837,6.5238,6.5238,6.4774,6.3899,6.2327,6.0793,5.939,5.8925,5.7853,5.664,5.6325,5.519,5.3856,5.318,5.1716,5.0143,4.949,4.8135,0.0,0.0,0.0,0.0,0.0,0.0,0.0,0.0,4.9774,5.1141,5.2195,5.3795,5.5513,5.727,5.9417,6.1252,6.2306,6.4375,6.6131,6.6951,6.781,6.8357,6.8357,6.9137,6.9996,7.0855,7.0933,7.1245,7.1948,7.1987,7.1987,7.1987,7.1987,7.1987,7.1987,7.1987,7.1987,7.1987,7.1987,7.1987,7.1987,7.1987,7.1987,7.1987,7.1987,7.1987,7.1987,7.1987,7.1987,7.1948,7.1245,7.0543,6.9918,6.9918,6.9372,6.8591,6.8435,6.7927,6.7264,0.0,0.0,0.0,0.0,0.0,0.0,0.0,0.0,3.9004,4.0674,4.1732,4.2953,4.4509,4.4008,4.3905,4.4678,4.6187,4.8121,5.0596,5.3227,5.5741,5.8178,6.0112,6.1853,6.3516,6.4483,6.5373,6.6185,6.6185,6.6185,6.6185,6.6185,6.6185,6.6185,6.6185,6.6185,6.6185,6.6185,6.6167,6.6148,6.6148,6.5717,6.494,6.4037,6.3065,6.1871,5.9619,5.8674,5.8273,5.6717,5.5605,5.4828,5.4735,5.3068,5.117,5.1125,4.9913,4.8786,4.9567,5.0295,5.0828,5.0824,5.0906,5.118,0.0,5.2858,5.4029,5.5669,5.7348,5.9065,6.0822,6.1993,6.3243,6.4882,6.6014,6.6951,6.7849,6.8708,6.9255,6.9255,7.0035,7.0894,7.1753,7.1831,7.187,7.1987,7.1987,7.1987,7.1987,7.1987,7.1987,7.1987,7.1987,7.1987,7.1987,7.1987,7.1987,7.1987,7.1987,7.1987,7.1987,7.1987,7.1987,7.1987,7.1987,7.1987,7.1987,7.187,7.1792,7.1714,7.1714,7.1167,7.0309,6.9528,6.9176,6.8981,0.0,0.0,0.0,0.0,0.0,0.0,0.0,0.0,3.8654,3.9353,4.0616,4.1712,4.2338,4.2059,4.2176,4.3015,4.5065,4.7424,5.0016,5.3536,5.6437,5.8488,6.1157,6.2936,6.3671,6.5025,6.5876,6.6185,6.6185,6.6185,6.6185,6.6185,6.6185,6.6185,6.6264,6.6264,6.6284,6.6303,6.634,6.6355,6.6355,6.5918,6.5128,6.3806,6.2756,6.1751,5.9643,5.8243,0.0,5.5986,5.5335,5.5073,5.5063,5.4013,5.284,5.2879,5.1693,5.0535,5.1406,5.1911,5.2416,5.3425,5.4037,5.4654,5.5474,5.6723,5.8089,5.93,6.0549,6.1759,6.3008,6.3945,6.4882,6.6092,6.699,6.7849,6.8747,6.9176,6.9411,6.9411,6.9723,7.0074,7.0465,7.0933,7.1245,7.1245,7.1714,7.1987,7.1987,7.1987,7.1987,7.1987,7.1987,7.1987,7.1987,7.1987,7.1987,7.1987,7.1987,7.1987,7.1987,7.1987,7.1987,7.1987,7.1987,7.1987,7.1987,7.1987,7.1987,7.1987,7.1987,7.1792,7.1363,7.0465,6.984,6.9333,0.0,0.0,0.0,0.0,0.0,0.0,0.0,0.0,0.0,0.0,3.9685,4.0635,4.0787,4.0808,4.1119,4.1932,4.4136,4.6573,4.9165,5.3111,5.6205,5.8139,6.1273,6.3207,6.3671,6.5102,6.5992,6.6185,6.6185,6.6185,6.6185,6.6185,6.6185,6.6205,6.6284,6.6322,6.634,6.6376,6.6445,6.6415,6.619,6.58,6.5115,6.3184,6.1829,6.0681,5.8957,5.7377,5.5918,5.4796,5.4251,5.4095,5.41,5.3689,5.3214,5.3252,5.2562,5.2019,5.3124,5.3594,5.4179,5.5935,5.7022,5.7949,5.8992,6.0198,6.1369,6.2228,6.3125,6.3906,6.4531,6.5351,6.6131,6.6717,6.7537,6.8318,6.8942,6.902,6.902,6.902,6.8864,6.8708,6.8708,6.9918,7.0699,7.0699,7.1519,7.1987,7.1987,7.1987,7.1987,7.1987,7.1987,7.1987,7.1987,7.1993,7.1997,7.1997,7.1997,7.1993,7.1987,7.1987,7.1987,7.1987,7.1987,7.1987,7.1987,7.1987,7.1987,7.1987,7.1987,7.1987,7.1909,7.1285,7.066,7.0074,0.0,0.0,0.0,0.0,0.0,0.0,0.0,0.0,0.0,0.0,0.0,3.9995,4.0721,4.0808,4.1119,4.1932,4.3634,4.5722,4.8275,5.1641,5.4697,5.725,5.9803,6.1969,6.3671,6.4561,6.5412,6.6185,6.6185,6.6185,6.6185,6.6185,6.6205,6.6303,6.6303,6.6358,6.6406,6.6406,6.647,6.653,6.5669,6.5336,6.5104,6.2601,6.0604,5.8929,5.7193,5.6025,5.5062,5.3298,5.2142,5.1512,5.1507,5.149,5.1476,5.1469,5.2058,5.3047,5.4765,5.5859,5.6914,5.8633,5.9687,6.0741,6.2436,6.2891,6.3164,6.4023,6.4921,6.5546,6.5546,6.6209,6.6756,6.6795,6.7537,6.8122,6.8122,6.8122,6.8122,6.8122,6.7459,6.699,6.699,6.9215,7.0699,7.0699,7.1519,7.1987,7.1987,7.1987,7.1987,7.1987,7.1987,7.1987,7.1987,7.201,7.2017,7.2017,7.2017,7.201,7.1987,7.1987,7.1987,7.1987,7.1987,7.1987,7.1987,7.1987,7.1987,7.1987,7.1987,7.1987,7.1987,7.1987,7.1948,7.1792,0.0,0.0,0.0,0.0,0.0,0.0,0.0,0.0,0.0,0.0,0.0,0.0,0.0,0.0,0.0,0.0,4.2744,4.4562,4.6535,4.9861,5.2917,5.5548,5.8062,6.0228,6.193,6.282,6.3671,6.4522,6.5102,6.5393,6.5432,6.6013,6.6303,6.6358,6.6411,6.6461,6.6415,6.5945,6.5777,6.5667,6.4271,6.338,6.2664,6.0078,5.8031,5.629,0.0,5.295,5.2459,5.0725,5.0328,5.0559,5.0533,5.0912,5.1508,5.2099,5.2889,5.3945,5.5703,5.7226,5.8711,6.043,6.1484,6.2422,6.3591,6.4326,6.463,6.4379,6.4999,6.5429,6.4843,6.5429,6.617,6.6756,6.7551,6.8105,6.8105,6.8105,6.791,6.7363,6.7051,6.6891,6.6917,6.8683,0.0,6.9823,7.119,7.201,7.201,7.201,7.201,7.201,7.201,7.2006,7.1987,7.1997,7.2014,7.199,7.199,7.1986,7.201,7.201,7.2002,7.1987,7.1987,7.1987,7.1987,7.1987,7.1987,7.1987,7.1987,7.1987,7.1987,7.1987,7.1987,7.1948,0.0,0.0,0.0,0.0,0.0,0.0,0.0,0.0,0.0,0.0,0.0,0.0,0.0,0.0,0.0,0.0,0.0,4.3401,4.4833,4.7811,5.0558,5.2879,5.5122,5.7267,5.9279,5.986,6.0884,6.2373,6.2954,6.3514,6.4131,6.4713,6.5174,6.5497,6.5576,6.562,6.5595,6.4827,6.4335,6.3886,6.2201,6.0878,5.9636,5.7312,5.5389,0.0,5.0953,5.0033,4.9883,4.8787,4.8786,4.9214,4.9207,5.022,5.1706,5.3202,5.4258,5.543,5.7773,5.9258,6.0586,6.2578,6.3515,6.4062,6.4648,6.5194,6.5346,6.448,6.4509,6.4579,6.4345,6.4778,6.5438,6.6288,6.7121,6.7679,6.7689,6.765,6.7494,6.6949,6.718,6.7367,6.7347,6.8882,0.0,6.9449,7.1011,7.1988,7.1988,7.1988,7.1988,7.1988,7.1988,7.1984,7.2014,7.2014,7.1984,7.1992,7.1992,7.1991,7.1988,7.1988,7.1984,7.2014,7.2006,7.2002,7.2002,7.1993,7.1987,7.1987,7.1987,7.1987,7.1987,7.1987,7.1987,7.1987,0.0,0.0,0.0,0.0,0.0,0.0,0.0,0.0,0.0,0.0,0.0,0.0,0.0,0.0,0.0,0.0,0.0,0.0,4.3169,4.5529,4.7695,4.9436,5.1061,5.3143,5.573,5.5807,5.7063,5.9614,5.9692,6.0561,6.2128,6.2277,6.2788,6.3595,6.3716,6.3753,6.3709,6.2912,6.2079,6.112,5.9435,5.7796,5.6152,5.4406,5.266,5.0824,4.8356,4.7461,4.7461,4.7461,4.7578,4.7695,4.7773,4.9492,5.2031,5.4609,5.6055,5.75,6.082,6.1797,6.25,6.4961,6.5586,6.5586,6.5586,6.5586,6.5273,6.4375,6.3513,6.3154,6.3896,6.4092,6.4438,6.5316,6.6253,6.6856,6.6875,6.6914,6.6914,6.6953,6.7691,6.8229,6.8249,6.9733,0.0,6.9609,0.0,7.1992,7.1992,7.1992,7.1992,7.1992,7.1992,7.1992,7.1992,7.1992,7.1992,7.1992,7.1992,7.1992,7.1992,7.1992,7.1992,7.1992,7.1986,7.1981,7.1981,7.2002,7.1993,7.1987,7.1987,7.1987,7.1987,7.1987,7.1987,7.1987,0.0,0.0,0.0,0.0,0.0,0.0,0.0,0.0,0.0,0.0,0.0,0.0,0.0,0.0,0.0,0.0,0.0,0.0,4.228,4.3556,4.504,4.6795,4.7879,4.9378,5.1372,5.2045,5.3028,5.4324,5.5644,5.6486,5.6924,5.8258,5.9021,5.9327,5.9991,5.9932,5.9278,5.846,5.7623,5.6686,5.502,5.3704,5.2546,5.0839,4.9131,4.7419,4.6133,4.5664,4.5664,4.5664,4.6953,4.8789,5.0039,5.1758,5.3711,5.5703,5.7773,5.9765,6.1289,6.3125,6.4765,6.543,6.5586,6.5586,6.5586,6.5117,6.4219,6.2695,6.2187,6.1718,6.0702,6.1523,6.2655,6.3513,6.4958,6.617,6.6797,6.6914,6.7148,6.7773,6.8047,6.8436,6.9021,7.0075,7.0623,0.0,7.1406,7.1992,7.1992,7.1992,7.1992,7.1992,7.1992,7.1992,7.1992,7.1992,7.1992,7.1992,7.1992,7.1992,7.1992,7.1992,7.1992,7.1992,7.1992,7.1991,7.1991,7.1989,7.1986,7.201,7.1997,7.1987,7.1987,7.1987,7.1987,7.1987,0.0,0.0,0.0,0.0,0.0,0.0,0.0,0.0,0.0,0.0,0.0,0.0,0.0,0.0,0.0,0.0,0.0,0.0,0.0,4.2254,4.3183,4.4176,4.5028,4.6164,4.7567,4.8075,4.8953,5.0197,5.118,5.2067,5.2835,5.3808,5.448,5.4918,5.542,5.5397,5.489,5.4039,5.3181,0.0,0.0,4.9723,4.8478,4.7536,4.6328,4.5039,4.418,4.4336,4.5234,4.6758,4.8476,5.0351,5.2461,5.4297,5.6055,5.7773,5.9531,6.1328,6.2969,6.4492,6.5703,6.6055,6.5898,6.539,6.4648,6.3789,6.2578,6.0469,5.9726,5.9297,5.8711,5.9414,6.0664,6.2695,6.414,6.5469,6.6719,6.7226,6.7656,6.8125,6.8867,6.9453,6.9922,7.0742,7.1289,0.0,7.1719,7.1992,7.1992,7.1992,7.1992,7.1992,7.1992,7.1992,7.1992,7.1992,7.1992,7.1992,7.1992,7.1992,7.1992,7.1992,7.1992,7.1992,0.0,7.1992,7.1992,7.1992,7.1991,7.1988,7.1981,7.2014,7.2002,7.1993,7.1987,7.1987,0.0,0.0,0.0,0.0,0.0,0.0,0.0,0.0,0.0,0.0,0.0,0.0,0.0,0.0,0.0,0.0,0.0,0.0,0.0,0.0,4.1879,4.1904,4.2613,4.3408,4.4287,4.4422,4.522,4.6753,4.6863,4.7696,4.9177,4.9294,4.9722,5.0455,5.0647,5.0667,5.0511,4.9723,4.886,4.7891,4.7333,4.6058,4.4507,0.0,4.4101,4.3281,4.2617,4.3437,4.5391,4.8984,5.0898,5.2187,5.4805,5.6914,5.8711,6.0273,6.1445,6.2695,6.4961,6.5664,6.5937,6.6562,6.6055,6.4961,6.3203,6.207,6.0664,5.8242,5.7031,5.6601,5.7265,5.7656,5.8906,6.1992,6.3515,6.4883,6.6484,6.7578,6.8242,6.8359,6.9765,7.0742,7.0859,7.1562,7.1992,7.1992,7.1992,7.1992,7.1992,7.1992,7.1992,7.1992,7.1992,7.1992,7.1992,7.1992,7.1992,7.1992,7.1992,7.1992,7.1992,7.1992,7.1992,7.1992,0.0,0.0,7.1992,7.1992,7.1992,7.1992,7.1992,7.199,7.1981,7.2006,7.1997,7.1993,0.0,0.0,0.0,0.0,0.0,0.0,0.0,0.0,0.0,0.0,0.0,0.0,0.0,0.0,0.0,0.0,0.0,0.0,0.0,0.0,0.0,4.1009,4.1225,4.1403,4.1653,4.2377,4.2914,4.3256,4.3973,4.4497,4.4826,4.5528,4.5958,4.6111,4.6856,4.6778,4.6114,4.5963,4.4979,4.3556,4.4146,4.3383,4.1913,4.2617,0.0,0.0,4.2226,4.3047,4.457,4.8789,5.168,5.4023,5.6601,5.9101,6.125,6.2265,6.3672,6.5039,6.5469,6.6133,6.6523,6.5976,6.5156,6.4062,6.2305,6.0742,5.9101,5.7226,5.6133,5.5351,5.4765,5.6445,5.832,5.9648,6.2344,6.4648,6.5664,6.7187,6.8476,6.918,7.0117,7.0976,7.1719,7.1914,7.1992,0.0,7.1992,7.1992,7.1992,7.1992,7.1992,7.1992,7.1992,7.1992,7.1992,7.1992,7.1992,7.1992,7.1992,7.1992,7.1992,7.1992,7.1992,7.1992,0.0,0.0,7.1992,7.1992,7.1992,7.1992,7.1992,7.1992,7.1991,7.1991,7.1986,7.2014,0.0,0.0,0.0,0.0,0.0,0.0,0.0,0.0,0.0,0.0,0.0,0.0,0.0,0.0,0.0,0.0,0.0,0.0,0.0,0.0,0.0,4.0787,4.0837,4.0898,4.0991,4.1395,4.168,4.1735,0.0,4.2182,4.1717,4.2147,4.2108,4.1678,4.2107,4.2068,4.1677,4.1677,4.1207,4.0461,4.089,4.0857,4.0586,4.0937,0.0,0.0,4.2109,4.3242,4.4883,4.8359,5.1211,5.3945,5.7461,6.0,6.1953,6.3281,6.4258,6.5117,6.6015,6.6562,6.668,6.582,6.4922,6.3594,6.1015,5.9414,5.7656,5.4531,5.3906,5.3672,5.2812,5.4765,5.7148,5.8906,6.1328,6.3555,6.5351,6.7109,6.8515,6.9336,7.0586,7.1523,7.1953,7.1992,7.1992,7.1992,7.1992,7.1992,7.1992,7.1992,7.1992,7.1992,7.1992,7.1992,7.1992,7.1992,7.1992,7.1992,7.1992,7.1992,7.1992,7.1992,7.1992,7.1992,7.1992,0.0,7.2031,7.25,7.2695,7.2734,7.3164,7.3359,7.3359,7.3359,7.3359,7.3356,0.0,0.0,0.0,0.0,0.0,0.0,0.0,0.0,0.0,0.0,0.0,0.0,0.0,0.0,0.0,0.0,0.0,0.0,0.0,0.0,0.0,0.0,0.0,0.0,4.0704,0.0,0.0,4.0541,4.078,0.0,0.0,0.0,0.0,0.0,3.8594,3.8594,3.8594,3.8594,3.8476,0.0,0.0,3.8906,3.9375,0.0,0.0,0.0,0.0,4.3125,4.4844,4.7461,4.9922,5.2617,5.6797,5.9492,6.1523,6.3476,6.414,6.4648,6.6211,6.6758,6.664,6.5586,6.4687,6.3125,5.9687,5.8086,5.6211,5.2226,5.1797,5.1953,5.1289,5.3125,5.5547,5.7969,6.0078,6.2265,6.4687,6.6719,6.8281,6.9297,7.0781,7.1797,7.1992,7.1992,7.1992,7.1992,7.1992,0.0,7.1992,7.1992,7.1992,7.1992,7.1992,7.1992,7.1992,7.1992,7.1992,7.1992,7.1992,7.1992,7.1992,7.1992,7.1992,7.1992,7.1992,0.0,0.0,7.3008,7.3398,7.3633,7.4336,7.4609,7.4609,7.4609,7.4609,7.4609,0.0,0.0,0.0,0.0,0.0,0.0,0.0,0.0,0.0,0.0,0.0,0.0,0.0,0.0,0.0,0.0,0.0,0.0,0.0,0.0,0.0,0.0,0.0,0.0,0.0,0.0,0.0,3.8741,3.953,0.0,0.0,0.0,0.0,0.0,0.0,3.8594,3.8594,3.8594,0.0,0.0,0.0,0.0,0.0,0.0,0.0,0.0,0.0,4.1875,4.3047,4.5664,4.7734,4.9844,5.3359,5.6758,5.9922,6.2383,6.3672,6.4492,6.5469,6.6289,6.6484,6.4844,6.375,6.2226,5.8789,5.6719,5.4765,5.1953,5.0898,5.0391,5.0312,5.1758,5.3555,5.5351,5.8398,6.1172,6.2969,6.543,6.7617,6.9297,7.0273,7.1133,7.1914,7.1992,7.1992,7.1992,0.0,0.0,7.1992,7.1992,7.1992,7.1992,7.1992,7.1992,7.1992,7.1992,7.1992,7.1992,7.1992,7.1992,7.1992,7.1992,7.1992,7.1992,0.0,0.0,0.0,7.3281,7.3789,7.4492,7.457,7.4609,7.4609,7.4609,7.4609,7.4609,0.0,0.0,0.0,0.0,0.0,0.0,0.0,0.0,0.0,0.0,0.0,0.0,0.0,0.0,0.0,0.0,0.0,0.0,0.0,0.0,0.0,0.0,0.0,0.0,0.0,0.0,3.885,3.8502,3.884,0.0,0.0,0.0,0.0,0.0,0.0,3.7031,3.7031,3.7031,0.0,0.0,0.0,0.0,0.0,0.0,0.0,0.0,0.0,0.0,4.2656,4.4219,4.5898,4.7773,5.0156,5.2578,5.543,6.0078,6.2031,6.3164,6.5078,6.5469,6.5156,6.4453,6.3242,6.1328,5.789,5.5781,5.3633,5.0547,4.9648,4.9414,4.9414,5.1211,5.3281,5.5039,5.7773,6.0273,6.1992,6.4453,6.6562,6.7773,6.957,7.0859,7.1172,7.168,7.1992,7.1992,0.0,0.0,7.1992,7.1992,7.1992,7.1992,7.1992,7.1992,7.1992,7.1992,7.1992,7.1992,7.1992,7.1992,7.1992,7.1992,7.2305,7.2773,0.0,0.0,0.0,7.4648,7.5078,7.543,7.5976,7.6172,7.6172,7.6172,7.6172,7.6172,0.0,0.0,0.0,0.0,0.0,0.0,0.0,0.0,0.0,0.0,0.0,0.0,0.0,0.0,0.0,0.0,0.0,0.0,0.0,0.0,0.0,0.0,0.0,0.0,0.0,0.0,3.7962,3.7747,3.7976,3.7695,0.0,0.0,3.6601,3.6016,0.0,0.0,0.0,0.0,0.0,0.0,0.0,0.0,0.0,0.0,0.0,0.0,0.0,0.0,0.0,0.0,0.0,4.5508,4.75,4.9101,5.1406,5.7187,5.9883,6.1484,6.3828,6.4375,6.4258,6.3984,6.2422,6.0195,5.7265,5.4844,5.2422,4.9492,4.8672,4.8594,4.8867,5.0351,5.2305,5.4531,5.6875,5.9101,6.1055,6.3359,6.5351,6.6758,6.8711,7.0156,7.0664,7.1484,7.1992,7.1992,0.0,0.0,0.0,7.1992,7.1992,7.1992,7.1992,7.1992,7.1992,7.1992,7.1992,7.1992,7.1992,7.2148,7.2383,7.2383,7.2851,7.3672,0.0,0.0,0.0,7.5664,7.6055,7.6367,7.6953,7.7187,7.7187,7.7187,7.7187,7.7187,0.0,0.0,0.0,0.0,0.0,0.0,0.0,0.0,0.0,0.0,0.0,0.0,0.0,0.0,0.0,0.0,0.0,0.0,0.0,0.0,0.0,0.0,0.0,0.0,0.0,0.0,3.6727,3.5943,3.6779,3.6806,3.6017,3.6027,3.6005,3.6016,0.0,0.0,0.0,0.0,0.0,0.0,0.0,0.0,3.8594,0.0,0.0,0.0,0.0,0.0,0.0,0.0,0.0,0.0,0.0,4.6914,4.8672,5.3828,5.7187,5.9609,6.1289,6.3008,6.4101,6.3242,6.1094,5.875,5.6992,5.3906,5.0937,4.9258,4.8203,4.7891,4.875,4.8906,5.0039,5.3476,5.5469,5.75,6.0078,6.1914,6.3984,6.6601,6.7695,6.8867,7.0547,7.1484,7.1992,0.0,0.0,0.0,0.0,7.1992,7.1992,7.1992,7.1992,7.1992,7.1992,7.1992,7.1992,7.1992,7.1992,7.2461,7.3281,7.3281,7.375,0.0,0.0,0.0,0.0,7.5898,7.6406,7.7187,7.7187,7.7187,7.7187,7.7187,7.7187,7.7187,0.0,0.0,0.0,0.0,0.0,0.0,0.0,0.0,0.0,0.0,0.0,0.0,0.0,0.0,0.0,0.0,0.0,0.0,0.0,0.0,0.0,0.0,0.0,0.0,0.0,0.0,0.0,3.5826,3.6132,3.6162,3.5919,3.597,3.5994,3.6013,3.6015,3.6016,0.0,0.0,0.0,0.0,0.0,3.7031,3.8594,0.0,0.0,0.0,0.0,0.0,0.0,0.0,0.0,0.0,0.0,0.0,0.0,4.9375,5.2695,5.6289,5.9219,5.9961,6.0,6.0312,5.8906,5.6797,5.4453,5.2187,5.0273,4.9141,4.8203,4.8047,4.9531,5.0234,5.1562,5.4414,5.6367,5.8164,6.0117,6.1914,6.3515,6.4961,6.7461,6.9765,7.1445,0.0,7.1992,0.0,0.0,0.0,0.0,7.1992,7.1992,7.1992,7.1992,7.1992,7.1992,7.1992,7.2305,7.289,7.289,7.3359,7.418,7.418,0.0,0.0,0.0,0.0,0.0,7.6797,7.6953,7.7187,7.7187,7.7187,7.7187,7.7187,7.7187,7.7187,0.0,0.0,0.0,0.0,0.0,0.0,0.0,0.0,0.0,0.0,0.0,0.0,0.0,0.0,0.0,0.0,0.0,0.0,0.0,0.0,0.0,0.0,0.0,0.0,0.0,0.0,0.0,3.5795,3.5878,3.5911,3.5894,3.5958,3.5988,3.601,3.6013,3.6015,0.0,0.0,0.0,0.0,3.6016,3.7031,3.8594,0.0,0.0,0.0,0.0,0.0,0.0,0.0,0.0,0.0,0.0,0.0,0.0,0.0,4.8984,5.1992,5.6133,5.7305,5.7539,5.8086,5.664,5.4687,5.3086,5.0898,4.9141,4.8945,4.8476,4.8516,4.9922,5.1133,5.2539,5.4492,5.6562,5.8398,5.9765,6.1445,6.3203,6.5078,6.7773,7.0117,0.0,7.1992,0.0,0.0,0.0,0.0,0.0,7.2305,7.25,7.25,7.2187,7.1992,7.1992,7.2344,7.2773,7.3281,7.3633,7.4258,7.5078,7.5078,0.0,0.0,0.0,0.0,0.0,7.7187,7.7187,7.7187,7.7187,7.7187,7.7187,7.7187,7.7187,7.7187,0.0,0.0,0.0,0.0,0.0,0.0,0.0,0.0,0.0,0.0,0.0,0.0,0.0,0.0,0.0,0.0,0.0,0.0,0.0,0.0,0.0,0.0,0.0,0.0,0.0,3.5818,3.5818,3.5818,3.5864,3.5892,3.5911,3.5953,3.5988,3.6005,3.6009,3.6012,0.0,0.0,0.0,0.0,3.6016,3.7031,0.0,0.0,0.0,0.0,0.0,0.0,0.0,0.0,0.0,0.0,0.0,0.0,0.0,0.0,0.0,0.0,0.0,5.4805,5.6133,5.6133,5.4336,5.25,5.2383,4.9883,0.0,4.8711,4.8945,4.9258,5.0117,5.1719,5.3164,5.3945,5.6289,5.8281,5.914,6.0859,6.3242,6.6601,6.8476,7.0156,7.1836,7.1992,0.0,0.0,0.0,0.0,0.0,7.2851,7.332,7.3398,7.2617,7.2187,7.2187,7.3008,7.3437,7.3476,7.4297,7.5156,7.5976,7.5976,0.0,0.0,0.0,0.0,0.0,7.7187,7.7187,7.7187,7.7187,7.7187,7.7187,7.7187,7.7187,7.7187,0.0,0.0,0.0,0.0,0.0,0.0,0.0,0.0,0.0,0.0,0.0,0.0,0.0,0.0,0.0,0.0,0.0,0.0,0.0,0.0,0.0,0.0,0.0,0.0,0.0,3.5818,3.5818,3.5818,3.5864,3.5892,3.5905,3.5933,3.5958,3.5985,3.5981,0.0,0.0,0.0,0.0,0.0,3.6016,3.7031,0.0,0.0,0.0,0.0,4.1211,4.1211,0.0,0.0,0.0,0.0,0.0,0.0,0.0,0.0,4.5273,4.6719,4.8594,0.0,5.1719,5.1719,5.125,5.043,0.0,4.8164,4.7851,4.8711,4.9414,5.0156,5.0976,5.3086,5.4765,5.4961,5.7187,5.918,6.0,6.2734,6.5469,6.7656,6.9375,7.082,7.1914,0.0,0.0,0.0,0.0,0.0,0.0,7.3203,7.3594,7.4258,7.4101,7.3984,7.3984,7.418,7.4648,7.5273,7.5508,7.6055,7.6875,7.6875,0.0,0.0,0.0,0.0,7.7187,7.7187,7.7187,7.7187,7.7187,7.7187,7.7187,7.7187,7.7187,7.7187,0.0,0.0,0.0,0.0,0.0,0.0,0.0,0.0,0.0,0.0,0.0,0.0,0.0,0.0,0.0,0.0,0.0,0.0,0.0,0.0,0.0,0.0,0.0,0.0,0.0,3.5818,3.5818,3.5818,3.585,3.5833,3.584,3.5859,3.5883,3.5899,3.5948,0.0,0.0,0.0,0.0,3.6015,3.6015,0.0,0.0,0.0,0.0,0.0,4.1055,4.1211,0.0,4.1211,4.1211,4.1211,0.0,0.0,0.0,0.0,4.4062,4.5312,4.6172,4.7969,4.9609,4.9609,4.9297,4.875,4.7812,4.7305,4.7344,4.8633,4.9609,5.0586,5.1758,5.3828,5.5312,5.5312,5.75,5.9765,6.1367,6.4258,6.668,6.8047,6.9687,7.1055,0.0,0.0,0.0,0.0,0.0,0.0,0.0,7.3672,7.4297,7.5156,7.5586,7.539,7.4609,7.5,7.543,7.5898,7.6328,7.6758,7.7187,7.7187,7.7187,0.0,0.0,0.0,7.7187,7.7187,7.7187,7.7187,7.7187,7.7187,7.7187,7.7187,7.7187,7.7187,0.0,0.0,0.0,0.0,0.0,0.0,0.0,0.0,0.0,0.0,0.0,0.0,0.0,0.0,0.0,0.0,0.0,0.0,0.0,0.0,0.0,0.0,0.0,3.5818,3.5818,3.5818,3.5818,3.5818,3.5795,3.5803,3.5803,3.5787,3.5801,3.5794,3.5872,0.0,0.0,0.0,0.0,3.6007,3.6013,0.0,0.0,0.0,0.0,0.0,0.0,0.0,0.0,4.1211,4.1211,4.1211,4.1211,0.0,0.0,0.0,0.0,0.0,4.4766,4.6719,4.8516,4.8516,4.7969,4.7383,4.7382,4.6913,4.6953,4.8555,4.9687,5.0859,5.2422,5.4101,5.5351,5.5469,5.7812,6.0469,6.3047,6.5547,6.7422,6.8281,6.9883,0.0,0.0,0.0,0.0,0.0,0.0,0.0,0.0,7.414,7.5,7.5859,7.6758,7.6484,7.5,7.5742,7.6094,7.6094,7.6836,7.7187,7.7187,7.7187,7.7187,0.0,0.0,0.0,7.7187,7.7187,7.7187,7.7187,7.7187,7.7187,7.7187,7.7187,7.7187,7.7187,0.0,0.0,0.0,0.0,0.0,0.0,0.0,0.0,0.0,0.0,0.0,0.0,0.0,0.0,0.0,0.0,0.0,0.0,0.0,0.0,0.0,0.0,3.5857,3.5818,3.5818,3.5818,3.5818,3.5818,3.5795,3.5803,3.5803,3.5818,3.5811,3.5788,3.5794,3.5846,0.0,0.0,0.0,3.5939,3.5994,0.0,0.0,0.0,0.0,0.0,0.0,0.0,0.0,4.1211,4.1211,4.1211,4.1211,0.0,0.0,0.0,0.0,0.0,4.4766,4.582,4.6719,4.6719,4.6601,4.6484,4.651,4.697,4.7679,4.8671,5.0156,5.1523,5.2539,5.4101,5.5547,5.6289,5.918,6.2226,6.4844,6.6836,6.8281,6.9101,0.0,0.0,0.0,0.0,0.0,0.0,0.0,0.0,0.0,7.414,7.5,7.5859,7.6758,7.707,7.6797,7.6914,7.6992,7.6992,7.7148,7.7187,7.7187,7.7187,7.7187,0.0,0.0,7.7187,7.7187,7.7187,7.7187,7.7187,7.7187,7.7187,7.7187,7.7187,7.7187,7.7187,0.0,0.0,0.0,0.0,0.0,0.0,0.0,0.0,0.0,0.0,0.0,0.0,0.0,0.0,0.0,0.0,0.0,0.0,0.0,0.0,0.0,0.0,3.5818,3.5818,3.5818,3.5818,3.5818,3.5818,3.5788,3.5788,3.5788,3.5771,3.5745,3.5757,3.5745,3.5771,3.5865,0.0,3.5853,3.585,0.0,0.0,0.0,0.0,0.0,0.0,0.0,0.0,0.0,0.0,4.1133,4.1133,4.1172,0.0,0.0,0.0,0.0,0.0,4.418,4.5273,4.6406,4.6875,4.6989,4.7015,4.7006,4.763,4.8513,4.9361,5.0154,5.125,5.3086,5.4453,5.6172,5.8906,6.1445,6.3867,6.6015,6.7812,6.9219,0.0,0.0,0.0,0.0,0.0,0.0,0.0,0.0,0.0,0.0,0.0,7.5,7.5859,7.6758,7.7187,7.7187,7.7187,7.7187,7.7187,7.7187,7.7187,7.7187,7.7187,7.7187,7.7187,0.0,7.7187,7.7187,7.7187,7.7187,7.7187,7.7187,7.7187,7.7187,7.7187,7.7187,7.7187,0.0,0.0,0.0,0.0,0.0,0.0,0.0,0.0,0.0,0.0,0.0,0.0,0.0,0.0,0.0,0.0,0.0,0.0,0.0,0.0,3.6518,3.5818,3.5818,3.5818,3.5818,3.5818,3.5818,3.5818,3.5818,3.581,3.5801,3.5727,3.5689,3.5697,3.5707,3.5728,3.5766,3.5793,3.5788,3.5794,0.0,0.0,0.0,0.0,0.0,0.0,0.0,0.0,0.0,0.0,0.0,0.0,0.0,0.0,0.0,4.1445,4.2539,4.375,4.3945,4.5117,4.6522,4.7381,4.7598,4.7708,4.8117,4.8794,4.9613,5.0499,5.0845,5.1678,5.3906,5.5508,5.7695,6.1406,6.3633,6.5469,6.6992,6.8672,7.0,0.0,0.0,0.0,0.0,0.0,0.0,0.0,0.0,0.0,0.0,0.0,7.4687,7.5586,7.6445,7.6992,7.7187,7.7187,7.7187,7.7187,7.7187,7.7187,7.7187,7.7187,7.7187,7.7187,7.7187,7.7187,7.7187,7.7187,7.7187,7.7187,7.7187,7.7187,7.7187,7.7187,7.7187,7.7187,0.0,0.0,0.0,0.0,0.0,0.0,0.0,0.0,0.0,0.0,0.0,0.0,0.0,0.0,0.0,0.0,0.0,0.0,0.0,0.0,3.5857,3.5818,3.5818,3.5818,3.5818,3.5818,3.5818,3.5818,3.5818,3.5754,3.5708,3.5708,3.5679,3.5715,3.5697,3.5707,3.5718,3.5699,3.5736,3.5779,3.5811,0.0,0.0,0.0,0.0,0.0,0.0,0.0,0.0,0.0,0.0,0.0,0.0,0.0,4.1367,4.2109,4.2969,4.3867,4.4687,4.5581,4.6498,4.7393,4.7585,4.7993,4.9582,5.0525,5.1359,5.2253,5.3074,5.3966,5.4999,5.7851,6.0664,6.2578,6.5039,6.7031,6.7969,0.0,0.0,0.0,0.0,0.0,0.0,0.0,0.0,0.0,0.0,0.0,0.0,0.0,0.0,7.4687,7.5547,7.6367,7.7187,7.7187,7.7187,7.7187,7.7187,7.7187,7.7187,7.7187,7.7187,7.7187,7.7187,7.7187,7.7187,7.7187,7.7187,7.7187,7.7187,7.7187,7.7187,7.7187,7.7187,7.7187,0.0,0.0,0.0,0.0,0.0,0.0,0.0,0.0,0.0,0.0,0.0,0.0,0.0,0.0,0.0,0.0,0.0,0.0,0.0,0.0,3.5818,3.5818,3.5818,3.5818,3.5818,3.5818,3.5818,3.5818,3.5801,3.5775,3.5708,3.5689,3.5707,3.5704,3.5715,3.5687,3.5687,3.5697,3.5718,3.5795,3.6336,3.7319,0.0,0.0,0.0,0.0,0.0,0.0,0.0,0.0,4.1082,4.1092,4.1172,4.1211,4.1367,4.2148,4.3005,4.3891,4.4766,4.6015,4.7268,4.8113,4.9127,5.0213,5.1382,5.2706,5.4078,5.5498,5.6042,5.6563,5.7538,6.0078,6.2422,6.3594,6.6015,6.8008,6.8828,0.0,0.0,0.0,0.0,0.0,0.0,0.0,0.0,0.0,0.0,0.0,0.0,0.0,0.0,7.457,7.5469,7.6328,7.7187,7.7187,7.7187,7.7187,7.7187,7.7187,7.7187,7.7187,7.7187,7.7187,7.7187,7.7187,7.7187,7.7187,7.7187,7.7187,7.7187,7.7187,7.7187,7.7187,7.7187,7.7187,0.0,0.0,0.0,0.0,0.0,0.0,0.0,0.0,0.0,0.0,0.0,0.0,0.0,0.0,0.0,0.0,0.0,0.0,0.0,3.5818,3.5818,3.5818,3.5818,3.5818,3.5818,3.5818,3.5818,3.5818,3.5793,3.5766,3.5708,3.5679,3.5697,3.5704,3.5704,3.5704,3.5704,3.5704,3.5687,3.5785,3.6639,3.7531,0.0,0.0,0.0,0.0,0.0,0.0,0.0,0.0,4.1111,4.1125,4.1171,4.1367,4.1758,4.2576,4.342,4.4353,4.5482,4.6632,4.783,4.9244,5.0463,5.1802,5.374,5.5064,5.6398,5.8111,5.8749,5.9156,5.9876,6.1874,6.3711,0.0,6.6914,6.8789,6.9336,0.0,0.0,0.0,0.0,0.0,0.0,0.0,0.0,0.0,0.0,0.0,0.0,0.0,0.0,0.0,7.5195,7.6055,7.7187,7.7187,7.7187,7.7187,7.7187,7.7187,7.7187,7.7187,7.7187,7.7187,7.7187,7.7187,7.7187,7.7187,7.7187,7.7187,7.7187,7.7187,7.7187,7.7187,7.7187,7.7187,0.0,0.0,0.0,0.0,0.0,0.0,0.0,0.0,0.0,0.0,0.0,0.0,0.0,0.0,0.0,0.0,0.0,0.0,0.0,3.5818,3.5818,3.5818,3.5818,3.5818,3.5818,3.5818,3.5818,3.5818,3.5793,3.5766,3.5708,3.5718,3.5697,3.5704,3.5704,3.5704,3.5704,3.5704,3.5687,3.5785,3.6676,3.752,3.8394,0.0,0.0,0.0,0.0,0.0,0.0,0.0,4.1094,4.1114,4.1171,4.1758,4.2578,4.3456,4.4314,4.539,4.7058,4.7533,4.8148,5.0685,5.1346,5.2436,5.6647,5.762,5.8137,5.9888,6.1032,6.1732,6.172,6.3157,6.4609,6.5469,6.7773,6.9492,0.0,0.0,0.0,0.0,0.0,0.0,0.0,0.0,0.0,0.0,0.0,0.0,0.0,0.0,0.0,0.0,7.4609,7.543,7.7187,7.7187,7.7187,7.7187,7.7187,7.7187,7.7187,7.7187,7.7187,7.7187,7.7187,7.7187,7.7187,7.7187,7.7187,7.7187,7.7187,7.7187,7.7187,7.7187,7.7187,7.7187,0.0,0.0,0.0,0.0,0.0,0.0,0.0,0.0,0.0,0.0,0.0,0.0,0.0,0.0,0.0,0.0,0.0,0.0,0.0,3.5818,3.5818,3.5818,3.5818,3.5818,3.5818,3.5818,3.5818,3.5818,3.5736,3.5718,3.5708,3.5697,3.5715,3.5704,3.5704,3.5704,3.5704,3.5704,3.5715,3.5841,3.7334,3.8053,3.8481,0.0,0.0,0.0,0.0,0.0,0.0,0.0,0.0,0.0,4.1831,4.2218,4.2675,4.4138,4.515,4.6076,4.7135,4.874,5.0432,5.1742,5.3464,5.5614,5.8649,5.9386,6.0289,6.3291,6.4154,6.4208,6.3633,6.4445,6.5312,6.5547,6.7734,0.0,0.0,0.0,0.0,0.0,0.0,0.0,0.0,0.0,0.0,0.0,0.0,0.0,0.0,0.0,0.0,0.0,7.4609,7.543,7.7187,7.7187,7.7187,7.7187,7.7187,7.7187,7.7187,7.7187,7.7187,7.7187,7.7187,7.7187,7.7187,7.7187,7.7187,7.7187,7.7187,7.7187,7.7187,7.7187,7.7187,7.7187,0.0,0.0,0.0,0.0,0.0,0.0,0.0,0.0,0.0,0.0,3.7838,3.8266,0.0,0.0,0.0,0.0,0.0,0.0,0.0,0.0,3.5818,3.5818,3.5818,3.5818,3.5818,3.5818,3.581,3.5801,3.5727,3.5699,3.5689,3.5687,3.5704,3.5704,3.5704,3.5704,3.5704,3.5704,3.5704,3.5858,3.7583,3.8263,3.8489,0.0,0.0,0.0,0.0,0.0,0.0,0.0,0.0,0.0,4.2073,4.2846,4.3719,4.541,4.6505,4.7427,4.8582,5.002,5.1525,5.3029,5.4828,5.712,6.0424,6.1732,6.2896,6.5055,6.5784,6.5758,6.4942,6.5544,0.0,6.6133,0.0,0.0,0.0,0.0,0.0,0.0,0.0,0.0,0.0,0.0,0.0,0.0,0.0,0.0,0.0,0.0,0.0,0.0,7.4609,7.543,7.7187,7.7187,7.7187,7.7187,7.7187,7.7187,7.7187,7.7187,7.7187,7.7187,7.7187,7.7187,7.7187,7.7187,7.7187,7.7187,7.7187,7.7187,7.7187,7.7187,7.7187,7.7187,0.0,0.0,0.0,0.0,0.0,0.0,0.0,0.0,0.0,0.0,3.7683,3.7877,0.0,0.0,0.0,0.0,0.0,0.0,0.0,0.0,3.5818,3.5818,3.5818,3.5818,3.5818,3.5818,3.5801,3.5775,3.5718,3.5689,3.5707,3.5715,3.5704,3.5704,3.5704,3.5704,3.5704,3.5704,3.5742,3.5936,3.756,3.828,3.8584,4.0195,0.0,0.0,0.0,0.0,0.0,0.0,0.0,0.0,4.211,4.3545,4.5243,4.6969,4.8088,4.9093,5.0825,5.1372,5.202,5.4498,5.6001,5.7987,6.2102,6.4309,6.5543,6.5611,6.6254,6.658,6.5857,6.6367,6.6914,6.6914,0.0,0.0,0.0,0.0,0.0,0.0,0.0,0.0,0.0,0.0,0.0,0.0,0.0,0.0,0.0,0.0,0.0,7.4531,7.4609,7.543,7.7187,7.7187,7.7187,0.0,7.7187,7.7187,7.7187,7.7187,7.7187,7.7187,7.7187,7.7187,7.7187,7.7187,7.7187,7.7187,7.7187,7.7187,7.7187,7.7187,7.7187,7.7187,0.0,0.0,0.0,0.0,0.0,0.0,0.0,0.0,0.0,0.0,0.0,0.0,0.0,0.0,0.0,0.0,0.0,0.0,0.0,0.0,3.5818,3.5818,3.5818,3.5818,3.5818,3.5818,3.5754,3.5718,3.5708,3.5689,3.5707,3.5715,3.5704,3.5704,3.5704,3.5704,3.5704,3.5704,3.6052,3.6748,3.7793,3.864,3.943,4.0438,4.0849,0.0,0.0,0.0,0.0,0.0,0.0,0.0,4.2782,4.3964,4.5308,4.765,4.8899,4.9899,5.1605,5.301,5.4452,5.6317,5.9503,6.2657,6.4426,6.565,6.6438,6.6492,6.67,6.6839,6.664,6.6758,6.6914,0.0,0.0,0.0,0.0,0.0,0.0,0.0,0.0,0.0,0.0,0.0,0.0,0.0,0.0,0.0,0.0,0.0,0.0,7.4531,7.4609,7.543,7.7187,7.7187,7.7187,0.0,7.7187,7.7187,7.7187,7.7187,7.7187,7.7187,7.7187,7.7187,7.7187,7.7187,7.7187,7.7187,7.7187,7.7187,7.7187,7.7187,7.7187,7.7187,0.0,0.0,0.0,0.0,0.0,0.0,0.0,0.0,0.0,0.0,0.0,0.0,0.0,0.0,0.0,0.0,0.0,0.0,0.0,0.0,0.0,3.5818,3.5818,3.5818,3.5818,3.5818,3.5987,3.6329,3.6329,3.6115,3.5687,3.5715,3.5704,3.5704,3.5704,3.5704,3.5742,3.6091,3.6516,3.7019,3.8295,3.9143,3.9641,4.0494,4.0858,4.0965,4.0965,0.0,0.0,0.0,0.0,0.0,0.0,0.0,4.5343,4.8281,4.9459,5.0209,5.2337,5.3855,5.5504,5.8445,6.1535,6.4093,6.5077,6.6029,6.672,6.6784,6.6852,6.6906,6.6914,6.6914,6.6914,0.0,0.0,0.0,0.0,0.0,0.0,0.0,0.0,0.0,0.0,0.0,0.0,0.0,0.0,0.0,0.0,7.1992,7.2812,7.4531,7.4609,7.543,7.7187,7.7187,7.7187,7.7187,7.7187,7.7187,7.7187,7.7187,7.7187,7.7187,7.7187,7.7187,7.7187,7.7187,7.7187,7.7187,7.7187,7.7187,7.7187,7.7187,7.7187,7.7187,0.0,0.0,0.0,0.0,0.0,0.0,0.0,0.0,0.0,0.0,0.0,0.0,0.0,0.0,0.0,0.0,0.0,0.0,0.0,0.0,0.0,0.0,3.5818,3.5818,3.5818,3.581,3.6172,3.6978,3.7133,3.6908,3.6361,3.6207,3.6052,3.5897,3.5897,3.5897,3.5936,3.6632,3.7058,3.7483,3.8914,3.9596,3.9813,4.0548,4.0815,4.0897,4.0897,4.0878,4.0888,4.0897,0.0,0.0,0.0,0.0,4.5338,4.88,4.9741,5.0308,5.3058,5.4614,5.6455,6.0592,6.2771,6.4155,6.5164,6.6037,6.6683,6.6766,6.6823,6.6875,6.6914,6.6914,6.6914,0.0,0.0,0.0,0.0,0.0,0.0,0.0,0.0,0.0,0.0,0.0,0.0,0.0,0.0,0.0,7.1992,7.1992,7.2812,7.4531,7.4609,7.543,7.7187,7.7187,7.7187,7.7187,7.7187,7.7187,7.7187,7.7187,7.7187,7.7187,7.7187,7.7187,7.7187,7.7187,7.7187,7.7187,7.7187,7.7187,7.7187,7.7187,7.7305,7.7422,0.0,0.0,0.0,0.0,0.0,0.0,0.0,0.0,0.0,0.0,3.5818,3.5818,0.0,0.0,0.0,0.0,0.0,0.0,3.5818,0.0,0.0,3.5818,3.5818,3.5818,3.5818,3.5793,3.6202,3.6978,3.7693,3.8369,3.9004,3.8218,3.7444,3.6748,3.6748,3.6748,3.6748,3.6864,3.7754,3.9146,3.9429,3.9944,4.0626,4.0781,4.0804,4.0798,4.0798,4.0798,4.0798,4.0804,4.0831,0.0,0.0,0.0,4.5311,4.8716,4.9722,5.0403,5.3746,5.6321,5.897,6.2567,6.3649,6.4265,6.5863,6.6368,6.653,6.6602,6.6717,6.6836,6.6875,6.6914,6.6914,0.0,0.0,0.0,0.0,0.0,0.0,0.0,0.0,0.0,0.0,0.0,0.0,0.0,0.0,0.0,7.1992,7.1992,7.2812,7.4531,7.4609,7.543,7.7187,7.7187,7.7187,7.7187,7.7187,7.7187,7.7187,7.7187,7.7187,7.7187,7.7187,7.7187,7.7187,7.7187,7.7187,7.7187,7.7187,7.7187,7.7187,7.7187,7.7695,7.832,0.0,0.0,0.0,0.0,0.0,0.0,0.0,0.0,0.0,0.0,0.0,3.5818,0.0,0.0,0.0,3.5818,3.5818,3.5818,3.5818,3.5818,3.5818,3.5818,3.5818,3.5818,3.5818,3.6259,3.6891,3.7724,3.901,4.006,4.0887,4.05,3.9611,3.8334,3.787,3.7638,3.7677,3.8141,3.8798,3.9545,4.0036,4.0474,4.0834,4.1299,4.1454,4.1555,4.2008,4.2202,4.2202,4.2189,4.2176,4.2409,4.3634,0.0,0.0,0.0,4.8585,4.9823,5.373,5.667,5.9202,6.1697,6.307,6.4113,6.5351,6.6057,6.6446,6.6517,6.6634,6.6733,6.6828,6.6832,6.6872,0.0,0.0,0.0,0.0,0.0,0.0,0.0,0.0,0.0,0.0,0.0,0.0,0.0,0.0,7.1992,7.1992,7.1992,7.2812,7.4531,7.4609,7.543,7.7187,7.7187,7.7187,7.7187,7.7187,7.7187,7.7187,7.7187,7.7187,7.7187,7.7187,7.7187,7.7187,7.7187,7.7187,7.7187,7.7187,7.7187,7.7265,7.7734,7.8164,7.8555,0.0,0.0,0.0,0.0,0.0,0.0,0.0,0.0,0.0,0.0,0.0,0.0,0.0,0.0,0.0,0.0,3.5818,3.5818,3.5818,3.5818,3.5818,3.5818,3.5818,3.581,3.581,3.6366,3.7191,3.8257,3.9735,4.0989,4.2009,4.2009,4.1313,4.0075,3.8992,3.8528,3.8566,3.9224,3.9623,3.9894,4.0539,4.0926,4.1158,4.1777,4.228,4.2744,4.3401,4.3634,4.3634,4.3634,4.3479,4.344,4.433,4.4601,0.0,0.0,0.0,4.9823,5.3498,5.6167,5.8333,6.0035,6.1813,6.3341,6.4154,6.5234,6.604,6.6105,6.6344,6.6581,6.6681,6.6761,6.682,0.0,0.0,0.0,0.0,0.0,0.0,0.0,0.0,0.0,0.0,0.0,0.0,0.0,0.0,7.1992,7.1992,7.1992,7.2695,7.4219,7.4492,7.5312,7.6836,7.7109,7.7187,7.7187,7.7187,7.7187,7.7187,7.7187,7.7187,7.7187,7.7187,7.7187,7.7187,7.7187,7.7187,7.7187,7.7187,7.7344,7.7617,7.8242,7.8789,7.9219,0.0,0.0,0.0,0.0,0.0,0.0,0.0,0.0,0.0,0.0,0.0,0.0,0.0,3.5818,3.5818,3.5818,3.5818,3.5818,3.5818,3.5818,3.5818,3.5818,3.5818,0.0,3.5784,3.5795,3.658,3.8214,3.9131,4.0384,4.2009,4.2009,4.1932,4.1816,4.0152,3.9429,3.9429,3.9468,3.9971,4.0732,4.0771,4.1274,4.1932,4.197,4.3015,4.4485,4.4523,4.4523,4.4523,4.4523,4.3982,4.344,4.433,4.4601,4.4949,0.0,0.0,0.0,5.3072,5.4813,5.6553,5.8294,5.9996,6.1466,6.2356,6.3844,6.5082,6.5082,6.5773,6.6422,6.6485,6.6613,6.6727,0.0,0.0,0.0,0.0,0.0,0.0,0.0,0.0,0.0,0.0,0.0,0.0,0.0,0.0,7.1992,7.1992,7.1992,7.2422,7.3359,7.418,7.5039,7.5976,7.6797,7.7187,7.7187,7.7187,7.7187,7.7187,7.7187,7.7187,7.7187,7.7187,7.7187,7.7187,7.7187,7.7187,7.7187,7.7187,7.7695,7.8437,7.8476,7.9492,8.0898,0.0,0.0,0.0,0.0,0.0,0.0,0.0,0.0,0.0,0.0,0.0,0.0,0.0,3.5818,3.5818,3.5818,3.5818,3.5818,3.5818,3.5818,3.5818,3.5818,3.5801,3.5793,3.5784,3.628,3.7063,3.8214,3.9623,4.0887,4.2009,4.2009,4.2009,4.1932,4.081,4.0616,4.1081,4.1081,4.1274,4.1583,4.1583,4.1738,4.2125,4.3247,4.4369,4.5529,4.6651,4.7038,4.696,4.638,4.5993,4.5684,4.5452,4.5374,4.5722,4.7424,4.8972,5.0519,5.2182,5.3923,5.5509,5.667,5.8217,5.9725,6.0615,6.2104,6.3322,6.3398,6.4131,6.4903,6.548,6.6153,6.6634,6.6681,0.0,0.0,0.0,0.0,0.0,0.0,0.0,0.0,0.0,0.0,0.0,0.0,0.0,0.0,7.1992,7.1992,7.2383,7.3281,7.414,7.5273,7.6719,7.7031,7.7187,7.7187,7.7187,7.7187,7.7187,7.7187,7.7187,7.7187,7.7187,7.7187,7.7187,7.7187,7.7187,7.7265,7.7812,7.8242,7.8633,7.9726,8.0117,8.0234,0.0,0.0,0.0,0.0,0.0,0.0,0.0,0.0,0.0,0.0,0.0,0.0,0.0,0.0,3.5818,3.5818,3.5818,3.5818,3.5818,3.609,3.6246,3.6246,3.6492,3.6629,3.6619,3.7123,3.7827,3.8628,3.9816,4.0771,4.1583,4.1583,4.1738,4.197,4.1429,4.1506,4.2009,4.2318,4.2434,4.2434,4.2434,4.2628,4.3015,4.4446,4.5877,4.7308,4.874,0.0,0.0,0.0,0.0,4.7386,4.6496,4.6032,4.6071,4.754,4.8585,4.9552,5.0983,5.2608,5.4039,5.4581,5.6244,5.7869,5.8449,6.0112,6.166,6.1968,6.2954,6.4038,6.4927,6.5863,6.6528,6.6579,0.0,0.0,0.0,0.0,0.0,0.0,0.0,0.0,0.0,0.0,0.0,0.0,0.0,0.0,7.1992,7.1992,7.2539,7.3711,7.4297,7.543,7.7187,7.6914,7.6914,7.7187,7.6914,7.6914,7.7187,7.7187,7.7187,7.7187,7.7187,7.7187,7.7187,7.7187,7.7383,7.7695,7.8281,7.8828,7.9453,8.0273,8.039,8.0195,0.0,0.0,0.0,0.0,0.0,0.0,0.0,0.0,0.0,0.0,0.0,0.0,0.0,0.0,0.0,3.5818,3.5818,3.5818,3.5857,3.6634,3.71,3.7139,3.7889,3.8287,3.8306,3.8236,3.8628,3.9507,3.9507,3.9971,4.081,4.081,4.1235,4.2009,4.2048,4.2086,4.2125,4.2976,4.3324,4.3324,4.3324,4.3866,4.4717,4.5529,4.7463,4.9861,5.0674,5.0945,0.0,5.0945,0.0,4.8314,4.7386,4.6535,4.5993,4.6883,4.7734,4.8585,0.0,0.0,0.0,5.2182,5.4078,5.5935,5.5973,5.7985,6.0074,6.0886,6.2394,6.3864,6.4754,6.5606,6.6242,6.6383,6.6528,0.0,0.0,0.0,0.0,0.0,0.0,0.0,0.0,0.0,0.0,0.0,0.0,7.1992,7.1992,7.1992,7.2812,7.4531,7.4609,7.543,7.7187,7.6328,7.6328,7.7187,7.6328,7.6367,7.7187,7.7187,7.7187,7.7187,7.7187,7.7187,7.7187,7.7187,7.7695,7.8515,7.8515,7.9531,8.0898,8.0039,8.0273,8.0859,0.0,0.0,0.0,0.0,0.0,0.0,0.0,0.0,0.0,0.0,0.0,0.0,0.0,0.0,3.5818,3.5818,3.5818,3.609,3.6712,3.6928,3.7298,3.7928,3.8112,3.8236,3.8236,3.8202,3.8617,3.9507,3.9507,3.9971,4.081,4.139,4.1777,4.2048,4.3324,4.3866,4.3904,4.4136,4.4253,4.4253,4.4253,4.4717,4.5568,4.6419,4.8314,5.0674,0.0,5.226,5.2685,0.0,5.1099,4.9861,4.7773,4.6922,4.6922,4.7773,4.8198,4.8701,5.0171,0.0,0.0,0.0,0.0,0.0,5.5006,5.7134,5.9029,5.9261,6.0654,6.2085,6.2975,6.3342,6.3728,6.4438,6.563,0.0,0.0,0.0,0.0,0.0,0.0,0.0,0.0,0.0,0.0,0.0,7.1992,7.1992,7.1992,7.1992,7.2812,7.4531,7.4609,7.543,7.7187,7.6328,7.6328,7.7187,7.6328,7.6367,7.7187,7.7187,7.7187,7.7187,7.7187,7.7187,7.7187,7.7187,7.7695,7.8555,7.914,8.0039,8.0976,8.0742,8.039,7.9922,0.0,0.0,0.0,0.0,0.0,0.0,0.0,0.0,0.0,0.0,0.0,0.0,0.0,0.0,0.0,3.6323,3.6323,3.6703,3.7549,3.788,3.8297,3.883,3.9138,3.9259,3.9259,3.9274,3.9533,4.0036,4.0036,4.0462,4.1313,4.1777,4.2396,4.3131,4.4136,4.4794,4.5104,4.549,4.5645,4.5645,4.5645,4.6148,4.6999,4.8237,4.9823,0.0,0.0,0.0,5.3962,5.3459,5.2221,0.0,4.8778,4.7927,4.7734,4.8237,4.8662,4.9165,5.0132,5.0635,5.1022,5.1525,0.0,0.0,5.4039,5.5935,5.7714,0.0,5.9919,6.1389,6.224,6.2704,6.311,6.3671,6.4617,6.5442,0.0,0.0,0.0,0.0,0.0,0.0,0.0,7.0936,0.0,7.1445,7.1797,7.1992,7.1992,7.1992,7.2812,7.4531,7.4609,7.543,7.7187,7.5976,7.5781,7.664,7.539,7.5469,7.664,7.664,7.6875,7.7187,7.7187,7.7187,7.7187,7.7187,7.789,7.9062,7.9531,8.0234,8.0937,8.0195,7.9648,7.9062,0.0,0.0,0.0,0.0,0.0,0.0,0.0,0.0,0.0,0.0,0.0,0.0,0.0,0.0,0.0,0.0,3.7208,3.7588,3.8375,3.9151,0.0,0.0,4.0405,4.0808,4.0808,4.0784,4.081,4.081,4.0887,4.1313,4.2009,4.2202,4.3131,4.4601,4.4678,4.5142,4.5838,4.6728,4.7192,4.7386,4.7386,4.7966,4.8972,5.048,5.1641,5.2685,5.4233,5.4851,5.4929,5.4813,5.3265,0.0,0.0,4.932,4.8662,4.8585,4.9088,4.9707,4.9823,5.0364,5.0906,5.0906,5.1563,0.0,5.3304,5.4813,5.6476,0.0,5.9725,6.1079,6.1853,6.2704,6.3284,6.3284,6.3439,6.394,0.0,0.0,0.0,0.0,0.0,0.0,6.9054,6.9989,7.0585,7.0703,7.1523,7.1992,7.1992,7.1992,7.2812,7.4531,7.4609,7.543,7.7187,7.5586,7.5117,7.5898,7.4336,7.4414,7.5898,7.6015,7.6484,7.7187,7.7187,7.7187,7.7226,7.7305,7.8203,7.957,7.957,8.0078,8.0664,7.9062,7.8515,7.8398,0.0,0.0,0.0,0.0,0.0,0.0,0.0,0.0,0.0,0.0,0.0,0.0,0.0,0.0,0.0,0.0,3.8074,3.8414,3.9275,3.9458,0.0,0.0,4.0718,4.0784,4.0784,4.0822,4.081,4.081,4.1429,4.1854,4.2048,4.344,4.4291,4.4639,4.5297,4.5645,4.5838,4.6728,4.7927,4.9204,4.9204,5.0094,5.1486,5.1834,5.2917,5.4349,5.4697,5.5238,5.5664,5.5006,5.4465,5.3652,0.0,0.0,0.0,4.9629,4.9591,4.9861,5.048,5.079,5.0906,5.0906,5.1563,0.0,5.3304,5.4813,5.6321,5.7327,5.8372,5.9145,5.93,6.0035,6.0654,6.0654,6.1776,6.3206,6.479,0.0,0.0,0.0,0.0,0.0,6.8141,6.9015,6.9902,7.0656,7.1515,7.1988,7.1992,7.1992,7.2812,7.4531,7.4609,7.543,7.7187,7.6172,7.5742,7.5898,7.5547,7.5586,7.5937,7.664,7.7031,7.7187,7.7187,7.7187,7.7265,7.7969,7.8437,7.8711,7.8711,7.9219,7.9844,7.8867,7.8515,7.8476,3.581,3.5818,0.0,0.0,0.0,0.0,0.0,0.0,0.0,0.0,0.0,0.0,3.8325,3.8753,0.0,0.0,0.0,0.0,0.0,0.0,0.0,0.0,4.1828,4.2048,4.2048,4.2048,4.2048,4.2048,4.2434,4.286,4.3324,4.4175,4.4794,4.522,4.5606,4.6032,4.6496,4.7386,4.8972,5.0906,5.048,5.1331,5.2879,5.3343,5.4271,5.547,5.5896,5.6592,5.7172,5.6321,5.6051,0.0,5.3536,5.2569,5.2028,0.0,5.0635,5.0403,5.079,5.0906,0.0,5.0906,0.0,0.0,0.0,5.4503,5.578,5.7056,5.7985,5.8604,5.8604,5.8952,5.9261,5.9261,6.0306,6.1582,6.2897,6.423,0.0,0.0,0.0,0.0,6.7214,6.8057,6.9007,6.9933,7.042,7.0821,7.1264,7.132,7.2342,7.4531,7.4609,7.543,7.7187,7.6328,7.5898,7.5898,7.5469,7.5469,7.5898,7.6367,7.6797,7.7187,7.7187,7.7461,7.7851,7.7851,7.8125,7.8515,7.8515,7.875,7.8984,7.8164,7.7851,7.789,3.584,3.581,3.581,0.0,0.0,0.0,0.0,0.0,0.0,3.7713,3.8568,3.9219,3.95,4.0305,4.107,4.1734,0.0,0.0,0.0,0.0,0.0,4.2512,4.3015,4.3363,4.3556,4.3401,4.3285,4.3285,4.3479,4.3904,4.4601,4.4755,4.5181,4.58,4.5993,4.6419,4.7192,4.8353,5.0171,5.2182,5.1796,5.2608,5.4078,5.4774,5.5548,5.636,5.725,5.7985,5.8488,5.7791,5.7559,5.7288,5.578,5.4697,0.0,0.0,0.0,0.0,0.0,0.0,0.0,0.0,0.0,5.1525,0.0,0.0,0.0,5.6515,5.7482,5.8101,5.8101,0.0,0.0,0.0,0.0,0.0,0.0,6.2703,0.0,0.0,0.0,0.0,0.0,6.7308,6.8187,6.8961,6.9158,6.9653,7.0511,7.0654,7.1783,7.4256,7.4492,7.5351,7.6914,7.6406,7.5976,7.5664,7.5273,7.5273,7.5664,7.6015,7.6523,7.7187,7.7187,7.7695,7.8437,7.7578,7.7695,7.8476,7.832,7.8242,7.8164,7.7461,7.7187,7.7344,3.6085,3.5784,3.5793,3.581,0.0,0.0,0.0,0.0,3.8684,4.0247,4.1197,4.2261,4.38,4.4703,4.5234,4.5312,0.0,0.0,4.4369,0.0,0.0,4.433,4.3672,4.3672,4.4446,4.3711,4.3285,4.3285,4.4059,4.4523,4.4639,4.5336,4.5722,4.5838,4.6612,4.6999,4.7231,4.9629,5.1215,5.2337,5.3768,5.489,0.0,5.5818,5.6399,5.7288,5.8139,5.8526,5.8565,0.0,5.8449,5.8294,0.0,5.6437,5.5548,5.4735,0.0,0.0,0.0,0.0,0.0,0.0,5.2028,0.0,0.0,0.0,5.3923,5.489,0.0,5.6321,5.6321,0.0,0.0,0.0,0.0,0.0,5.8874,6.0422,6.2413,6.4735,0.0,0.0,0.0,6.7223,6.7852,6.7956,6.8733,6.9585,7.0463,7.058,7.1441,7.3286,7.4175,7.5078,7.6055,7.6719,7.6289,7.4765,7.6211,7.6133,7.4805,7.6367,7.7109,7.7187,7.7187,7.7695,7.8437,7.7578,7.7695,7.8437,7.7656,7.7344,7.7344,7.7226,7.7187,7.7422,3.7375,3.724,3.724,3.725,0.0,0.0,0.0,0.0,4.0033,4.0759,4.2455,4.3877,4.455,4.6255,4.7365,4.7337,0.0,4.7207,0.0,0.0,4.6032,4.6032,4.6187,4.6187,4.6032,4.5684,4.5258,4.4755,4.5104,4.5297,4.5297,4.5645,4.6071,4.6573,4.6922,4.7927,4.9397,5.0442,5.226,5.4465,5.52,5.6283,0.0,5.694,5.7598,5.8913,5.9764,6.0035,6.0035,0.0,6.0035,0.0,0.0,0.0,0.0,5.5896,0.0,0.0,0.0,0.0,0.0,0.0,0.0,0.0,5.3575,0.0,5.4503,0.0,0.0,0.0,0.0,0.0,0.0,0.0,5.7288,0.0,0.0,0.0,6.0963,0.0,0.0,0.0,0.0,0.0,0.0,0.0,6.6305,6.7189,6.8059,6.9149,7.0541,7.2314,7.3281,7.4447,7.582,7.625,7.6328,7.6133,7.6836,7.6836,7.6133,7.6875,7.7187,7.7187,7.7187,7.7969,7.9101,7.7734,7.8008,7.9062,7.7734,7.7187,7.7187,7.7187,7.7187,7.7422,3.8972,3.8595,3.8296,3.8306,3.85,0.0,0.0,0.0,0.0,4.2509,4.4589,4.6242,4.6654,4.8551,0.0,4.9784,4.9784,4.9707,0.0,0.0,4.8508,0.0,0.0,0.0,0.0,4.7463,4.6922,4.6496,4.6264,4.6264,4.6496,4.6496,4.6844,4.7463,4.7695,4.8856,5.0635,5.1331,5.3188,5.5702,5.6167,5.7404,5.8874,5.8255,5.8797,5.9996,6.0809,6.1118,6.1118,6.1118,6.1118,0.0,6.0422,0.0,5.872,0.0,0.0,0.0,5.5084,0.0,0.0,0.0,0.0,0.0,0.0,0.0,0.0,0.0,0.0,0.0,0.0,0.0,5.6012,5.6012,0.0,5.694,0.0,5.8255,0.0,0.0,0.0,0.0,0.0,0.0,0.0,6.3783,6.4571,6.5442,6.6334,6.8078,6.9811,7.1354,7.2557,7.3911,7.5427,7.5742,7.6211,7.6836,7.7109,7.707,7.6836,7.7109,7.7187,7.7226,7.7461,7.8359,7.9609,7.8164,7.8398,7.9531,7.7851,7.7187,7.7187,7.7187,7.7187,7.7422,4.0706,3.9364,3.8225,3.8296,3.9004,4.0128,0.0,0.0,0.0,0.0,0.0,0.0,0.0,0.0,0.0,0.0,0.0,5.2995,5.2144,0.0,5.2028,0.0,0.0,5.0016,0.0,4.8353,4.7502,4.8314,4.7463,4.7502,4.8314,4.8314,4.8314,4.8392,4.9243,4.9668,4.99,5.2376,5.3962,5.4967,5.6631,5.8294,5.9841,0.0,5.9841,5.9996,6.0809,0.0,0.0,6.1118,6.1118,0.0,0.0,0.0,0.0,0.0,0.0,0.0,0.0,0.0,0.0,5.6128,0.0,0.0,0.0,0.0,5.4813,0.0,0.0,0.0,0.0,5.6012,5.6012,5.6012,5.6012,0.0,0.0,5.6824,0.0,0.0,0.0,0.0,0.0,0.0,0.0,6.369,6.4503,6.5392,6.6264,6.8041,6.9445,7.0431,7.2167,7.3587,7.453,7.5425,7.5898,7.5937,7.6797,7.6758,7.5976,7.6836,7.7187,7.7265,7.8086,7.8945,7.9648,7.8789,7.8945,7.9531,7.7851,7.7187,7.7187,7.7187,7.7187,7.7344,4.2434,4.197,4.1403,4.0834,4.1001,4.1763,0.0,4.5169,0.0,0.0,5.0442,0.0,0.0,5.4813,5.6012,0.0,0.0,5.5045,5.4735,5.3691,0.0,0.0,0.0,5.1796,0.0,0.0,4.9204,4.8392,4.8082,4.8121,4.8392,4.8392,4.8701,4.9281,4.9591,5.0326,5.1447,5.2879,5.4658,5.667,5.8913,6.019,6.0654,0.0,0.0,6.0731,6.1002,6.1118,0.0,6.1118,6.1118,6.1118,6.1118,6.0925,6.0576,6.0074,5.9687,0.0,0.0,0.0,5.7946,5.7095,0.0,0.0,0.0,0.0,0.0,0.0,0.0,0.0,0.0,5.725,5.667,5.6089,5.6012,5.6012,0.0,5.6244,0.0,5.8062,5.9687,0.0,0.0,0.0,0.0,6.1969,6.28,6.3652,0.0,6.6786,6.8488,6.9445,7.1239,7.2901,7.4492,7.4865,7.5623,7.6758,7.707,7.7031,7.6758,7.707,7.7187,7.7265,7.8125,7.8633,7.8867,7.8594,7.8672,7.8789,7.7656,7.7187,7.7187,7.7187,7.7187,7.7383,4.4136,4.3711,4.3131,4.255,4.2976,4.3827,0.0,0.0,0.0,0.0,5.3111,0.0,5.5277,0.0,5.7753,0.0,5.725,5.6902,5.6902,5.5896,0.0,5.4851,5.4542,0.0,0.0,0.0,0.0,4.9745,4.9436,4.9281,4.9281,4.9281,4.9591,5.0132,5.0132,5.0906,5.226,5.3111,5.4967,5.7521,6.0074,6.1118,0.0,0.0,6.0654,6.1118,0.0,6.1118,6.1118,6.1118,6.1118,6.1118,6.1118,6.1118,6.1002,6.046,6.0344,6.019,5.9648,5.9261,0.0,5.8372,5.7985,0.0,5.7056,0.0,0.0,0.0,0.0,0.0,0.0,5.7675,5.7018,5.6128,5.6012,5.6012,0.0,5.6012,5.6321,5.7211,5.8565,5.9571,0.0,6.0615,6.1118,6.1118,6.193,6.2665,0.0,0.0,6.7406,6.8058,7.012,7.195,7.3514,7.395,7.4995,7.6758,7.6758,7.6914,7.7187,7.7187,7.7187,7.7265,7.8437,7.875,7.8515,7.8828,7.875,7.8398,7.7539,7.7187,7.7187,7.7187,7.7383,7.7851,4.5722,4.4562,4.3479,4.3479,4.4833,0.0,0.0,0.0,5.2956,0.0,5.6399,5.7753,5.8642,5.872,5.872,5.8758,5.872,5.8642,5.8642,5.8604,0.0,0.0,5.6592,5.5741,5.489,0.0,0.0,0.0,5.1447,5.1022,5.1022,5.0983,5.0945,5.0906,5.0945,5.1409,5.226,5.3188,5.5045,5.7598,6.0035,6.1079,6.1118,6.1118,6.1118,6.1118,6.1118,6.1118,6.1118,6.1118,6.1118,6.1118,6.1118,6.1118,6.1118,6.1118,6.1118,6.1118,6.1118,6.0538,5.9957,5.9919,0.0,0.0,0.0,0.0,5.8681,0.0,0.0,0.0,0.0,0.0,5.7134,5.6205,5.6051,5.6012,5.6012,5.6051,5.636,5.7211,5.8101,5.899,5.9803,6.0576,6.1041,6.1041,6.1776,6.224,0.0,0.0,6.6129,6.6376,6.8878,7.0745,7.1856,7.2807,7.4214,7.5976,7.5937,7.6367,7.7187,7.7187,7.7187,7.7305,7.8984,7.9219,7.8515,7.9336,7.9219,7.8359,7.7539,7.7226,7.7265,7.7265,7.7812,7.8672,4.6844,4.6419,4.6109,0.0,4.7038,4.843,0.0,0.0,0.0,0.0,5.8178,5.9532,6.0383,6.046,6.0731,6.1389,6.0306,0.0,0.0,0.0,0.0,5.8294,5.8062,5.7211,5.5741,5.5238,5.4735,5.4116,5.3265,5.284,5.2801,5.2182,5.1525,5.0945,5.1563,5.1989,5.2298,5.3807,5.5935,5.8372,5.9687,6.0576,6.1118,0.0,6.1118,6.1118,6.1118,6.1118,6.1118,6.1118,6.1118,6.1118,6.1118,6.1118,6.1118,6.1118,6.1118,6.1118,6.1118,6.0963,6.0654,6.0035,5.9725,5.9377,0.0,0.0,0.0,0.0,0.0,0.0,0.0,0.0,0.0,5.7211,5.6437,5.6012,5.6012,5.6553,5.7056,5.7288,5.8642,5.9648,5.988,6.0074,6.019,6.019,5.9803,6.0112,0.0,0.0,0.0,6.6338,6.835,7.0486,7.2752,7.3119,7.4488,7.6875,7.6211,7.6367,7.7187,7.7187,7.7187,7.7305,7.8984,7.8867,7.7656,7.9101,7.8828,7.75,7.7305,7.7617,7.8164,7.8164,7.8706,7.9494,4.8856,4.8159,4.7889,4.8624,0.0,0.0,5.2531,5.4542,0.0,5.8681,6.0151,0.0,6.2162,6.224,6.2433,6.2936,6.2124,0.0,6.1543,0.0,0.0,5.9725,5.9339,5.8526,5.7172,5.7134,0.0,5.5896,5.5006,5.4426,5.4039,5.3188,5.2492,5.2066,5.2531,5.2995,5.3459,5.5161,5.694,5.8681,5.9532,6.0383,0.0,6.1118,6.1118,6.1118,6.1118,6.1118,6.1118,6.1118,6.1118,6.1118,6.1118,6.1118,6.1118,6.1118,6.1118,6.1118,6.1118,6.1118,6.1002,6.0538,6.0692,6.0847,6.0383,6.0925,6.1698,0.0,0.0,0.0,0.0,0.0,0.0,5.872,5.7714,5.7134,5.7134,5.7907,0.0,5.8449,5.9609,6.0422,6.0422,6.0422,6.0267,5.9919,5.9455,0.0,0.0,0.0,0.0,6.5756,6.7565,6.9589,7.1934,7.2463,7.3615,7.5508,7.539,7.5781,7.664,7.7031,7.7422,7.7851,7.914,7.8984,7.7851,7.918,7.8711,7.7187,7.7187,7.7734,7.8555,7.8906,7.9561,8.0407,5.0945,4.9823,4.932,0.0,0.0,0.0,0.0,5.6244,0.0,6.0963,0.0,6.2897,6.3787,6.3748,6.3748,6.3864,0.0,6.371,6.371,6.2975,6.2201,6.1311,6.0615,5.9764,5.8797,5.8758,5.841,0.0,5.6786,5.5935,5.5122,5.4233,5.3691,5.3498,5.3614,5.4155,5.5045,5.6631,5.7791,5.8681,5.9532,6.0383,6.1118,6.1118,6.1157,6.1273,6.1273,6.1195,6.1118,6.1118,6.1118,6.1118,6.1234,6.1273,6.1273,6.1427,6.1427,6.1427,6.1427,6.1427,6.1427,6.1427,6.2008,6.2588,6.2588,6.3168,6.371,6.371,6.371,0.0,0.0,0.0,0.0,6.046,5.9416,0.0,0.0,0.0,5.9996,6.019,0.0,0.0,6.1427,6.1157,6.0654,5.9957,0.0,0.0,0.0,0.0,0.0,6.5019,6.6794,0.0,7.0658,0.0,7.2411,7.3476,7.4258,7.5078,7.5937,7.6797,7.7695,7.8555,7.9336,7.9258,7.8555,7.9375,7.8711,7.7187,7.7187,7.7734,7.8594,7.9414,8.0264,8.1116,5.1177,5.1254,5.1409,0.0,0.0,5.6902,5.7598,5.9261,6.0847,6.2008,6.2936,6.3787,6.4677,6.4135,6.398,6.4715,6.4097,0.0,0.0,0.0,0.0,6.2201,6.2046,6.1234,5.9725,5.9648,5.9609,0.0,5.8565,5.7714,5.6863,5.5973,5.4813,5.3536,5.4233,5.5045,5.5857,5.6863,0.0,5.8681,5.9532,6.0383,6.1118,6.1118,6.1543,6.2162,6.2162,6.1698,6.1118,6.1118,6.1118,6.1234,6.1969,6.2162,6.2317,6.3013,6.3245,6.3245,6.3245,6.3245,6.3245,6.3245,6.3362,6.3478,6.3478,6.3594,6.371,6.371,6.371,6.3632,6.3478,0.0,0.0,0.0,0.0,0.0,0.0,0.0,0.0,6.1814,0.0,6.2433,6.3168,6.135,6.0035,5.9919,0.0,0.0,0.0,0.0,0.0,0.0,0.0,0.0,0.0,0.0,7.2717,7.4366,7.453,7.5078,7.5937,7.6797,7.7695,7.8555,7.9336,7.9258,7.8555,7.9375,7.8711,7.7187,7.7187,7.7734,7.8594,7.9414,8.0231,8.1105,5.3188,5.3614,5.4039,5.3614,0.0,0.0,0.0,6.1737,0.0,6.3671,6.4097,6.4677,6.5528,6.5257,6.518,6.5605,6.5218,6.4986,6.4986,6.4599,6.398,6.3091,6.2627,6.1814,6.0538,6.0538,6.0538,6.0538,0.0,5.9068,5.8642,5.7753,5.667,5.547,5.5432,5.5896,5.6708,0.0,0.0,5.93,5.9725,6.0654,6.1776,6.1776,6.2317,6.3052,6.3052,6.2781,6.2433,6.2433,6.2433,6.2511,6.2936,6.3052,6.3168,6.3555,6.371,6.371,6.371,6.371,6.371,6.371,6.4019,6.4367,6.4367,6.4677,6.4986,6.4986,6.4986,6.4986,6.4986,6.429,0.0,0.0,0.0,0.0,0.0,0.0,6.2511,0.0,6.3207,6.3555,0.0,0.0,0.0,0.0,0.0,0.0,0.0,0.0,0.0,0.0,0.0,0.0,0.0,0.0,0.0,7.4623,7.5075,7.5508,7.5937,7.6797,7.789,7.9101,7.9101,7.9101,7.9101,7.8594,7.793,7.7187,7.7187,7.7734,7.8555,7.8945,7.9878,8.1095,5.5509,5.6128,5.6786,0.0,5.8874,0.0,6.1543,6.371,6.518,6.5025,6.5141,6.5489,6.6147,6.6185,6.6185,6.6185,6.6185,6.6185,6.6185,6.5605,6.487,6.4019,6.3129,6.2278,6.1389,6.1195,6.1118,0.0,0.0,6.0074,5.988,5.9184,5.841,5.7559,0.0,0.0,0.0,0.0,5.8642,5.9919,6.0306,6.1234,6.2433,6.2627,6.3207,6.398,6.398,6.4097,6.4213,6.4213,6.398,6.371,6.3903,6.398,6.4019,6.4174,6.4213,6.4213,6.4213,6.4213,6.4213,6.4213,6.4754,6.5257,6.5257,6.576,6.6185,6.6185,6.6185,6.6185,6.6185,6.5682,0.0,0.0,0.0,0.0,0.0,0.0,6.429,0.0,6.4174,6.4406,6.282,0.0,0.0,0.0,0.0,0.0,0.0,0.0,0.0,0.0,0.0,6.8341,7.177,0.0,7.3688,0.0,7.5464,7.5898,7.5937,7.6797,7.8125,7.9648,7.8867,7.8867,7.9336,7.7812,7.7187,7.7187,7.7187,7.7617,7.8242,7.8437,7.9444,8.0836,0.0,0.0,0.0,0.0,0.0,0.0,6.3439,6.4948,6.5837,6.5102,6.5644,6.6108,6.6185,6.6185,6.6185,6.6185,6.6185,6.6185,6.6185,6.6147,6.5721,6.4909,6.4019,6.3168,6.2317,6.1505,6.1118,0.0,0.0,6.0615,5.988,5.9803,5.93,0.0,0.0,0.0,0.0,5.93,5.9764,6.0035,6.1543,6.2278,6.2511,6.3284,6.4097,6.487,6.487,6.5334,6.5953,6.5953,6.4948,6.3826,6.4638,6.487,6.5025,6.576,6.5953,6.5953,6.5953,6.5953,6.5953,6.5953,6.6031,6.6108,6.6108,6.6147,6.6185,6.6185,6.6185,6.6185,6.6185,6.6147,6.6108,0.0,0.0,0.0,0.0,0.0,6.4058,6.4677,6.4909,6.4638,6.3671,6.3555,0.0,0.0,6.0731,0.0,0.0,0.0,0.0,6.5019,0.0,6.902,7.177,7.2799,0.0,7.4608,7.5464,7.5898,7.5937,7.6797,7.8125,7.9648,7.8867,7.8555,7.8555,7.7578,7.7187,7.7187,7.7187,7.7265,7.7422,7.8203,7.9053,7.9931,0.0,0.0,0.0,0.0,0.0,0.0,0.0,6.545,6.6069,6.576,6.5992,6.6185,6.6185,6.6185,6.6185,6.6185,6.6185,6.6185,6.6185,6.6185,6.5837,6.5025,6.4677,6.3826,6.2433,6.2046,6.1621,0.0,0.0,0.0,0.0,0.0,0.0,0.0,0.0,5.8874,5.9416,6.0267,6.0925,6.1505,6.2704,6.3478,6.398,6.4329,6.4986,6.5721,6.5721,6.5915,6.6185,6.6185,6.576,6.5257,6.5605,6.5721,6.576,6.6108,6.6185,6.6185,6.6185,6.6185,6.6185,6.6185,6.6185,6.6185,6.6185,6.6185,6.6185,6.6185,6.6185,6.6185,6.6185,6.6185,6.6185,0.0,0.0,0.0,0.0,0.0,0.0,6.429,0.0,6.4445,6.3052,0.0,0.0,0.0,0.0,0.0,0.0,0.0,0.0,6.4244,0.0,6.8021,7.1767,7.2814,7.4271,7.6165,7.6523,7.668,7.6719,7.7578,7.8359,7.8945,7.8633,7.8203,7.7695,7.7344,7.7187,7.7187,7.7187,7.7187,7.7226,7.7578,7.8545,7.9697,6.2897,0.0,6.3903,0.0,6.4367,6.5334,6.5334,6.5837,6.6185,6.6185,6.6185,6.6185,6.6185,6.6185,6.6185,6.6185,6.6185,6.6185,6.6185,6.6185,6.5953,6.5373,6.5141,0.0,6.282,6.2549,6.1969,6.1118,6.1118,0.0,0.0,0.0,0.0,0.0,5.9609,5.9803,6.0654,6.1234,6.2008,6.2859,6.371,6.4445,6.5025,6.5257,6.5721,6.6185,6.6185,6.6185,6.6185,6.6185,6.6185,6.6185,6.6185,6.6185,6.6185,6.6185,6.6185,6.6185,6.6185,6.6185,6.6185,6.6185,6.6185,6.6185,6.6185,6.6185,6.6185,6.6185,6.6185,6.6185,6.6185,6.6185,6.6185,6.6185,0.0,0.0,0.0,0.0,0.0,6.3903,6.4483,6.4213,6.2201,6.224,0.0,0.0,0.0,0.0,0.0,0.0,0.0,0.0,0.0,0.0,0.0,7.2672,7.4478,7.6836,7.707,7.7187,7.7226,7.8086,7.8515,7.8515,7.8515,7.8008,7.7187,7.7187,7.7187,7.7187,7.7187,7.7187,7.7226,7.7458,7.8419,7.9619,6.3671,6.4367,6.4986,6.4948,6.5644,6.6185,6.6185,6.6185,6.6185,6.6185,6.6185,6.6185,6.6185,6.6185,6.6185,6.6185,6.6185,6.6185,6.6185,6.6185,6.6185,0.0,0.0,6.4599,6.371,6.2859,6.1969,6.1118,0.0,0.0,6.1118,0.0,6.1079,6.1079,6.1079,6.1543,6.2356,6.2394,6.2897,6.3748,6.4638,6.4986,6.5102,6.5876,6.6185,6.6185,6.6185,6.6185,6.6185,6.6185,6.6185,6.6185,6.6185,6.6185,6.6185,6.6185,6.6185,6.6185,6.6185,6.6185,6.6185,6.6185,6.6185,6.6185,6.6185,6.6185,6.6185,6.6185,6.6185,6.6185,6.6185,6.6185,6.6185,6.6185,0.0,0.0,0.0,0.0,0.0,6.3903,6.4483,6.398,6.1389,6.1892,0.0,0.0,0.0,0.0,0.0,0.0,0.0,6.3779,6.5542,0.0,7.058,7.2383,7.4175,7.5937,7.6797,7.7187,7.7226,7.8086,7.8515,7.8515,7.8515,7.8008,7.7187,7.7187,7.7187,7.7187,7.7187,7.7187,7.7304,7.8093,7.8891,7.9697,6.5412,6.5644,6.5837,6.5837,6.6031,6.6185,6.6185,6.6185,6.6185,6.6185,6.6185,6.6185,6.6185,6.6185,6.6185,0.0,6.6185,6.6185,0.0,6.6185,6.6185,6.6185,6.5953,6.5412,6.4599,6.371,6.2859,6.2008,0.0,0.0,0.0,6.1118,6.1427,6.2008,6.2008,6.2472,6.3323,6.3903,6.4329,6.4638,6.5489,6.5837,6.5915,6.6766,6.7075,6.7152,6.7771,6.7965,6.7965,6.7965,6.7965,6.7965,6.7965,6.7578,6.7075,6.7075,6.7501,6.7965,6.7965,6.7965,6.7849,6.723,6.7075,6.692,6.634,6.6185,6.6185,6.6185,6.6185,6.6185,6.6185,6.6185,6.6185,6.6185,6.6185,0.0,0.0,0.0,6.4948,6.3826,6.3942,6.3555,0.0,6.2781,0.0,0.0,0.0,0.0,0.0,0.0,0.0,0.0,6.5863,0.0,7.058,7.2383,7.4175,7.5898,7.6797,7.75,7.8086,7.7773,7.793,7.8476,7.7851,7.7461,7.7187,7.7187,7.7187,7.7187,7.7187,7.7578,7.8125,7.8328,7.9292,8.058,6.6185,6.6185,6.6185,6.6185,6.6185,6.6185,6.6185,6.6185,6.6185,6.6185,6.6185,6.6185,6.6185,6.6185,0.0,6.6185,6.6185,6.6185,6.6185,6.6185,6.6185,6.6185,6.6185,6.5837,6.5025,0.0,0.0,6.2897,6.2356,6.2085,6.2085,6.2085,6.2356,6.2897,6.2897,6.3362,6.4213,6.4754,6.518,6.5489,6.5992,6.6417,6.6766,6.7307,6.7694,6.8081,6.8622,6.8816,6.8816,6.8816,6.8816,6.8816,6.8816,6.8622,6.839,6.8081,6.839,6.8816,6.8816,6.8816,6.8661,6.8119,6.8003,6.7771,6.6882,6.6688,6.6611,6.6263,6.6185,6.6185,6.6185,6.6185,6.6185,6.6185,6.6185,6.6185,6.6185,0.0,0.0,0.0,0.0,0.0,0.0,6.3864,0.0,0.0,0.0,0.0,0.0,0.0,0.0,6.6027,6.727,0.0,7.1009,7.2851,7.4488,7.5898,7.6797,7.7656,7.8476,7.7617,7.7695,7.8437,7.7578,7.7187,7.7187,7.7187,7.7187,7.7226,7.7578,7.8008,7.8554,7.9161,8.022,8.1455,6.6185,6.6185,0.0,0.0,6.6185,0.0,6.6185,6.6185,6.6185,6.6185,6.6185,6.6185,6.6185,6.6185,6.6185,6.6185,0.0,0.0,0.0,6.6185,6.6185,6.6185,6.6185,6.5837,6.5102,6.5025,6.4561,6.371,6.371,6.371,6.371,6.371,6.371,6.3787,6.3787,6.4251,6.5064,6.5064,6.5528,6.6185,6.6185,6.6727,6.7501,6.7578,6.8119,6.8893,6.897,6.897,6.897,6.897,6.897,6.897,6.897,6.9473,6.9938,6.9125,6.8932,6.897,6.897,6.897,6.897,6.8893,6.8854,6.8584,6.7771,6.7578,6.7346,6.6533,6.6379,6.6379,6.6379,6.634,6.6301,6.6301,6.6224,6.6185,6.6185,0.0,0.0,0.0,0.0,0.0,0.0,6.5218,6.5605,0.0,0.0,0.0,0.0,0.0,6.6845,6.7656,6.9451,7.0859,7.1778,7.3666,7.5072,7.6015,7.6797,7.7617,7.8398,7.7578,7.7656,7.8359,7.7539,7.7187,7.7187,7.7187,7.7226,7.7383,7.8164,7.8555,7.8867,8.0423,8.1492,8.2312,0.0,0.0,6.6185,6.6185,6.6185,6.6185,6.6185,6.6185,6.6185,6.6185,6.6185,6.6185,6.6185,6.6185,6.6185,6.6185,6.6185,6.6185,6.6185,6.6185,6.6185,6.6185,6.6185,6.6108,6.5915,6.5296,6.4561,6.371,6.371,6.371,6.371,6.371,6.4058,6.4677,6.4677,6.5141,6.5915,6.5915,6.6031,6.6185,6.6185,6.6727,6.7578,6.8236,6.9009,6.9783,7.0479,7.0711,7.0711,7.0711,7.0711,7.0711,7.0711,7.0827,7.0827,6.9976,7.017,7.0711,7.0711,7.0711,7.0556,6.986,6.9241,6.8738,6.8545,6.8506,6.8429,6.8236,6.8197,6.8197,6.8197,6.7655,6.7191,6.7191,6.665,6.6185,6.6185,6.5682,0.0,0.0,6.5915,6.6185,6.6843,6.7501,6.8236,0.0,0.0,0.0,0.0,0.0,6.8935,6.853,7.0252,7.1365,7.1704,7.4186,7.5911,7.6875,7.7109,7.7305,7.75,7.7305,7.7305,7.75,7.7305,7.7187,7.7187,7.7187,7.7578,7.8203,7.8437,7.9297,8.0468,8.0852,8.1883,8.3169,6.6185,6.6185,6.6185,6.6185,6.6185,6.6185,6.6185,6.6185,6.6185,6.6185,6.6185,6.634,6.6766,6.6804,6.6959,6.7346,6.665,6.6185,6.6185,6.6185,6.6379,6.6766,6.6417,6.6379,6.6804,6.5992,6.5334,6.4831,6.4831,6.4831,6.4831,6.4831,6.5102,6.5528,6.5528,6.5799,6.6185,6.6185,6.6185,6.6185,6.6185,6.6959,6.8158,6.8622,6.9551,7.0672,7.1137,7.1291,7.1291,7.1291,7.1291,7.1291,7.1291,7.1291,7.1214,7.0711,7.0943,7.1291,7.1291,7.1291,7.1175,7.0711,7.0286,6.9821,6.9435,6.9357,6.9241,6.8893,6.8816,6.8816,6.8816,6.8429,6.8081,6.8081,6.7694,6.7384,6.7384,6.6998,0.0,6.7346,6.7384,6.7733,6.8545,6.9087,6.9705,7.0518,0.0,0.0,7.1253,7.1214,7.1004,7.0602,7.194,7.2888,7.341,7.5728,7.7005,7.7187,7.7617,7.7578,7.7187,7.7187,7.7187,7.7187,7.7187,7.7187,7.7226,7.7617,7.8086,7.8594,7.9336,8.0195,8.1093,8.1907,8.2936,8.4039,6.6185,6.6185,6.6185,6.6185,6.6301,6.6417,6.6417,6.6495,6.6572,6.6572,6.6572,6.6882,6.7617,6.7694,6.8003,6.8738,6.7346,6.6456,6.6572,6.6572,6.6843,6.7462,6.6804,6.6688,6.7307,6.6572,6.6185,6.6185,6.6185,6.6185,6.6185,6.6185,6.6185,6.6185,6.6185,6.6185,6.6185,6.6185,6.6185,6.6185,6.6185,6.7152,6.8622,6.8738,6.9744,7.1098,7.1253,7.1291,7.1291,7.1291,7.1369,7.1485,7.1485,7.1601,7.1678,7.1678,7.1678,7.164,7.1369,7.1407,7.1485,7.1485,7.1601,7.1446,7.0595,7.0402,7.017,6.9357,6.9164,6.9164,6.9164,6.9087,6.897,6.897,6.8893,6.8816,6.8816,0.0,6.8854,6.897,6.897,6.9319,7.0131,7.0208,7.0479,7.1253,7.1291,7.1291,0.0,7.2142,7.2706,7.2865,7.3739,7.4752,7.5876,7.7336,7.7864,7.7382,7.8008,7.793,7.7187,7.7187,7.7187,7.7187,7.7187,7.7187,7.7265,7.8125,7.8555,7.8828,8.039,8.1172,8.1562,8.304,8.4107,8.4896,6.6185,6.6185,6.6185,6.6185,6.6804,6.7307,6.7307,6.7926,6.839,6.839,6.839,6.8468,6.8584,6.8622,6.8661,6.8777,6.7887,6.7617,6.8352,6.839,6.8119,6.7539,6.7384,6.7036,6.6417,6.6263,6.6185,6.6185,6.6185,6.6185,6.6185,6.6185,6.6185,6.6185,6.6185,6.6185,6.6185,6.6185,6.6185,6.6185,6.6185,6.6804,6.7771,6.8506,6.9396,7.0286,7.1021,7.1291,7.1291,7.1291,7.1794,7.2413,7.2413,7.2916,7.3496,7.3496,7.3496,7.3187,7.1678,7.1833,7.2413,7.2413,7.2955,7.3264,7.2413,7.2181,7.1949,7.1098,7.0905,7.0905,7.0905,7.0324,6.9821,6.9821,6.9241,6.8816,6.8816,0.0,6.9048,6.9744,6.9821,7.0131,7.1021,7.1098,7.1137,7.1291,7.1291,7.1291,7.1291,7.2142,7.2955,7.3712,7.4569,7.5876,7.7676,7.7365,7.7525,7.8196,7.7655,7.7344,7.7187,7.7187,7.7187,7.7187,7.7187,7.7187,7.7265,7.8125,7.8906,7.9609,8.0625,8.1914,8.3242,8.3508,8.4497,8.5715,6.6882,6.7268,6.7617,6.7617,6.7926,6.8197,6.8197,6.8545,6.8816,6.8816,6.8816,6.897,6.9396,6.9048,6.897,6.9396,6.87,6.8545,6.9396,6.8584,6.8313,6.8816,6.7965,6.7075,6.6224,6.6185,6.6185,6.6185,6.6185,6.6185,6.6185,6.6185,6.6185,6.6224,6.6688,6.665,6.6224,6.6688,6.6611,6.6224,6.6727,6.7423,6.8274,6.9125,6.9976,7.075,7.1175,7.1601,7.1988,7.1988,7.2568,7.3303,7.3303,7.3574,7.3883,7.3883,7.3883,7.3728,7.2916,7.2993,7.3303,7.3303,7.3612,7.3806,7.338,7.3303,7.3187,7.2761,7.2336,7.1988,7.1988,7.1291,7.0711,7.0711,7.0402,0.0,0.0,7.0131,7.0286,7.0672,7.1098,7.1562,7.1949,7.2413,7.2684,7.2684,7.2684,7.2684,7.2684,7.3496,7.4115,7.4541,7.5443,7.6438,7.7389,7.7545,7.7653,7.7683,7.7851,7.7656,7.7187,7.7187,7.7187,7.7187,7.7187,7.7461,7.7969,7.8789,7.9648,8.0508,8.1367,8.2461,8.3671,8.4133,8.4966,8.5948,6.781,6.8352,6.8816,6.8816,6.897,6.9087,6.9087,6.9241,6.9396,6.9396,6.9396,6.9628,7.0208,6.9744,6.9628,7.0247,6.9551,6.9435,7.0247,6.8893,6.8661,6.9938,6.839,6.7075,6.6224,6.6185,6.6301,6.6495,6.6495,6.6611,6.6804,6.6611,6.6495,6.6533,6.6998,6.6843,6.6224,6.692,6.692,6.6572,6.723,6.8003,6.8893,6.9705,7.0402,7.1021,7.1214,7.1872,7.2607,7.2607,7.3303,7.4193,7.4193,7.4309,7.4463,7.4463,7.4463,7.4386,7.3999,7.4038,7.4193,7.4193,7.4347,7.4425,7.4231,7.4193,7.4115,7.396,7.338,7.2839,7.2645,7.2065,7.1523,7.133,0.0,0.0,0.0,7.1291,7.1369,7.1562,7.2181,7.2684,7.2877,7.3496,7.3883,7.3883,7.3883,7.3883,7.3883,7.4657,7.5314,7.5701,7.6471,7.6943,7.7073,7.7819,7.794,7.741,7.7929,7.7851,7.7187,7.7187,7.7187,7.7226,7.7422,7.789,7.8594,7.9609,8.039,8.1094,8.1953,8.2969,8.3984,8.4641,8.5442,8.6286,6.87,6.8777,6.8816,6.8816,6.9435,6.9899,6.9899,7.0595,7.1137,7.1137,7.1137,7.1137,7.1214,7.1137,7.1137,7.1214,7.0402,7.0286,7.1137,7.0324,6.986,6.9976,6.839,6.7075,6.6224,6.6185,6.6611,6.7384,6.7384,6.781,6.8584,6.7771,6.7384,6.7384,6.6611,6.6263,6.6185,6.6263,6.6727,6.7423,6.7462,6.8003,6.8893,6.9705,7.0054,7.0208,7.1021,7.1872,7.2607,7.2607,7.369,7.5005,7.5005,7.5585,7.6204,7.6204,7.6204,7.5895,7.4309,7.4425,7.5005,7.5005,7.5624,7.6011,7.5198,7.5005,7.4811,7.4038,7.3844,7.3574,7.2761,7.2568,7.222,7.1446,0.0,0.0,7.1291,7.1291,7.1601,7.2413,7.2568,7.2916,7.3728,7.3844,7.3883,7.3883,7.3883,7.3883,7.3883,7.4657,7.5856,7.7442,7.7672,7.7817,7.7898,7.8092,7.8252,7.8308,7.7615,7.7265,7.7187,7.7187,7.7187,7.7226,7.8047,7.8437,7.8633,8.0234,8.0937,8.1094,8.1953,8.332,8.4804,8.4875,8.5852,8.7203,6.9551,6.9976,7.0363,7.0363,7.0595,7.0789,7.0789,7.1098,7.1291,7.1291,7.1291,7.1291,7.1291,7.0827,7.0479,7.0479,6.9744,6.9628,7.044,7.017,6.9783,6.928,6.8661,6.7655,6.6224,6.6185,6.6379,6.6688,6.6688,6.6843,6.7191,6.6843,6.6688,6.6688,6.692,6.6998,6.7036,6.7578,6.8003,6.8352,6.8854,6.9241,6.9628,7.0479,7.0789,7.0905,7.1794,7.2684,7.3496,7.3999,7.4928,7.5895,7.5895,7.6127,7.6397,7.6397,7.6397,7.6243,7.5624,7.5662,7.5895,7.5895,7.6165,7.632,7.5972,7.5895,7.5817,7.5508,7.5005,7.4541,7.4231,7.3728,7.3109,7.2258,0.0,7.2104,7.2104,7.2104,7.2413,7.3303,7.3844,7.427,7.4618,7.5121,7.543,7.543,7.543,7.543,7.543,7.574,7.6475,7.7674,7.7827,7.7933,7.7998,7.7611,7.7472,7.7605,7.7342,7.7187,7.7226,7.7773,7.8008,7.8047,7.8867,7.9531,8.0117,8.0742,8.1328,8.1836,8.2187,8.3359,8.4883,8.4882,8.5917,8.7291,7.0402,7.0905,7.1291,7.1291,7.1291,7.1291,7.1291,7.1291,7.1291,7.1291,7.1291,7.1291,7.1291,7.075,7.0402,7.0402,6.9899,6.9821,7.0363,7.0402,7.0054,6.9203,6.8932,6.8119,6.665,6.6611,6.6727,6.7036,6.7268,6.7539,6.781,6.7501,6.7384,6.7423,6.7733,6.7926,6.7965,6.8545,6.897,6.9203,6.9783,7.017,7.0479,7.1059,7.1485,7.1794,7.2375,7.3303,7.4347,7.4928,7.5662,7.6397,7.6397,7.6397,7.6397,7.6397,7.6397,7.6397,7.6397,7.6397,7.6397,7.6397,7.6397,7.6397,7.6397,7.6397,7.6397,7.6397,7.5933,7.543,7.516,7.4657,7.3999,7.3148,7.2993,7.2993,7.2993,7.2993,7.3303,7.4193,7.4773,7.5198,7.5469,7.6049,7.6397,7.6397,7.6397,7.6397,7.6397,7.6397,7.6784,7.7674,7.7556,7.7642,7.7986,7.752,7.7219,7.7083,7.7145,7.7187,7.7226,7.8086,7.8515,7.8555,7.9648,8.0469,8.1015,8.1289,8.1758,8.2304,8.2304,8.3359,8.4883,8.4883,8.5932,8.7308,7.1291,7.1291,7.1291,7.1291,7.1291,7.1291,7.1291,7.1291,7.1291,7.1291,7.1291,7.1291,7.1291,7.1291,7.1291,7.1291,7.1291,7.1291,7.1291,7.1291,7.0905,7.0054,6.9241,6.839,6.7539,6.7501,6.7926,6.8816,6.9589,7.044,7.1253,7.0402,6.9976,6.9938,6.9164,6.8816,6.8816,6.8816,6.928,7.0015,7.0015,7.0518,7.1291,7.1291,7.1833,7.2607,7.2607,7.369,7.5121,7.5121,7.5662,7.6397,7.6397,7.6397,7.6397,7.6397,7.6397,7.6397,7.6397,7.6397,7.6397,7.6397,7.6397,7.6397,7.6397,7.6397,7.6397,7.6397,7.6397,7.6127,7.5276,7.5121,7.485,7.4038,7.3922,7.3922,7.3922,7.3922,7.4231,7.5005,7.5121,7.5469,7.632,7.6397,7.6397,7.6397,7.6397,7.6397,7.6397,7.6397,7.6784,7.7674,7.6975,7.702,7.7894,7.8076,7.7774,7.6989,7.7139,7.7187,7.7226,7.8125,7.8515,7.8594,8.0273,8.1015,8.1094,8.1953,8.2304,8.2304,8.2304,8.3359,8.4883,8.4883,8.5976,8.7382,7.1291,7.1291,7.1291,7.1291,7.1291,7.1291,7.1291,7.1291,7.1291,7.1291,7.1291,7.1291,7.1291,7.1291,7.1291,7.1291,7.1291,7.1291,7.1291,7.1291,7.1175,7.0905,7.0092,6.9241,6.8429,6.8429,6.8545,6.8816,6.9048,6.928,6.9551,6.928,6.9164,6.9164,6.8932,6.9125,6.9628,6.9628,7.0131,7.0905,7.0905,7.1059,7.1369,7.1988,7.2375,7.2761,7.3922,7.4695,7.5198,7.5817,7.6165,7.6397,7.6397,7.6397,7.6397,7.6397,7.6397,7.6397,7.6397,7.6397,7.6397,7.6397,7.6397,7.6397,7.6397,7.6397,7.6397,7.6397,7.6397,7.632,7.6049,7.6011,7.574,7.4889,7.4734,7.4734,7.4734,7.4734,7.5044,7.5895,7.6011,7.6127,7.6359,7.6397,7.6397,7.6397,7.6397,7.6397,7.6397,7.6397,7.6784,7.7674,7.6975,7.7,7.7873,7.7486,7.7167,7.6989,7.7068,7.7139,7.7265,7.8672,7.9336,7.9453,8.1172,8.1914,8.1914,8.2187,8.2304,8.2304,8.2304,8.3359,8.4883,8.4883,8.5976,8.7382,7.1291,7.1291,7.1291,7.1291,7.1291,7.1291,7.1291,7.1291,7.1291,7.1291,7.1291,7.1291,7.1291,7.1291,7.1291,7.1291,7.1291,7.1291,7.1291,7.1291,7.1291,7.1291,7.0789,7.0131,6.928,6.928,6.928,6.928,6.9628,6.9783,6.9783,6.9783,6.9783,6.9783,6.9783,7.0054,7.0518,7.0518,7.0827,7.133,7.1678,7.1794,7.191,7.2761,7.3303,7.3728,7.4734,7.5314,7.5701,7.6204,7.6397,7.6397,7.6397,7.6397,7.6397,7.6397,7.6397,7.6397,7.6397,7.6397,7.6397,7.6397,7.6397,7.6397,7.6397,7.6397,7.6397,7.6397,7.6397,7.6397,7.6397,7.6397,7.6243,7.5701,7.5624,7.5624,7.5624,7.5624,7.5817,7.632,7.6397,7.6397,7.6397,7.6397,7.6397,7.6397,7.6397,7.6397,7.6397,7.6397,7.663,7.7171,7.6759,7.6803,7.7345,7.6976,7.6871,7.6975,7.7036,7.7282,7.7733,7.9062,7.9883,8.0273,8.1679,8.2304,8.2304,8.2304,8.2304,8.2344,8.2695,8.3672,8.4922,8.5273,8.6289,8.7421,7.1291,7.1291,7.1291,7.1291,7.1291,7.1291,7.1291,7.1291,7.1291,7.1291,7.1291,7.1291,7.1291,7.1291,7.1291,7.1291,7.1291,7.1291,7.1291,7.1291,7.1291,7.1291,7.1291,7.0943,7.0131,7.0131,7.0131,7.0131,7.0905,7.1291,7.1291,7.1291,7.1291,7.1291,7.1291,7.1291,7.1291,7.1291,7.133,7.1485,7.2297,7.2645,7.28,7.369,7.4463,7.5121,7.5198,7.5662,7.6281,7.6281,7.632,7.6397,7.6397,7.6397,7.6397,7.6397,7.6397,7.6397,7.6397,7.6397,7.6397,7.6397,7.6397,7.6397,7.6397,7.6397,7.6397,7.6397,7.6397,7.6397,7.6397,7.6397,7.6397,7.6397,7.6397,7.6397,7.6397,7.6397,7.6397,7.6397,7.6397,7.6397,7.6397,7.6397,7.6397,7.6397,7.6397,7.6397,7.6397,7.6397,7.6397,7.6397,7.6466,7.6488,7.6488,7.6652,7.6738,7.691,7.6973,7.7503,7.8428,7.9296,8.0195,8.1054,8.1914,8.2304,8.2304,8.2304,8.2304,8.2383,8.3242,8.414,8.5,8.5898,8.6758,8.75,7.1291,7.1291,7.1291,7.1291,7.1291,7.1291,7.1291,7.1291,7.1291,7.1291,7.1291,7.1291,7.1291,7.1291,7.1291,7.1291,7.1291,7.1291,7.1291,7.1291,7.1291,7.1291,7.1291,7.1214,7.1021,7.1021,7.1021,7.1021,7.1214,7.1291,7.1291,7.1291,7.1291,7.1291,7.1291,7.1291,7.1291,7.1291,7.1678,7.2336,7.2529,7.2993,7.3728,7.4541,7.4966,7.5198,7.5856,7.5817,7.5392,7.5392,7.5856,7.6397,7.6397,7.6397,7.6397,7.6397,7.6397,7.6397,7.6397,7.6397,7.6397,7.6397,7.6397,7.6397,7.6397,7.6397,7.6397,7.6397,7.6397,7.6397,7.6397,7.6397,7.6397,7.6397,7.6397,7.6397,7.6397,7.6397,7.6397,7.6397,7.6397,7.6397,7.6397,7.6397,7.6397,7.6397,7.6397,7.6397,7.6397,7.6397,7.6397,7.6397,7.6466,7.6549,7.6591,7.6672,7.6743,7.683,7.6955,7.7479,7.8428,7.9296,8.0195,8.1054,8.1914,8.2304,8.2304,8.2304,8.2304,8.2383,8.3242,8.414,8.5,8.5898,8.6758,8.75,7.1291,7.1291,7.1291,7.1291,7.1291,7.1291,7.1291,7.1291,7.1291,7.1291,7.1291,7.1291,7.1291,7.1291,7.1291,7.1291,7.1291,7.1291,7.1291,7.1291,7.1291,7.1291,7.1291,7.1291,7.1291,7.1291,7.1291,7.1291,7.1291,7.1291,7.1291,7.1291,7.1523,7.191,7.1485,7.1523,7.1872,7.1485,7.1794,7.2645,7.3032,7.3728,7.4579,7.5392,7.574,7.5779,7.6243,7.6127,7.5662,7.5237,7.5662,7.6397,7.6397,7.6397,7.6397,7.6397,7.6397,7.6397,7.6397,7.6397,7.6397,7.6397,7.6397,7.6397,7.6397,7.6397,7.6397,7.6397,7.6397,7.6397,7.6397,7.6397,7.6397,7.6397,7.6397,7.6397,7.6397,7.6397,7.6397,7.6397,7.6397,7.6397,7.6397,7.6397,7.6397,7.6397,7.6397,7.6397,7.6397,7.6397,7.6397,7.6397,7.6421,7.6466,7.6531,7.6632,7.6923,7.7408,7.7533,7.8057,7.8981,7.9917,8.0781,8.164,8.2109,8.2304,8.2304,8.2304,8.2304,8.2422,8.3711,8.4492,8.5078,8.6367,8.7109,8.75,7.1291,7.1291,7.1291,7.1291,7.1291,7.1291,7.1291,7.1291,7.1291,7.1291,7.1291,7.1291,7.1291,7.1291,7.1291,7.1291,7.1291,7.1291,7.1291,7.1291,7.1291,7.1291,7.1291,7.1291,7.1291,7.1291,7.1291,7.1291,7.1291,7.1369,7.1523,7.1523,7.191,7.2568,7.1833,7.1833,7.2336,7.1756,7.2026,7.2916,7.3767,7.4579,7.5392,7.6127,7.632,7.6165,7.6165,7.6165,7.6049,7.5353,7.5662,7.6397,7.6397,7.6397,7.6397,7.6397,7.6397,7.6397,7.6397,7.6397,7.6397,7.6397,7.6397,7.6397,7.6397,7.6397,7.6397,7.6397,7.6397,7.6397,7.6397,7.6397,7.6397,7.6397,7.6397,7.6397,7.6397,7.6397,7.6397,7.6397,7.6397,7.6397,7.6397,7.6397,7.6397,7.6397,7.6397,7.6397,7.6397,7.6397,7.6397,7.6397,7.6397,7.6444,7.6549,7.6708,7.7235,7.8092,7.8481,7.906,7.986,8.0652,8.1484,8.2304,8.2304,8.2304,8.2304,8.2304,8.2304,8.2461,8.4062,8.4765,8.5117,8.6875,8.75,8.75,7.1291,7.1291,7.1291,7.1291,7.1291,7.1291,7.1291,7.1291,7.1291,7.1291,7.1291,7.1291,7.1291,7.1291,7.1291,7.1291,7.1291,7.1291,7.1291,7.1291,7.1291,7.1291,7.1291,7.1291,7.1291,7.1291,7.1291,7.1291,7.1291,7.1678,7.2413,7.2413,7.2491,7.2607,7.2491,7.2065,7.1523,7.2142,7.2916,7.3806,7.4618,7.5469,7.6243,7.6359,7.5933,7.5276,7.5276,7.5276,7.5276,7.516,7.5662,7.6397,7.6397,7.6397,7.6397,7.6397,7.6397,7.6397,7.6397,7.6397,7.6397,7.6397,7.6397,7.6397,7.6397,7.6397,7.6397,7.6397,7.6397,7.6397,7.6397,7.6397,7.6397,7.6397,7.6397,7.6397,7.6397,7.6397,7.6397,7.6397,7.6397,7.6397,7.6397,7.6397,7.6397,7.6397,7.6397,7.6397,7.6397,7.6397,7.6397,7.6397,7.6397,7.6466,7.6591,7.7349,7.7836,7.8139,7.9702,8.0541,8.0718,8.0914,8.1481,8.2304,8.2304,8.2304,8.2304,8.2304,8.2304,8.2383,8.3398,8.4258,8.5117,8.6875,8.75,8.75,7.1247,7.1269,7.1291,7.1291,7.1291,7.1291,7.1291,7.1291,7.1291,7.1291,7.1291,7.1291,7.1291,7.1291,7.1291,7.1291,7.1291,7.1291,7.1291,7.1291,7.1291,7.1291,7.1756,7.2026,7.2026,7.2491,7.2761,7.2761,7.2258,7.2452,7.3342,7.3342,7.3574,7.3999,7.3535,7.338,7.3419,7.3342,7.3806,7.4618,7.4966,7.5624,7.6359,7.5856,7.543,7.5044,7.4579,7.4734,7.5121,7.5121,7.5662,7.6397,7.6397,7.6397,7.6397,7.6397,7.6397,7.6397,7.6397,7.6397,7.6397,7.6397,7.6397,7.6397,7.6397,7.6397,7.6397,7.6397,7.6397,7.6397,7.6397,7.6397,7.6397,7.6397,7.6397,7.6397,7.6397,7.6397,7.6397,7.6397,7.6397,7.6397,7.6397,7.6397,7.6397,7.6397,7.6397,7.6397,7.6397,7.6397,7.6397,7.6397,7.6397,7.6444,7.6531,7.7444,7.8205,7.8776,8.0143,8.0853,8.0913,8.1456,8.1948,8.2304,8.2304,8.2304,8.2304,8.2304,8.2304,8.2383,8.3242,8.4414,8.5703,8.6484,8.707,8.75]},{"header":{"parameterUnit":"m.s-1","parameterCategory":1,"la1":30.6,"la2":28.766,"lo1":-90.7593,"lo2":-88.6598,"dy":0.0162,"dx":0.0183,"nx":116,"ny":114,"refTime":"2023-11-15T06:00:00:Z","depth":0,"parameterNumber":3,"parameterNumberName":"V-component_of_WINDS"},"data":[0.0,0.0,0.0,0.0,0.0,0.0,0.0,0.0,0.0,0.0,0.0,0.0,0.0,0.0,0.0,0.0,0.0,0.0,0.0,0.0,0.0,0.0,0.0,0.0,0.0,0.0,0.0,0.0,0.0,0.0,0.0,0.0,0.0,0.0,0.0,0.0,0.0,0.0,0.0,0.0,0.0,0.0,0.0,0.0,0.0,0.0,0.0,0.0,0.0,0.0,0.0,0.0,0.0,0.0,0.0,0.0,0.0,0.0,0.0,0.0,0.0,0.0,0.0,0.0,0.0,0.0,0.0,0.0,0.0,0.0,0.0,0.0,0.0,0.0,0.0,0.0,0.0,0.0,0.0,0.0,0.0,0.0,0.0,0.0,0.0,0.0,0.0,0.0,0.0,0.0,0.0,0.0,0.0,0.0,0.0,0.0,0.0,0.0,0.0,0.0,0.0,0.0,0.0,0.0,0.0,0.0,0.0,0.0,0.0,0.0,0.0,0.0,0.0,0.0,0.0,0.0,0.0,0.0,0.0,0.0,0.0,0.0,0.0,0.0,0.0,0.0,0.0,0.0,0.0,0.0,0.0,0.0,0.0,0.0,0.0,0.0,0.0,0.0,0.0,0.0,0.0,0.0,0.0,0.0,0.0,0.0,0.0,0.0,0.0,0.0,0.0,0.0,0.0,0.0,0.0,0.0,0.0,0.0,0.0,0.0,0.0,0.0,0.0,0.0,0.0,0.0,0.0,0.0,0.0,0.0,0.0,0.0,0.0,0.0,0.0,0.0,0.0,0.0,0.0,0.0,0.0,0.0,0.0,0.0,0.0,0.0,0.0,0.0,0.0,0.0,0.0,0.0,0.0,0.0,0.0,0.0,0.0,0.0,0.0,0.0,0.0,0.0,0.0,0.0,0.0,0.0,0.0,0.0,0.0,0.0,0.0,0.0,0.0,0.0,0.0,0.0,0.0,0.0,0.0,0.0,0.0,0.0,0.0,0.0,0.0,0.0,0.0,0.0,0.0,0.0,0.0,0.0,0.0,0.0,0.0,0.0,0.0,0.0,0.0,0.0,0.0,0.0,0.0,0.0,0.0,0.0,0.0,0.0,0.0,0.0,0.0,0.0,0.0,0.0,0.0,0.0,0.0,0.0,0.0,0.0,0.0,0.0,0.0,0.0,0.0,0.0,0.0,0.0,0.0,0.0,0.0,0.0,0.0,0.0,0.0,0.0,0.0,0.0,0.0,0.0,0.0,0.0,0.0,0.0,0.0,0.0,0.0,0.0,0.0,0.0,0.0,0.0,0.0,0.0,0.0,0.0,0.0,0.0,0.0,0.0,0.0,0.0,0.0,0.0,0.0,0.0,0.0,0.0,0.0,0.0,0.0,0.0,0.0,0.0,0.0,0.0,0.0,0.0,0.0,0.0,0.0,0.0,0.0,0.0,0.0,0.0,0.0,0.0,0.0,0.0,0.0,0.0,0.0,0.0,0.0,0.0,0.0,0.0,0.0,0.0,0.0,0.0,0.0,0.0,0.0,0.0,0.0,0.0,0.0,0.0,0.0,0.0,0.0,0.0,0.0,0.0,0.0,0.0,0.0,0.0,0.0,0.0,0.0,0.0,0.0,0.0,0.0,0.0,0.0,0.0,0.0,0.0,0.0,0.0,0.0,0.0,0.0,0.0,0.0,0.0,0.0,0.0,0.0,0.0,0.0,0.0,0.0,0.0,0.0,0.0,0.0,0.0,0.0,0.0,0.0,0.0,0.0,0.0,0.0,0.0,0.0,0.0,0.0,0.0,0.0,0.0,0.0,0.0,0.0,0.0,0.0,0.0,0.0,0.0,0.0,0.0,0.0,0.0,0.0,0.0,0.0,0.0,0.0,0.0,0.0,0.0,0.0,0.0,0.0,0.0,0.0,0.0,0.0,0.0,0.0,0.0,0.0,0.0,0.0,0.0,0.0,0.0,0.0,0.0,0.0,0.0,0.0,0.0,0.0,0.0,0.0,0.0,0.0,0.0,0.0,0.0,0.0,0.0,0.0,0.0,0.0,0.0,0.0,0.0,0.0,0.0,0.0,0.0,0.0,0.0,0.0,0.0,0.0,0.0,0.0,0.0,0.0,0.0,0.0,0.0,0.0,0.0,0.0,0.0,0.0,0.0,0.0,0.0,0.0,0.0,0.0,0.0,0.0,0.0,0.0,0.0,0.0,0.0,0.0,0.0,0.0,0.0,0.0,0.0,0.0,0.0,0.0,0.0,0.0,0.0,0.0,0.0,0.0,0.0,0.0,0.0,0.0,0.0,0.0,0.0,0.0,0.0,0.0,0.0,0.0,0.0,0.0,0.0,0.0,0.0,0.0,0.0,0.0,0.0,0.0,0.0,0.0,0.0,0.0,0.0,0.0,0.0,0.0,0.0,0.0,0.0,0.0,0.0,0.0,0.0,0.0,0.0,0.0,0.0,0.0,0.0,0.0,0.0,0.0,0.0,0.0,0.0,0.0,0.0,0.0,0.0,0.0,0.0,0.0,0.0,0.0,0.0,0.0,0.0,0.0,0.0,0.0,0.0,0.0,0.0,0.0,0.0,0.0,0.0,0.0,0.0,0.0,0.0,0.0,0.0,0.0,0.0,0.0,0.0,0.0,0.0,0.0,0.0,0.0,0.0,0.0,0.0,0.0,0.0,0.0,0.0,0.0,0.0,0.0,0.0,0.0,0.0,0.0,0.0,0.0,0.0,0.0,0.0,0.0,0.0,0.0,0.0,0.0,0.0,0.0,0.0,0.0,0.0,0.0,0.0,0.0,0.0,0.0,0.0,0.0,0.0,0.0,0.0,0.0,0.0,0.0,0.0,0.0,0.0,0.0,0.0,0.0,0.0,0.0,0.0,0.0,0.0,0.0,0.0,0.0,0.0,0.0,0.0,0.0,0.0,0.0,0.0,0.0,0.0,0.0,0.0,0.0,0.0,0.0,0.0,0.0,0.0,0.0,0.0,0.0,0.0,0.0,0.0,0.0,0.0,0.0,0.0,0.0,0.0,0.0,0.0,0.0,0.0,0.0,0.0,0.0,0.0,0.0,0.0,0.0,0.0,0.0,0.0,0.0,0.0,0.0,0.0,0.0,0.0,0.0,0.0,0.0,0.0,0.0,0.0,0.0,0.0,0.0,0.0,0.0,0.0,0.0,0.0,0.0,0.0,0.0,0.0,0.0,0.0,0.0,0.0,0.0,0.0,0.0,0.0,0.0,0.0,0.0,0.0,0.0,0.0,0.0,0.0,0.0,0.0,0.0,0.0,0.0,0.0,0.0,0.0,0.0,0.0,0.0,0.0,0.0,0.0,0.0,0.0,0.0,0.0,0.0,0.0,0.0,0.0,0.0,0.0,0.0,0.0,0.0,0.0,0.0,0.0,0.0,0.0,0.0,0.0,0.0,0.0,0.0,0.0,0.0,0.0,0.0,0.0,0.0,0.0,0.0,0.0,0.0,0.0,0.0,0.0,0.0,0.0,0.0,0.0,0.0,0.0,0.0,0.0,0.0,0.0,0.0,0.0,0.0,0.0,0.0,0.0,0.0,0.0,0.0,0.0,0.0,0.0,0.0,0.0,0.0,0.0,0.0,0.0,0.0,0.0,0.0,0.0,0.0,0.0,0.0,0.0,0.0,0.0,0.0,0.0,0.0,0.0,0.0,0.0,0.0,0.0,0.0,0.0,0.0,0.0,0.0,0.0,0.0,0.0,0.0,0.0,0.0,0.0,0.0,0.0,0.0,0.0,0.0,0.0,0.0,0.0,0.0,0.0,0.0,0.0,0.0,0.0,0.0,0.0,0.0,0.0,0.0,0.0,0.0,0.0,0.0,0.0,0.0,0.0,0.0,0.0,0.0,0.0,0.0,0.0,0.0,0.0,0.0,0.0,0.0,0.0,0.0,0.0,0.0,0.0,0.0,0.0,0.0,0.0,0.0,0.0,0.0,0.0,0.0,0.0,0.0,0.0,0.0,0.0,0.0,0.0,0.0,0.0,0.0,0.0,0.0,0.0,0.0,0.0,0.0,0.0,0.0,0.0,0.0,0.0,0.0,0.0,0.0,0.0,0.0,0.0,0.0,0.0,0.0,0.0,0.0,0.0,0.0,0.0,0.0,0.0,0.0,0.0,0.0,0.0,0.0,0.0,0.0,0.0,0.0,0.0,0.0,0.0,0.0,0.0,0.0,0.0,0.0,0.0,0.0,0.0,0.0,0.0,0.0,0.0,0.0,0.0,0.0,0.0,0.0,0.0,0.0,0.0,0.0,0.0,0.0,0.0,0.0,0.0,0.0,0.0,0.0,0.0,0.0,0.0,0.0,0.0,0.0,0.0,0.0,0.0,0.0,0.0,0.0,0.0,0.0,0.0,0.0,0.0,0.0,0.0,0.0,0.0,0.0,0.0,0.0,0.0,0.0,0.0,0.0,0.0,0.0,0.0,0.0,0.0,0.0,0.0,0.0,0.0,0.0,0.0,0.0,0.0,0.0,0.0,0.0,0.0,0.0,0.0,0.0,0.0,0.0,0.0,0.0,0.0,0.0,0.0,0.0,0.0,0.0,0.0,0.0,0.0,0.0,0.0,0.0,0.0,0.0,0.0,0.0,0.0,0.0,0.0,0.0,0.0,0.0,0.0,0.0,0.0,0.0,0.0,0.0,0.0,0.0,0.0,0.0,0.0,0.0,0.0,0.0,0.0,0.0,0.0,0.0,0.0,0.0,0.0,0.0,0.0,0.0,0.0,0.0,0.0,0.0,0.0,0.0,0.0,0.0,0.0,0.0,0.0,0.0,0.0,0.0,0.0,0.0,0.0,0.0,0.0,0.0,0.0,0.0,0.0,0.0,0.0,0.0,0.0,0.0,0.0,0.0,0.0,0.0,0.0,0.0,0.0,0.0,0.0,0.0,0.0,0.0,0.0,0.0,0.0,0.0,0.0,0.0,0.0,0.0,0.0,0.0,0.0,0.0,0.0,0.0,0.0,0.0,0.0,0.0,0.0,0.0,0.0,0.0,0.0,0.0,0.0,0.0,0.0,0.0,0.0,0.0,0.0,0.0,0.0,0.0,0.0,0.0,0.0,0.0,0.0,0.0,0.0,0.0,0.0,0.0,0.0,0.0,0.0,0.0,0.0,0.0,0.0,0.0,0.0,0.0,0.0,0.0,0.0,0.0,0.0,0.0,0.0,0.0,0.0,0.0,0.0,0.0,0.0,0.0,0.0,0.0,0.0,0.0,0.0,0.0,0.0,0.0,0.0,0.0,0.0,0.0,0.0,0.0,0.0,0.0,0.0,0.0,0.0,0.0,0.0,0.0,0.0,0.0,0.0,0.0,0.0,0.0,0.0,0.0,0.0,0.0,0.0,0.0,0.0,0.0,0.0,0.0,0.0,0.0,0.0,0.0,0.0,0.0,0.0,0.0,0.0,0.0,0.0,0.0,0.0,0.0,0.0,0.0,0.0,0.0,0.0,0.0,0.0,0.0,0.0,0.0,0.0,0.0,0.0,0.0,0.0,0.0,0.0,0.0,0.0,0.0,0.0,0.0,0.0,0.0,0.0,0.0,0.0,0.0,0.0,0.0,0.0,0.0,0.0,0.0,0.0,0.0,0.0,0.0,0.0,0.0,0.0,0.0,0.0,0.0,0.0,0.0,0.0,0.0,0.0,0.0,0.0,0.0,0.0,0.0,0.0,0.0,0.0,0.0,0.0,0.0,0.0,0.0,0.0,0.0,0.0,0.0,0.0,0.0,0.0,0.0,0.0,0.0,0.0,0.0,0.0,0.0,0.0,0.0,0.0,0.0,0.0,0.0,0.0,0.0,0.0,0.0,0.0,0.0,0.0,0.0,0.0,0.0,0.0,0.0,0.0,0.0,0.0,0.0,0.0,0.0,0.0,0.0,0.0,0.0,0.0,0.0,0.0,0.0,0.0,0.0,0.0,0.0,0.0,0.0,0.0,0.0,0.0,0.0,0.0,0.0,0.0,0.0,0.0,0.0,0.0,0.0,0.0,0.0,0.0,0.0,0.0,0.0,0.0,0.0,0.0,0.0,0.0,0.0,0.0,0.0,0.0,0.0,0.0,0.0,0.0,0.0,0.0,-0.1669,0.0,0.0,0.0,0.0,0.0,0.0,0.0,0.0,0.0,0.0,0.0,0.0,0.0,0.0,0.0,0.0,0.0,0.0,0.0,0.0,0.0,0.0,0.0,0.0,0.0,0.0,0.0,0.0,0.0,0.0,0.0,0.0,0.0,0.0,0.0,0.0,0.0,0.0,0.5735,0.579,0.5877,0.5991,0.5866,0.5714,0.554,0.0,0.0,0.0,0.0,0.0,0.0,0.0,0.0,0.0,0.0,0.0,0.0,0.0,0.0,0.0,0.0,0.0,0.0,0.0,0.0,0.0,0.0,0.0,0.0,0.0,0.0,0.0,0.0,0.0,0.0,0.0,0.0,0.0,0.0,0.0,0.0,0.0,0.0,0.0,0.0,0.0,0.0,0.0,0.0,0.0,0.0,0.0,0.0,0.0,0.0,0.0,0.0,0.0,0.0,0.0,0.0,0.0,0.0,0.0,0.0,0.0,0.0,0.0,0.0,0.0,0.0,0.0,0.0,0.0,0.0,0.0,-0.1682,0.0,0.0,0.0,0.0,0.0,0.0,0.0,0.0,0.0,0.0,0.0,0.0,0.0,0.0,0.0,0.0,0.0,0.0,0.0,0.0,0.0,0.0,0.0,0.5148,0.5268,0.5388,0.5491,0.5518,0.0,0.0,0.0,0.0,0.0,0.0,0.5735,0.5735,0.5741,0.5763,0.592,0.6056,0.6181,0.6203,0.6094,0.5882,0.5719,0.0,0.0,0.0,0.0,0.0,0.0,0.0,0.0,0.0,0.0,0.0,0.0,0.0,0.0,0.0,0.0,0.0,0.0,0.0,0.0,0.0,0.0,0.0,0.0,0.0,0.0,0.0,0.0,0.0,0.0,0.0,0.0,0.0,0.0,0.0,0.0,0.0,0.0,0.0,0.0,0.0,0.0,0.0,0.0,0.0,0.0,0.0,0.0,0.0,0.0,0.0,0.0,0.0,0.0,0.0,0.0,0.0,0.0,0.0,0.0,0.0,0.0,0.0,-0.1819,-0.1847,-0.1902,-0.1902,-0.1902,-0.1896,-0.1795,-0.1757,-0.176,0.0,0.0,0.0,0.0,0.0,0.0,0.0,0.0,0.0,0.0,0.0,0.0,0.0,0.0,0.0,0.0,0.0,0.0,0.0,0.0,0.5009,0.5165,0.5273,0.5393,0.5518,0.5454,0.5518,0.5725,0.0,0.0,0.0,0.0,0.5735,0.5735,0.5735,0.5779,0.5882,0.6208,0.6431,0.6551,0.666,0.6632,0.6486,0.6159,0.6007,0.5986,0.0,0.0,0.0,0.0,0.0,0.0,0.0,0.0,0.0,0.0,0.0,0.0,0.0,0.0,0.0,0.0,0.0,0.0,0.0,0.0,0.0,0.0,0.0,0.0,0.0,0.0,0.0,0.0,0.0,0.0,0.0,0.0,0.0,0.0,0.0,0.0,0.0,0.0,0.0,0.0,0.0,-0.158,-0.1562,0.0,0.0,0.0,0.0,0.0,0.0,0.0,0.0,0.0,0.0,0.0,0.0,0.0,0.0,-0.1861,-0.1862,-0.1879,-0.1913,-0.1913,-0.1932,-0.1964,-0.1964,-0.1964,-0.1963,-0.1948,0.0,-0.1825,-0.1787,0.0,0.0,0.0,0.0,0.0,0.0,0.0,0.0,0.0,0.0,0.0,0.0,0.0,0.0,0.0,0.0,0.0,0.0,0.0,0.0,0.0,0.5416,0.5621,0.5735,0.5812,0.5844,0.5828,0.5828,0.0,0.0,0.5735,0.5735,0.5735,0.5795,0.5953,0.6208,0.6502,0.6703,0.6828,0.6942,0.697,0.6915,0.6757,0.6535,0.6274,0.6159,0.0,0.0,0.0,0.0,0.0,0.0,0.0,0.0,0.0,0.0,0.0,0.0,0.0,0.0,0.0,0.0,0.0,0.0,0.0,0.0,0.0,0.0,0.0,0.0,0.0,0.0,0.0,0.0,0.0,0.0,0.0,0.0,0.0,0.0,0.0,0.0,0.0,0.0,0.0,-0.1539,-0.1599,-0.162,-0.1635,-0.163,0.0,0.0,0.0,0.0,0.0,0.0,0.0,0.0,0.0,-0.1824,-0.1855,-0.1892,-0.1936,-0.1937,-0.1951,-0.1981,-0.1981,-0.2005,-0.2052,-0.2052,-0.206,-0.2076,-0.2059,-0.2029,-0.1984,-0.1885,-0.182,-0.1775,0.0,0.0,0.0,0.0,0.0,-0.1696,0.0,0.0,0.0,0.0,0.0,0.0,0.0,0.0,0.0,0.0,0.0,0.0,0.5226,0.5578,0.5812,0.5991,0.6105,0.6127,0.6002,0.5969,0.5899,0.5779,0.5746,0.5746,0.5773,0.598,0.6252,0.6589,0.6823,0.7002,0.7122,0.7209,0.7247,0.7247,0.7247,0.6997,0.6567,0.6453,0.6317,0.6159,0.0,0.0,0.0,0.0,0.0,0.0,0.0,0.0,0.0,0.0,0.0,0.0,0.0,0.0,0.0,0.0,0.0,0.0,0.0,0.0,0.0,0.0,0.0,0.0,0.0,0.0,0.0,0.0,0.0,0.0,0.0,0.0,0.0,0.0,0.0,0.0,0.0,-0.1577,-0.1628,-0.1689,-0.1689,-0.1682,0.0,0.0,0.0,0.0,0.0,0.0,-0.1794,-0.1846,-0.1892,-0.193,-0.1954,-0.1984,-0.2022,-0.2022,-0.2037,-0.2065,-0.2065,-0.2093,-0.2144,-0.2144,-0.2157,-0.2177,-0.2154,-0.2139,-0.2121,-0.1978,-0.1906,-0.188,-0.182,-0.1801,-0.1806,-0.1798,-0.1801,-0.1814,0.0,0.0,0.0,0.0,0.0,0.0,0.0,0.0,0.0,0.0,0.0,0.491,0.5364,0.5654,0.595,0.6252,0.6355,0.6372,0.6257,0.6143,0.6024,0.5899,0.579,0.5784,0.5893,0.6344,0.6709,0.6959,0.7192,0.7372,0.7491,0.7497,0.7502,0.7502,0.7502,0.7296,0.6948,0.6828,0.6643,0.641,0.6165,0.0,0.0,0.0,0.0,0.0,0.0,0.0,0.0,0.0,0.0,0.0,0.0,0.0,0.0,0.0,0.0,0.0,0.0,0.0,0.0,0.0,0.0,0.0,0.0,0.0,0.0,0.0,0.0,0.0,0.0,0.0,0.0,0.0,0.0,0.0,0.0,0.0,0.0,-0.178,-0.1763,0.0,0.0,0.0,0.0,-0.1824,-0.1858,-0.1889,-0.1921,-0.1952,-0.1996,-0.2053,-0.2057,-0.2086,-0.2146,-0.2146,-0.2161,-0.2191,-0.2191,-0.2207,-0.2238,-0.2238,-0.224,-0.2241,-0.2238,-0.2222,-0.2187,-0.2063,-0.2011,-0.2004,-0.1945,-0.194,-0.1962,-0.1933,-0.194,-0.1966,0.0,0.0,0.0,0.0,0.0,0.0,0.0,0.0,0.394,0.4147,0.4524,0.5009,0.5489,0.5877,0.6225,0.6605,0.6649,0.6589,0.6388,0.6268,0.6116,0.5909,0.5866,0.6007,0.6355,0.6687,0.7008,0.7328,0.7562,0.7741,0.7867,0.7943,0.7981,0.7981,0.7981,0.7823,0.7529,0.7176,0.6937,0.6763,0.6442,0.6219,0.0,0.0,0.0,0.0,0.0,0.0,0.0,0.0,0.0,0.0,0.0,0.0,0.0,0.0,0.0,0.0,0.0,0.0,0.0,0.0,0.0,0.0,0.0,0.0,0.0,0.0,0.0,0.0,0.0,0.0,0.0,0.0,0.0,0.0,0.0,0.0,0.0,-0.1817,-0.1832,0.0,-0.184,-0.1855,-0.1868,-0.1869,-0.1951,-0.2005,-0.2016,-0.2064,-0.2109,-0.215,-0.2151,-0.2172,-0.2213,-0.2213,-0.2218,-0.2229,-0.2229,-0.2245,-0.2275,-0.2275,-0.2285,-0.2301,-0.2282,-0.2268,-0.2253,-0.2191,-0.2129,-0.2074,-0.2033,-0.2023,-0.2031,-0.202,-0.2023,-0.2033,0.0,0.0,0.0,0.0,0.0,0.0,0.0,0.3867,0.4001,0.4153,0.4654,0.5084,0.5613,0.6107,0.6463,0.6855,0.6899,0.6817,0.6578,0.6453,0.6279,0.6034,0.61,0.6333,0.6736,0.7062,0.7361,0.7638,0.7877,0.8057,0.8176,0.8214,0.8258,0.8296,0.8253,0.8144,0.797,0.7611,0.7296,0.7018,0.6736,0.6529,0.635,0.0,0.0,0.0,0.0,0.0,0.0,0.0,0.0,0.0,0.0,0.0,0.0,0.0,0.0,0.0,0.0,0.0,0.0,0.0,0.0,0.0,0.0,0.0,0.0,0.0,0.0,0.0,0.0,0.0,0.0,0.0,0.0,0.0,0.0,0.0,-0.1821,-0.1892,-0.191,-0.1921,-0.193,-0.1959,-0.1977,-0.1977,-0.206,-0.211,-0.211,-0.2158,-0.2199,-0.223,-0.224,-0.2255,-0.2275,-0.2285,-0.2285,-0.2275,-0.2275,-0.2286,-0.2305,-0.2305,-0.2315,-0.2331,-0.2313,-0.2305,-0.2303,-0.2273,-0.2225,-0.2168,-0.2136,-0.2125,-0.2125,-0.2125,-0.2125,-0.2124,0.0,0.0,0.0,0.0,0.0,0.0,0.3769,0.392,0.4071,0.4169,0.4767,0.5335,0.5636,0.6243,0.666,0.6991,0.7089,0.7051,0.6817,0.6681,0.6513,0.629,0.6507,0.6752,0.7002,0.747,0.7774,0.7894,0.8127,0.8312,0.8432,0.8312,0.8323,0.8432,0.8312,0.8253,0.8236,0.8122,0.7725,0.7171,0.7051,0.6855,0.6616,0.0,0.0,0.0,0.0,0.0,0.0,0.0,0.0,0.0,0.0,0.0,0.0,0.0,0.0,0.0,0.0,0.0,0.0,0.0,0.0,0.0,0.0,0.0,0.0,0.0,0.0,0.0,0.0,0.0,0.0,0.0,0.0,0.0,-0.18,-0.1853,-0.1924,-0.2011,-0.1999,-0.2016,-0.2102,-0.2084,-0.2093,-0.2151,-0.2185,-0.2203,-0.2204,-0.2233,-0.2263,-0.2294,-0.2322,-0.2335,-0.2334,-0.2364,-0.2363,-0.2333,-0.2334,-0.2334,-0.2334,-0.2335,-0.2335,-0.2334,-0.2334,-0.2334,-0.2331,-0.2304,-0.2292,-0.2289,-0.2258,-0.2245,-0.2245,-0.2245,-0.2245,-0.2241,0.0,0.0,0.0,0.0,0.0,0.0,0.385,0.3961,0.4116,0.4336,0.4905,0.5468,0.5851,0.6408,0.678,0.7105,0.7062,0.697,0.6812,0.6605,0.6497,0.6524,0.6834,0.7165,0.7497,0.7801,0.81,0.8388,0.8459,0.86,0.8802,0.8769,0.8774,0.8802,0.8769,0.8655,0.8486,0.8454,0.8198,0.778,0.7491,0.7279,0.7105,0.0,0.0,0.0,0.0,0.0,0.0,0.0,0.0,0.0,0.0,0.0,0.0,0.0,0.0,0.0,0.0,0.0,0.0,0.0,0.0,0.0,0.0,0.0,0.0,0.0,0.0,0.0,0.0,0.0,0.0,0.0,-0.1829,-0.1894,-0.1894,-0.1963,-0.2033,-0.2079,-0.2097,-0.2116,-0.2139,-0.2154,-0.217,-0.2187,-0.2236,-0.2275,-0.2294,-0.2324,-0.2356,-0.2386,-0.2394,-0.2388,-0.2365,-0.2373,-0.2363,-0.2333,-0.2356,-0.2365,-0.2367,-0.2388,-0.2387,-0.2365,-0.2365,-0.2353,-0.2333,-0.2324,-0.2322,-0.2316,-0.2266,-0.2245,-0.2245,-0.2245,-0.2245,-0.2244,0.0,0.0,0.0,0.0,0.0,0.0,0.3887,0.3977,0.4132,0.4402,0.5059,0.562,0.5932,0.6577,0.6932,0.7154,0.7051,0.6931,0.6812,0.6671,0.6665,0.6834,0.7192,0.7529,0.7845,0.8133,0.8405,0.8666,0.8715,0.884,0.903,0.8976,0.8976,0.9024,0.8976,0.8872,0.8742,0.8742,0.8562,0.8258,0.8051,0.7774,0.7459,0.7203,0.6848,0.6557,0.6018,0.5324,0.4591,0.3762,0.0,0.0,0.0,0.0,0.0,0.0,0.0,0.0,0.0,0.0,0.0,0.0,0.0,0.0,0.0,0.0,0.0,0.0,0.0,0.0,0.0,0.0,0.0,0.0,-0.1939,-0.2009,-0.2023,-0.2069,-0.2119,-0.2161,-0.2181,-0.2203,-0.2228,-0.2245,-0.2266,-0.2292,-0.2327,-0.2353,-0.2369,-0.2387,-0.2405,-0.2423,-0.2436,-0.2428,-0.2398,-0.241,-0.2401,-0.2371,-0.2388,-0.2397,-0.2398,-0.2416,-0.2414,0.0,-0.2397,-0.2387,-0.2369,-0.2357,-0.2352,0.0,0.0,0.0,0.0,0.0,-0.2282,-0.2281,0.0,0.0,0.0,0.0,0.0,0.0,0.3899,0.3985,0.4136,0.4414,0.5151,0.5809,0.5932,0.6666,0.7122,0.7133,0.7018,0.6904,0.6806,0.6828,0.6953,0.7203,0.7551,0.7856,0.8111,0.8437,0.8677,0.8812,0.8921,0.9035,0.915,0.9041,0.9046,0.915,0.9041,0.8986,0.897,0.897,0.884,0.8628,0.8628,0.828,0.7747,0.7627,0.7397,0.7044,0.6811,0.6004,0.5153,0.4958,0.0,0.0,0.0,0.0,0.0,0.0,0.0,0.0,0.0,0.0,0.0,0.0,0.0,0.0,0.0,0.0,0.0,0.0,0.0,0.0,0.0,0.0,0.0,0.0,-0.2044,-0.2128,-0.2165,-0.2173,-0.2195,-0.2249,-0.2259,-0.2282,-0.2338,-0.2343,-0.2365,-0.242,-0.2424,-0.2425,-0.2428,0.0,0.0,0.0,0.0,-0.2459,-0.2429,-0.2455,-0.2454,-0.2424,-0.2427,-0.2429,-0.2429,-0.2432,-0.2432,-0.2429,-0.2429,-0.2427,-0.2421,-0.2394,-0.2383,-0.238,-0.2346,-0.2333,-0.2333,-0.2333,-0.2333,0.0,0.0,0.0,0.0,0.0,0.0,0.0,0.3985,0.4026,0.4161,0.45,0.5138,0.5732,0.5922,0.6526,0.691,0.7008,0.6817,0.6719,0.6796,0.698,0.7236,0.7578,0.7845,0.8144,0.8475,0.8649,0.8845,0.9063,0.909,0.916,0.9269,0.9247,0.9247,0.9269,0.9247,0.9188,0.9101,0.9101,0.9014,0.8883,0.8883,0.8579,0.8117,0.7997,0.7937,0.776,0.7288,0.6894,0.6555,0.6003,0.5456,0.481,0.4275,0.3086,0.0,0.0,0.0,0.0,0.0,0.0,0.0,0.0,0.0,0.0,0.0,0.0,0.0,0.0,0.0,0.0,0.0,0.0,0.0,-0.2056,-0.2114,-0.2173,-0.2253,-0.2283,-0.2303,-0.2315,-0.2338,-0.2367,-0.2402,-0.2406,-0.241,-0.2423,-0.2424,-0.2435,-0.2459,-0.2461,0.0,-0.2496,-0.2503,-0.2491,-0.2461,-0.2466,-0.2454,-0.2424,0.0,0.0,-0.2461,-0.2485,-0.2484,-0.2461,-0.2461,-0.2446,-0.2423,-0.2417,-0.2414,-0.2409,-0.2354,-0.2333,-0.2333,-0.2333,-0.2333,-0.2333,0.0,0.0,0.0,0.0,0.0,0.0,0.3948,0.4006,0.4132,0.4402,0.5029,0.5586,0.5698,0.6277,0.6643,0.6703,0.6654,0.6698,0.6883,0.7171,0.747,0.7774,0.8127,0.8432,0.8671,0.8856,0.9041,0.922,0.922,0.9247,0.9302,0.9302,0.9302,0.9302,0.9302,0.9275,0.922,0.922,0.915,0.9041,0.9041,0.8724,0.8307,0.8133,0.7863,0.7623,0.7386,0.6991,0.6727,0.656,0.6027,0.5365,0.4989,0.395,0.2755,0.0,0.0,0.0,0.0,0.0,0.0,0.0,0.0,0.0,0.0,0.0,0.0,0.0,0.0,-0.1819,-0.1895,0.0,-0.2045,-0.212,-0.2183,-0.2244,-0.2304,-0.2337,-0.2356,-0.2356,-0.2382,-0.2413,-0.2443,-0.2446,-0.2453,-0.2467,-0.2469,-0.2476,-0.2491,-0.2492,-0.2499,-0.2514,-0.2514,-0.2507,-0.2492,-0.2492,-0.2484,-0.2469,-0.2484,-0.2492,-0.2492,-0.2507,-0.2506,-0.2492,-0.2492,-0.2482,-0.2467,-0.2453,-0.2438,-0.242,-0.239,-0.2368,-0.2356,-0.2356,-0.2346,-0.2333,0.0,0.0,0.0,0.0,0.0,0.0,0.3887,0.3977,0.4099,0.4275,0.4903,0.5346,0.5475,0.5935,0.6278,0.6399,0.6535,0.6736,0.7002,0.7355,0.7671,0.7932,0.8356,0.8655,0.8802,0.9019,0.9188,0.9302,0.9302,0.9302,0.9302,0.9302,0.9302,0.9302,0.9302,0.9302,0.9302,0.9302,0.9253,0.9024,0.9024,0.8671,0.8129,0.7791,0.7464,0.7029,0.6974,0.6719,0.6328,0.6667,0.6288,0.5542,0.5238,0.4525,0.3616,0.281,0.1681,0.0,0.0,0.0,0.0,0.0,0.0,0.0,0.0,-0.1738,-0.1786,-0.1823,-0.1879,-0.1939,-0.2,-0.2075,-0.2139,-0.2176,-0.2248,-0.2309,-0.2338,-0.2368,-0.2387,-0.2387,-0.2414,-0.2444,-0.2474,-0.2477,-0.2488,-0.2512,-0.2514,-0.2514,-0.2514,-0.2514,-0.2514,-0.2514,-0.2514,-0.2514,-0.2514,-0.2514,-0.2514,-0.2514,-0.2514,-0.2514,-0.2514,-0.2514,-0.2514,-0.2514,-0.2514,-0.2514,-0.2512,-0.2488,-0.2463,-0.2442,-0.2442,-0.2423,-0.2395,-0.239,-0.2372,-0.2349,0.0,0.0,0.0,0.0,0.0,0.0,0.0,0.0,0.4099,0.4275,0.4663,0.4989,0.5465,0.5696,0.5878,0.6279,0.6491,0.6763,0.7111,0.7481,0.7834,0.8176,0.8448,0.8693,0.8927,0.9063,0.9188,0.9302,0.9302,0.9302,0.9302,0.9302,0.9302,0.9302,0.9302,0.9302,0.9302,0.9302,0.9152,0.8709,0.8709,0.8069,0.6969,0.6589,0.6489,0.6639,0.6398,0.6038,0.5739,0.6337,0.609,0.5642,0.5391,0.476,0.4027,0.3575,0.2179,0.0532,-0.0541,-0.1317,-0.1775,-0.1886,-0.1778,-0.1787,0.0,-0.1846,-0.1887,-0.1944,-0.2003,-0.2063,-0.2124,-0.2165,-0.2208,-0.2266,-0.2305,-0.2338,-0.2369,-0.2399,-0.2418,-0.2418,-0.2446,-0.2476,-0.2506,-0.2508,-0.251,-0.2514,-0.2514,-0.2514,-0.2514,-0.2514,-0.2514,-0.2514,-0.2514,-0.2514,-0.2514,-0.2514,-0.2514,-0.2514,-0.2514,-0.2514,-0.2514,-0.2514,-0.2514,-0.2514,-0.2514,-0.2514,-0.2514,-0.251,-0.2507,-0.2504,-0.2504,-0.2485,-0.2455,-0.2428,-0.2416,-0.2409,0.0,0.0,0.0,0.0,0.0,0.0,0.0,0.0,0.4063,0.4136,0.4448,0.4845,0.5198,0.5537,0.5834,0.6045,0.6333,0.6665,0.7029,0.7524,0.7932,0.822,0.8595,0.8845,0.8948,0.9139,0.9258,0.9302,0.9302,0.9302,0.9302,0.9302,0.9302,0.9302,0.9018,0.9018,0.8874,0.8729,0.844,0.8,0.8,0.7365,0.6271,0.6144,0.5628,0.4996,0.5349,0.5224,0.0,0.5021,0.4841,0.4697,0.4817,0.4251,0.3695,0.3698,0.2596,0.1103,-0.0,-0.0566,-0.0801,-0.1166,-0.1651,-0.1909,-0.1937,-0.1981,-0.2029,-0.2071,-0.2114,-0.2157,-0.22,-0.2233,-0.2266,-0.2308,-0.2339,-0.2369,-0.2401,-0.2416,-0.2424,-0.2424,-0.2435,-0.2447,-0.2461,-0.2477,-0.2488,-0.2488,-0.2504,-0.2514,-0.2514,-0.2514,-0.2514,-0.2514,-0.2514,-0.2514,-0.2514,-0.2514,-0.2514,-0.2514,-0.2514,-0.2514,-0.2514,-0.2514,-0.2514,-0.2514,-0.2514,-0.2514,-0.2514,-0.2514,-0.2514,-0.2514,-0.2514,-0.2507,-0.2492,-0.2461,-0.2439,-0.2421,0.0,0.0,0.0,0.0,0.0,0.0,0.0,0.0,0.0,0.0,0.4346,0.463,0.5008,0.5463,0.5779,0.5893,0.6203,0.6545,0.691,0.7464,0.7899,0.8171,0.8611,0.8883,0.8948,0.915,0.9275,0.9302,0.9302,0.9302,0.9302,0.9302,0.9302,0.9157,0.8874,0.8584,0.844,0.815,0.757,0.7127,0.7395,0.6626,0.5554,0.5667,0.5002,0.411,0.4123,0.3761,0.3298,0.3712,0.3675,0.3664,0.4139,0.3872,0.3371,0.3374,0.241,0.1135,0.0232,0.0,-0.0118,-0.0488,-0.0995,-0.1517,-0.1931,-0.2102,-0.2143,-0.2173,-0.2204,-0.2232,-0.2253,-0.2282,-0.2309,-0.233,-0.2358,-0.2386,-0.2408,-0.241,-0.241,-0.241,-0.2405,-0.2399,-0.2399,-0.2442,-0.2469,-0.2469,-0.2497,-0.2514,-0.2514,-0.2514,-0.2514,-0.2514,-0.2514,-0.2514,-0.2514,-0.2357,-0.22,-0.22,-0.22,-0.2357,-0.2514,-0.2514,-0.2514,-0.2514,-0.2514,-0.2514,-0.2514,-0.2514,-0.2514,-0.2514,-0.2514,-0.2514,-0.2511,-0.2489,-0.2467,-0.2447,0.0,0.0,0.0,0.0,0.0,0.0,0.0,0.0,0.0,0.0,0.0,0.438,0.491,0.5463,0.5779,0.5893,0.6132,0.6426,0.6785,0.7258,0.7687,0.8046,0.8405,0.8709,0.8948,0.9073,0.9193,0.9302,0.9302,0.9302,0.9302,0.9302,0.9157,0.8729,0.8729,0.8295,0.7566,0.7566,0.6986,0.5967,0.6757,0.6147,0.4695,0.4652,0.4637,0.4508,0.2872,0.1834,0.1322,0.256,0.2961,0.3038,0.3715,0.3939,0.36,0.236,0.1136,0.0,0.0,0.0,-0.0,-0.0,-0.0,-0.0398,-0.1771,-0.2196,-0.2206,-0.2236,-0.2267,-0.2289,-0.2289,-0.2312,-0.2331,-0.2333,-0.2358,-0.2379,-0.2379,-0.2379,-0.2379,-0.2379,-0.2356,-0.2339,-0.2339,-0.2417,-0.2469,-0.2469,-0.2497,-0.2514,-0.2514,-0.2514,-0.2514,-0.2514,-0.2514,-0.2514,-0.2514,-0.1728,-0.1414,-0.1414,-0.1414,-0.1728,-0.2514,-0.2514,-0.2514,-0.2514,-0.2514,-0.2514,-0.2514,-0.2514,-0.2514,-0.2514,-0.2514,-0.2514,-0.2514,-0.2514,-0.2512,-0.2507,0.0,0.0,0.0,0.0,0.0,0.0,0.0,0.0,0.0,0.0,0.0,0.0,0.0,0.0,0.0,0.0,0.6007,0.6263,0.654,0.7008,0.7437,0.7807,0.816,0.8465,0.8704,0.8829,0.8948,0.9068,0.915,0.9045,0.876,0.8837,0.8729,0.8295,0.786,0.7425,0.7127,0.635,0.561,0.5024,0.534,0.471,0.3696,0.4333,0.3931,0.295,0.0,0.1387,0.0458,0.1328,0.1538,0.1655,0.2317,0.2557,0.2361,0.1023,0.0346,0.0,0.0,0.0,0.0,0.0,0.0,-0.0136,-0.0555,-0.1123,-0.1551,-0.2108,-0.227,-0.2285,-0.2264,-0.2285,-0.2311,-0.2331,-0.1916,-0.1635,-0.1635,-0.1635,-0.163,-0.1617,-0.1609,-0.1752,-0.2191,-0.1948,0.0,-0.1676,-0.1709,-0.1728,-0.1728,-0.1728,-0.1728,-0.1728,-0.1728,-0.1886,-0.2514,-0.22,-0.1571,-0.0471,-0.0471,-0.0942,-0.1728,-0.1728,-0.2043,-0.2514,-0.2514,-0.2514,-0.2514,-0.2514,-0.2514,-0.2514,-0.2514,-0.2514,-0.2514,-0.2514,-0.2514,-0.2512,0.0,0.0,0.0,0.0,0.0,0.0,0.0,0.0,0.0,0.0,0.0,0.0,0.0,0.0,0.0,0.0,0.0,0.61,0.6301,0.6719,0.7105,0.7432,0.7747,0.7921,0.8199,0.828,0.8286,0.835,0.8428,0.8362,0.8159,0.8232,0.8002,0.7607,0.6892,0.6463,0.6316,0.5244,0.4499,0.4187,0.4213,0.3457,0.2473,0.4133,0.363,0.0,0.1557,0.0764,0.0109,0.0426,0.0532,0.0644,0.1074,0.1205,0.1128,0.0232,0.0,0.0,0.0,0.0,0.0,0.0,0.0,0.0,0.0,-0.0427,-0.0855,-0.1266,-0.1689,-0.1973,-0.1966,-0.1838,-0.1999,-0.2315,-0.1904,-0.1477,-0.0886,-0.0886,-0.0884,-0.073,-0.1026,-0.147,-0.2205,-0.1804,0.0,-0.0758,-0.0775,-0.0785,-0.0785,-0.0785,-0.0785,-0.0785,-0.0785,-0.1099,-0.1571,-0.1571,-0.1099,0.0,0.0,-0.0314,-0.0785,-0.0785,-0.1099,-0.1571,-0.1886,-0.2043,-0.2043,-0.2357,-0.2514,-0.2514,-0.2514,-0.2514,-0.2514,-0.2514,-0.2514,-0.2514,0.0,0.0,0.0,0.0,0.0,0.0,0.0,0.0,0.0,0.0,0.0,0.0,0.0,0.0,0.0,0.0,0.0,0.0,0.6067,0.6399,0.6703,0.6948,0.7176,0.7232,0.7337,0.7347,0.7386,0.7452,0.7461,0.7436,0.7491,0.7233,0.6876,0.6684,0.5855,0.5438,0.5014,0.4123,0.3661,0.3337,0.3375,0.2523,0.147,0.3685,0.3452,0.1886,0.0528,0.0,0.0,0.0,0.0,0.0,0.0,0.0,0.0,0.0,0.0,0.0,0.0,0.0,0.0,0.0,0.0,0.0,0.0,0.0,0.0,0.0,-0.0554,-0.1102,-0.1115,-0.1119,-0.1406,-0.2138,-0.2169,-0.1605,-0.0146,0.0,0.0,0.0,-0.0738,-0.134,-0.2085,-0.2131,0.0,-0.0152,0.0,0.0,0.0,0.0,0.0,0.0,0.0,0.0,0.0,0.0,0.0,0.0,0.0,0.0,0.0,0.0,0.0,-0.0,-0.0942,-0.1256,-0.1256,-0.2043,-0.2357,-0.2514,-0.2514,-0.2514,-0.2514,-0.2514,-0.2514,-0.2514,0.0,0.0,0.0,0.0,0.0,0.0,0.0,0.0,0.0,0.0,0.0,0.0,0.0,0.0,0.0,0.0,0.0,0.0,0.5942,0.6121,0.623,0.6369,0.6516,0.6501,0.6308,0.6275,0.6276,0.5949,0.6094,0.5937,0.5481,0.5481,0.5293,0.493,0.4458,0.4191,0.4015,0.332,0.2894,0.2847,0.2523,0.2227,0.1835,0.1442,0.0965,0.0517,0.0101,0.0,0.0,0.0,0.0,0.0,0.0,0.0,0.0,0.0,0.0,0.0,0.0,0.0,0.0,0.0,0.0,0.0,0.0,0.0,0.0,0.0,-0.0136,-0.0269,-0.0265,-0.0268,-0.041,-0.0554,-0.0567,-0.0433,-0.0,0.0,0.0,0.0,-0.0148,-0.0448,-0.0602,-0.0612,-0.0462,0.0,0.0,0.0,0.0,0.0,0.0,0.0,0.0,0.0,0.0,0.0,0.0,0.0,0.0,0.0,0.0,0.0,0.0,-0.0,-0.0157,-0.0314,-0.0314,-0.0628,-0.0942,-0.1728,-0.22,-0.2514,-0.2514,-0.2514,-0.2514,-0.2514,0.0,0.0,0.0,0.0,0.0,0.0,0.0,0.0,0.0,0.0,0.0,0.0,0.0,0.0,0.0,0.0,0.0,0.0,0.0,0.5844,0.5973,0.5914,0.6028,0.577,0.5209,0.5584,0.5469,0.4833,0.4815,0.4555,0.4274,0.4353,0.4288,0.4202,0.3754,0.351,0.3477,0.2596,0.2554,0.0,0.0,0.2062,0.1905,0.0519,0.0,0.0,0.0,0.0,0.0,0.0,0.0,0.0,0.0,0.0,0.0,0.0,0.0,0.0,0.0,0.0,0.0,0.0,0.0,0.0,0.0,0.0,0.0,0.0,0.0,0.0,0.0,0.0,0.0,0.0,0.0,0.0,0.0,0.0,0.0,0.0,0.0,0.0,0.0,0.0,0.0,0.0,0.0,0.0,0.0,0.0,0.0,0.0,0.0,0.0,0.0,0.0,0.0,0.0,0.0,0.0,0.0,0.0,0.0,0.0,0.0,0.0,0.0,0.0,-0.0314,-0.0785,-0.1256,-0.1571,-0.2043,-0.2357,-0.2514,-0.2514,0.0,0.0,0.0,0.0,0.0,0.0,0.0,0.0,0.0,0.0,0.0,0.0,0.0,0.0,0.0,0.0,0.0,0.0,0.0,0.0,0.57,0.5517,0.5516,0.5138,0.4264,0.4865,0.4753,0.3885,0.3483,0.3335,0.3439,0.3447,0.3477,0.3639,0.3098,0.2766,0.2758,0.2062,0.2133,0.2719,0.217,0.181,0.1457,0.0,0.0,0.0,0.0,0.0,0.0,0.0,0.0,0.0,0.0,0.0,0.0,0.0,0.0,0.0,0.0,0.0,0.0,0.0,0.0,0.0,0.0,0.0,0.0,0.0,0.0,0.0,0.0,0.0,0.0,0.0,0.0,0.0,0.0,0.0,0.0,0.0,0.0,0.0,0.0,0.0,0.0,0.0,0.0,0.0,0.0,0.0,0.0,0.0,0.0,0.0,0.0,0.0,0.0,0.0,0.0,0.0,0.0,0.0,0.0,0.0,0.0,0.0,0.0,0.0,0.0,0.0,0.0,-0.0471,-0.1256,-0.1886,-0.22,-0.2357,0.0,0.0,0.0,0.0,0.0,0.0,0.0,0.0,0.0,0.0,0.0,0.0,0.0,0.0,0.0,0.0,0.0,0.0,0.0,0.0,0.0,0.5126,0.497,0.4443,0.3461,0.3708,0.3377,0.2362,0.2112,0.1748,0.1272,0.1292,0.1304,0.1409,0.1329,0.1327,0.1308,0.1103,0.1374,0.1807,0.1734,0.1136,0.0274,0.0093,0.0,0.0,0.0,0.0,0.0,0.0,0.0,0.0,0.0,0.0,0.0,0.0,0.0,0.0,0.0,0.0,0.0,0.0,0.0,0.0,0.0,0.0,0.0,0.0,0.0,0.0,0.0,0.0,0.0,0.0,0.0,0.0,0.0,0.0,0.0,0.0,0.0,0.0,0.0,0.0,0.0,0.0,0.0,0.0,0.0,0.0,0.0,0.0,0.0,0.0,0.0,0.0,0.0,0.0,0.0,0.0,0.0,0.0,0.0,0.0,0.0,0.0,0.0,0.0,0.0,0.0,0.0,-0.0157,-0.0314,-0.0314,-0.0942,-0.1571,0.0,0.0,0.0,0.0,0.0,0.0,0.0,0.0,0.0,0.0,0.0,0.0,0.0,0.0,0.0,0.0,0.0,0.0,0.0,0.0,0.0,0.5008,0.4924,0.4389,0.3406,0.3258,0.2549,0.1366,0.0,0.0644,0.0364,0.0368,0.0367,0.0364,0.0459,0.0459,0.0455,0.0455,0.0539,0.0795,0.0803,0.0446,0.0,0.0,0.0,0.0,0.0,0.0,0.0,0.0,0.0,0.0,0.0,0.0,0.0,0.0,0.0,0.0,0.0,0.0,0.0,0.0,0.0,0.0,0.0,0.0,0.0,0.0,0.0,0.0,0.0,0.0,0.0,0.0,0.0,0.0,0.0,0.0,0.0,0.0,0.0,0.0,0.0,0.0,0.0,0.0,0.0,0.0,0.0,0.0,0.0,0.0,0.0,0.0,0.0,0.0,0.0,0.0,0.0,0.0,0.0,0.0,0.0,0.0,0.0,0.0,0.0,0.0,0.0,0.0,0.0,0.0,0.0,0.0,-0.032,-0.064,0.0,0.0,0.0,0.0,0.0,0.0,0.0,0.0,0.0,0.0,0.0,0.0,0.0,0.0,0.0,0.0,0.0,0.0,0.0,0.0,0.0,0.0,0.0,0.0,0.3561,0.0,0.0,0.0708,0.0267,0.0,0.0,0.0,0.0,0.0,0.0,0.0,0.0,0.0,0.0,0.0,0.0,0.0,0.0,0.0,0.0,0.0,0.0,0.0,0.0,0.0,0.0,0.0,0.0,0.0,0.0,0.0,0.0,0.0,0.0,0.0,0.0,0.0,0.0,0.0,0.0,0.0,0.0,0.0,0.0,0.0,0.0,0.0,0.0,0.0,0.0,0.0,0.0,0.0,0.0,0.0,0.0,0.0,0.0,0.0,0.0,0.0,0.0,0.0,0.0,0.0,0.0,0.0,0.0,0.0,0.0,0.0,0.0,0.0,0.0,0.0,0.0,0.0,0.0,0.0,0.0,0.0,0.0,0.0,0.0,0.0,0.0,0.0,0.0,0.0,0.0,-0.0163,0.0,0.0,0.0,0.0,0.0,0.0,0.0,0.0,0.0,0.0,0.0,0.0,0.0,0.0,0.0,0.0,0.0,0.0,0.0,0.0,0.0,0.0,0.0,0.0,0.0,0.0,0.0,0.0845,0.0259,0.0,0.0,0.0,0.0,0.0,0.0,0.0,0.0,0.0,0.0,0.0,0.0,0.0,0.0,0.0,0.0,0.0,0.0,0.0,0.0,0.0,0.0,0.0,0.0,0.0,0.0,0.0,0.0,0.0,0.0,0.0,0.0,0.0,0.0,0.0,0.0,0.0,0.0,0.0,0.0,0.0,0.0,0.0,0.0,0.0,0.0,0.0,0.0,0.0,0.0,0.0,0.0,0.0,0.0,0.0,0.0,0.0,0.0,0.0,0.0,0.0,0.0,0.0,0.0,0.0,0.0,0.0,0.0,0.0,0.0,0.0,0.0,0.0,0.0,0.0,0.0,0.0,0.0,0.0,0.0,0.0,0.0,0.0,0.0,0.0,0.0,-0.0,0.0,0.0,0.0,0.0,0.0,0.0,0.0,0.0,0.0,0.0,0.0,0.0,0.0,0.0,0.0,0.0,0.0,0.0,0.0,0.0,0.0,0.0,0.0,0.0,0.0,0.0,0.2717,0.2018,0.1441,0.0,0.0,0.0,0.0,0.0,0.0,0.0,0.0,0.0,0.0,0.0,0.0,0.0,0.0,0.0,0.0,0.0,0.0,0.0,0.0,0.0,0.0,0.0,0.0,0.0,0.0,0.0,0.0,0.0,0.0,0.0,0.0,0.0,0.0,0.0,0.0,0.0,0.0,0.0,0.0,0.0,0.0,0.0,0.0,0.0,0.0,0.0,0.0,0.0,0.0,0.0,0.0,0.0,0.0,0.0,0.0,0.0,0.0,0.0,0.0,0.0,0.0,0.0,0.0,0.0,0.0,0.0,0.0,0.0,0.0,0.0,0.0,0.0,0.0,0.0,0.0,0.0,0.0,0.0,0.0,0.0,0.0,0.0,0.0,0.0,0.0,0.0,0.0,0.0,0.0,0.0,0.0,0.0,0.0,0.0,0.0,0.0,0.0,0.0,0.0,0.0,0.0,0.0,0.0,0.0,0.0,0.0,0.0,0.0,0.0,0.0,0.0,0.0,0.3071,0.2805,0.2323,0.1728,0.0,0.0,0.024,0.0,0.0,0.0,0.0,0.0,0.0,0.0,0.0,0.0,0.0,0.0,0.0,0.0,0.0,0.0,0.0,0.0,0.0,0.0,0.0,0.0,0.0,0.0,0.0,0.0,0.0,0.0,0.0,0.0,0.0,0.0,0.0,0.0,0.0,0.0,0.0,0.0,0.0,0.0,0.0,0.0,0.0,0.0,0.0,0.0,0.0,0.0,0.0,0.0,0.0,0.0,0.0,0.0,0.0,0.0,0.0,0.0,0.0,0.0,0.0,0.0,0.0,0.0,0.0,0.0,0.0,0.0,0.0,0.0,0.0,0.0,0.0,0.0,0.0,0.0,0.0,0.0,0.0,0.0,0.0,0.0,0.0,0.0,0.0,0.0,0.0,0.0,0.0,0.0,0.0,0.0,0.0,0.0,0.0,0.0,0.0,0.0,0.0,0.0,0.0,0.0,0.0,0.0,0.0,0.0,0.0,0.0,0.0,0.0,0.3294,0.2829,0.2653,0.2251,0.1651,0.1415,0.0864,0.0,0.0,0.0,0.0,0.0,0.0,0.0,0.0,0.0,0.0,0.0,0.0,0.0,0.0,0.0,0.0,0.0,0.0,0.0,0.0,0.0,0.0,0.0,0.0,0.0,0.0,0.0,0.0,0.0,0.0,0.0,0.0,0.0,0.0,0.0,0.0,0.0,0.0,0.0,0.0,0.0,0.0,0.0,0.0,0.0,0.0,0.0,0.0,0.0,0.0,0.0,0.0,0.0,0.0,0.0,0.0,0.0,0.0,0.0,0.0,0.0,0.0,0.0,0.0,0.0,0.0,0.0,0.0,0.0,0.0,0.0,0.0,0.0,0.0,0.0,0.0,0.0,0.0,0.0,0.0,0.0,0.0,0.0,0.0,0.0,0.0,0.0,0.0,0.0,0.0,0.0,0.0,0.0,0.0,0.0,0.0,0.0,0.0,0.0,0.0,0.0,0.0,0.0,0.0,0.0,0.0,0.0,0.0,0.0,0.0,0.3292,0.2923,0.2529,0.204,0.1806,0.1257,0.0393,0.0157,0.0,0.0,0.0,0.0,0.0,0.0,0.0,0.0,0.0,0.0,0.0,0.0,0.0,0.0,0.0,0.0,0.0,0.0,0.0,0.0,0.0,0.0,0.0,0.0,0.0,0.0,0.0,0.0,0.0,0.0,0.0,0.0,0.0,0.0,0.0,0.0,0.0,0.0,0.0,0.0,0.0,0.0,0.0,0.0,0.0,0.0,0.0,0.0,0.0,0.0,0.0,0.0,0.0,0.0,0.0,0.0,0.0,0.0,0.0,0.0,0.0,0.0,0.0,0.0,0.0,0.0,0.0,0.0,0.0,0.0,0.0,0.0,0.0,0.0,0.0,0.0,0.0,0.0,0.0,0.0,0.0,0.0,0.0,0.0,0.0,0.0,0.0,0.0,0.0,0.0,0.0,0.0,0.0,0.0,0.0,0.0,0.0,0.0,0.0,0.0,0.0,0.0,0.0,0.0,0.0,0.0,0.0,0.0,0.3604,0.3139,0.2747,0.2431,0.2042,0.1414,0.0629,0.0393,0.0157,0.0,0.0,0.0,0.0,0.0,0.0,0.0,0.0,0.0,0.0,0.0,0.0,0.0,0.0,0.0,0.0,0.0,0.0,0.0,0.0,0.0,0.0,0.0,0.0,0.0,0.0,0.0,0.0,0.0,0.0,0.0,0.0,0.0,0.0,0.0,0.0,0.0,0.0,0.0,0.0,0.0,0.0,0.0,0.0,0.0,0.0,0.0,0.0,0.0,0.0,0.0,0.0,0.0,0.0,0.0,0.0,0.0,0.0,0.0,0.0,0.0,0.0,0.0,0.0,0.0,0.0,0.0,0.0,0.0,0.0,0.0,0.0,0.0,0.0,0.0,0.0,0.0,0.0,0.0,0.0,0.0,0.0,0.0,0.0,0.0,0.0,0.0,0.0,0.0,0.0,0.0,0.0,0.0,0.0,0.0,0.0,0.0,0.0,0.0,0.0,0.0,0.0,0.0,0.0,0.0,0.3765,0.3765,0.3765,0.3295,0.2982,0.2747,0.212,0.1414,0.0864,0.0707,0.0471,0.0,0.0,0.0,0.0,0.0,0.0,0.0,0.0,0.0,0.0,0.0,0.0,0.0,0.0,0.0,0.0,0.0,0.0,0.0,0.0,0.0,0.0,0.0,0.0,0.0,0.0,0.0,0.0,0.0,0.0,0.0,0.0,0.0,0.0,0.0,0.0,0.0,0.0,0.0,0.0,0.0,0.0,0.0,0.0,0.0,0.0,0.0,0.0,0.0,0.0,0.0,0.0,0.0,0.0,0.0,0.0,0.0,0.0,0.0,0.0,0.0,0.0,0.0,0.0,0.0,0.0,0.0,0.0,0.0,0.0,0.0,0.0,0.0,0.0,0.0,0.0,0.0,0.0,0.0,0.0,0.0,0.0,0.0,0.0,0.0,0.0,0.0,0.0,0.0,0.0,0.0,0.0,0.0,0.0,0.0,0.0,0.0,0.0,0.0,0.0,0.0,0.0,0.0,0.0,0.0,0.3765,0.3765,0.3765,0.3295,0.2982,0.2826,0.2434,0.2042,0.1492,0.1571,0.0,0.0,0.0,0.0,0.0,0.0,0.0,0.0,0.0,0.0,0.0,0.0,0.0,0.0,0.0,0.0,0.0,0.0,0.0,0.0,0.0,0.0,0.0,0.0,0.0,0.0,0.0,0.0,0.0,0.0,0.0,0.0,0.0,0.0,0.0,0.0,0.0,0.0,0.0,0.0,0.0,0.0,0.0,0.0,0.0,0.0,0.0,0.0,0.0,0.0,0.0,0.0,0.0,0.0,0.0,0.0,0.0,0.0,0.0,0.0,0.0,0.0,0.0,0.0,0.0,0.0,0.0,0.0,0.0,0.0,0.0,0.0,0.0,0.0,0.0,0.0,0.0,0.0,0.0,0.0,0.0,0.0,0.0,0.0,0.0,0.0,0.0,0.0,0.0,0.0,0.0,0.0,0.0,0.0,0.0,0.0,0.0,0.0,0.0,0.0,0.0,0.0,0.0,0.0,0.0,0.0,0.3765,0.3765,0.3765,0.3452,0.3214,0.3136,0.2901,0.2588,0.2353,0.2199,0.0,0.0,0.0,0.0,0.0236,0.0079,0.0,0.0,0.0,0.0,0.0,0.0,0.0,0.0,0.0,0.0,0.0,0.0,0.0,0.0,0.0,0.0,0.0,0.0,0.0,0.0,0.0,0.0,0.0,0.0,0.0,0.0,0.0,0.0,0.0,0.0,0.0,0.0,0.0,0.0,0.0,0.0,0.0,0.0,0.0,0.0,0.0,0.0,0.0,0.0,0.0,0.0,0.0,0.0,0.0,0.0,0.0,0.0,0.0,0.0,0.0,0.0,0.0,0.0,0.0,0.0,0.0,0.0,0.0,0.0,0.0,0.0,0.0,0.0,0.0,0.0,0.0,0.0,0.0,0.0,0.0,0.0,0.0,0.0,0.0,0.0,0.0,0.0,0.0,0.0,0.0,0.0,0.0,0.0,0.0,0.0,0.0,0.0,0.0,0.0,0.0,0.0,0.0,0.0,0.3765,0.3765,0.3765,0.3765,0.3765,0.3604,0.3526,0.3526,0.3288,0.3132,0.321,0.2744,0.0,0.0,0.0,0.0,0.0786,0.0393,0.0,0.0,0.0,0.0,0.0,0.0,0.0,0.0,0.0,0.0,0.0,0.0,0.0,0.0,0.0,0.0,0.0,0.0,0.0,0.0,0.0,0.0,0.0,0.0207,0.0307,0.0205,0.0,0.0,0.0,0.0,0.0,0.0,0.0,0.0,0.0,0.0,0.0,0.0,0.0,0.0,0.0,0.0,0.0,0.0,0.0,0.0,0.0,0.0,0.0,0.0,0.0,0.0,0.0,0.0,0.0,0.0,0.0,0.0,0.0,0.0,0.0,0.0,0.0,0.0,0.0,0.0,0.0,0.0,0.0,0.0,0.0,0.0,0.0,0.0,0.0,0.0,0.0,0.0,0.0,0.0,0.0,0.0,0.0,0.0,0.0,0.0,0.0,0.0,0.0,0.0,0.0,0.0,0.0,0.0,0.0,0.0,0.0,0.3769,0.3765,0.3765,0.3765,0.3765,0.3765,0.3604,0.3526,0.3526,0.337,0.3448,0.3682,0.321,0.3057,0.0,0.0,0.0,0.1648,0.1257,0.0,0.0,0.0,0.0,0.0,0.0,0.0,0.0,0.0,0.0,0.0,0.0,0.0,0.0,0.0,0.0,0.0,0.0,0.0,0.0,0.0,0.0,0.0203,0.1116,0.1435,0.1249,0.0212,0.0,0.0,0.0,0.0,0.0,0.0,0.0,0.0,0.0,0.0,0.0,0.0,0.0,0.0,0.0,0.0,0.0,0.0,0.0,0.0,0.0,0.0,0.0,0.0,0.0,0.0,0.0,0.0,0.0,0.0,0.0,0.0,0.0,0.0,0.0,0.0,0.0,0.0,0.0,0.0,0.0,0.0,0.0,0.0,0.0,0.0,0.0,0.0,0.0,0.0,0.0,0.0,0.0,0.0,0.0,0.0,0.0,0.0,0.0,0.0,0.0,0.0,0.0,0.0,0.0,0.0,0.0,0.0,0.0,0.0,0.3765,0.3765,0.3765,0.3765,0.3765,0.3765,0.3682,0.3682,0.3682,0.3839,0.4073,0.4311,0.4073,0.3839,0.369,0.0,0.2979,0.2507,0.0,0.0,0.0,0.0,0.0,0.0,0.0,0.0,0.0,0.0,0.0,0.0,0.0,0.0,0.0,0.0,0.0,0.0,0.0,0.0,0.0,0.0,0.0513,0.1231,0.2463,0.2496,0.2012,0.1185,0.0438,0.0,0.0,0.0,0.0,0.0,0.0,0.0,0.0,0.0,0.0,0.0,0.0,0.0,0.0,0.0,0.0,0.0,0.0,0.0,0.0,0.0,0.0,0.0,0.0,0.0,0.0,0.0,0.0,0.0,0.0,0.0,0.0,0.0,0.0,0.0,0.0,0.0,0.0,0.0,0.0,0.0,0.0,0.0,0.0,0.0,0.0,0.0,0.0,0.0,0.0,0.0,0.0,0.0,0.0,0.0,0.0,0.0,0.0,0.0,0.0,0.0,0.0,0.0,0.0,0.0,0.0,0.0,0.3838,0.3765,0.3765,0.3765,0.3765,0.3765,0.3765,0.3765,0.3765,0.3843,0.3921,0.4229,0.454,0.4779,0.4701,0.4545,0.4233,0.3999,0.3682,0.321,0.0,0.0,0.0,0.0,0.0,0.0,0.0,0.0,0.0,0.0,0.0,0.0,0.0,0.0,0.0,0.0,0.0,0.0,0.0,0.0197,0.0406,0.0413,0.135,0.25,0.347,0.3305,0.2709,0.2205,0.122,0.0338,0.0,0.0,0.0,0.0,0.0,0.0,0.0,0.0,0.0,0.0,0.0,0.0,0.0,0.0,0.0,0.0,0.0,0.0,0.0,0.0,0.0,0.0,0.0,0.0,0.0,0.0,0.0,0.0,0.0,0.0,0.0,0.0,0.0,0.0,0.0,0.0,0.0,0.0,0.0,0.0,0.0,0.0,0.0,0.0,0.0,0.0,0.0,0.0,0.0,0.0,0.0,0.0,0.0,0.0,0.0,0.0,0.0,0.0,0.0,0.0,0.0,0.0,0.0,0.0,0.0,0.0,0.3769,0.3765,0.3765,0.3765,0.3765,0.3765,0.3765,0.3765,0.3765,0.3995,0.4384,0.4384,0.4618,0.494,0.4779,0.4701,0.4623,0.4462,0.4151,0.3761,0.3448,0.0,0.0,0.0,0.0,0.0,0.0,0.0,0.0,0.0,0.0,0.0,0.0,0.0,0.0,0.0,0.0,0.0,0.0,0.0696,0.1522,0.1655,0.2598,0.3566,0.3793,0.3755,0.3591,0.3082,0.2317,0.1413,0.024,0.0,0.0,0.0,0.0,0.0,0.0,0.0,0.0,0.0,0.0,0.0,0.0,0.0,0.0,0.0,0.0,0.0,0.0,0.0,0.0,0.0,0.0,0.0,0.0,0.0,0.0,0.0,0.0,0.0,0.0,0.0,0.0,0.0,0.0,0.0,0.0,0.0,0.0,0.0,0.0,0.0,0.0,0.0,0.0,0.0,0.0,0.0,0.0,0.0,0.0,0.0,0.0,0.0,0.0,0.0,0.0,0.0,0.0,0.0,0.0,0.0,0.0,0.0,0.0,0.0,0.3765,0.3765,0.3765,0.3765,0.3765,0.3765,0.3765,0.3765,0.3921,0.4155,0.4384,0.454,0.4701,0.5018,0.494,0.4857,0.4857,0.4779,0.4623,0.4316,0.406,0.3676,0.0,0.0,0.0,0.0,0.0,0.0,0.0,0.0,0.0986,0.0359,0.009,0.0,0.0,0.0,0.0469,0.1149,0.1857,0.1908,0.1857,0.2206,0.3005,0.3731,0.3818,0.3917,0.39,0.3759,0.3182,0.2099,0.0377,0.0,0.0,0.0,0.0,0.0,0.0,0.0,0.0,0.0,0.0,0.0,0.0,0.0,0.0,0.0,0.0,0.0,0.0,0.0,0.0,0.0,0.0,0.0,0.0,0.0,0.0,0.0,0.0,0.0,0.0,0.0,0.0,0.0,0.0,0.0,0.0,0.0,0.0,0.0,0.0,0.0,0.0,0.0,0.0,0.0,0.0,0.0,0.0,0.0,0.0,0.0,0.0,0.0,0.0,0.0,0.0,0.0,0.0,0.0,0.0,0.0,0.0,0.0,0.0,0.3765,0.3765,0.3765,0.3765,0.3765,0.3765,0.3765,0.3765,0.3765,0.3999,0.4233,0.4384,0.4618,0.4779,0.5018,0.5018,0.5018,0.5018,0.5018,0.4857,0.4711,0.4499,0.4276,0.0,0.0,0.0,0.0,0.0,0.0,0.0,0.0,0.1346,0.0808,0.018,0.0,0.0091,0.0372,0.1232,0.2324,0.3081,0.2852,0.2402,0.3012,0.3529,0.3963,0.4229,0.4334,0.4315,0.4446,0.3722,0.2712,0.0914,0.027,0.0,0.0,0.0,0.0,0.0,0.0,0.0,0.0,0.0,0.0,0.0,0.0,0.0,0.0,0.0,0.0,0.0,0.0,0.0,0.0,0.0,0.0,0.0,0.0,0.0,0.0,0.0,0.0,0.0,0.0,0.0,0.0,0.0,0.0,0.0,0.0,0.0,0.0,0.0,0.0,0.0,0.0,0.0,0.0,0.0,0.0,0.0,0.0,0.0,0.0,0.0,0.0,0.0,0.0,0.0,0.0,0.0,0.0,0.0,0.0,0.0,0.0,0.0,0.3765,0.3765,0.3765,0.3765,0.3765,0.3765,0.3765,0.3765,0.3765,0.3999,0.4233,0.4384,0.4623,0.4779,0.5018,0.5018,0.5018,0.5018,0.5018,0.4857,0.4711,0.4828,0.469,0.429,0.0,0.0,0.0,0.0,0.0,0.0,0.0,0.1794,0.1256,0.0269,0.0,0.0186,0.1328,0.2322,0.3273,0.3497,0.3428,0.3578,0.4212,0.4267,0.4357,0.5081,0.5168,0.5086,0.524,0.4134,0.283,0.2155,0.0965,0.0,0.0,0.0,0.0,0.0,0.0,0.0,0.0,0.0,0.0,0.0,0.0,0.0,0.0,0.0,0.0,0.0,0.0,0.0,0.0,0.0,0.0,0.0,0.0,0.0,0.0,0.0,0.0,0.0,0.0,0.0,0.0,0.0,0.0,0.0,0.0,0.0,0.0,0.0,0.0,0.0,0.0,0.0,0.0,0.0,0.0,0.0,0.0,0.0,0.0,0.0,0.0,0.0,0.0,0.0,0.0,0.0,0.0,0.0,0.0,0.0,0.0,0.0,0.3765,0.3765,0.3765,0.3765,0.3765,0.3765,0.3765,0.3765,0.3765,0.4151,0.4307,0.4384,0.4779,0.494,0.5018,0.5018,0.5018,0.5018,0.5018,0.494,0.4878,0.4915,0.4841,0.4555,0.0,0.0,0.0,0.0,0.0,0.0,0.0,0.0,0.0,0.0639,0.0829,0.1304,0.1927,0.2761,0.3525,0.4435,0.4479,0.4412,0.5096,0.5148,0.5233,0.5906,0.5587,0.5142,0.4842,0.3643,0.2523,0.2222,0.0984,0.0,0.0,0.0,0.0,0.0,0.0,0.0,0.0,0.0,0.0,0.0,0.0,0.0,0.0,0.0,0.0,0.0,0.0,0.0,0.0,0.0,0.0,0.0,0.0,0.0,0.0,0.0,0.0,0.0,0.0,0.0,0.0,0.0,0.0,0.0,0.0,0.0,0.0,0.0,0.0,0.0,0.0,0.0,0.0,0.0,0.0,0.0,0.0,0.0,0.0,0.0,0.0,0.0,0.0,0.3977,0.4022,0.0,0.0,0.0,0.0,0.0,0.0,0.0,0.0,0.3765,0.3765,0.3765,0.3765,0.3765,0.3765,0.3843,0.3921,0.4229,0.4462,0.454,0.4857,0.5018,0.5018,0.5018,0.5018,0.5018,0.5018,0.5018,0.504,0.5115,0.5037,0.4811,0.0,0.0,0.0,0.0,0.0,0.0,0.0,0.0,0.0,0.1745,0.1964,0.2483,0.2976,0.3558,0.4254,0.4892,0.5037,0.5302,0.5925,0.6005,0.5878,0.5818,0.5672,0.5364,0.4834,0.3879,0.2871,0.1559,0.0572,0.0,0.0,0.0,0.0,0.0,0.0,0.0,0.0,0.0,0.0,0.0,0.0,0.0,0.0,0.0,0.0,0.0,0.0,0.0,0.0,0.0,0.0,0.0,0.0,0.0,0.0,0.0,0.0,0.0,0.0,0.0,0.0,0.0,0.0,0.0,0.0,0.0,0.0,0.0,0.0,0.0,0.0,0.0,0.0,0.0,0.0,0.0,0.0,0.0,0.0,0.0,0.0,0.0,0.0,0.3961,0.3981,0.0,0.0,0.0,0.0,0.0,0.0,0.0,0.0,0.3765,0.3765,0.3765,0.3765,0.3765,0.3765,0.3921,0.4155,0.4307,0.454,0.4701,0.494,0.5018,0.5018,0.5018,0.5018,0.5018,0.5018,0.5023,0.505,0.5279,0.521,0.4994,0.5024,0.0,0.0,0.0,0.0,0.0,0.0,0.0,0.0,0.3129,0.3331,0.366,0.4109,0.4736,0.5268,0.523,0.5626,0.6157,0.6812,0.6752,0.6223,0.5024,0.5344,0.559,0.4732,0.4488,0.3635,0.0575,0.0,0.0,0.0,0.0,0.0,0.0,0.0,0.0,0.0,0.0,0.0,0.0,0.0,0.0,0.0,0.0,0.0,0.0,0.0,0.0,0.0,0.0,0.0,0.0,0.0,0.0,0.0,0.0,0.0,0.0,0.0,0.0,0.0,0.0,0.0,0.0,0.0,0.0,0.0,0.0,0.0,0.0,0.0,0.0,0.0,0.0,0.0,0.0,0.0,0.0,0.0,0.0,0.0,0.0,0.0,0.0,0.0,0.0,0.0,0.0,0.0,0.0,0.0,0.0,0.0,0.3765,0.3765,0.3765,0.3765,0.3765,0.3765,0.3995,0.4307,0.4384,0.454,0.4701,0.494,0.5018,0.5018,0.5018,0.5018,0.5018,0.5018,0.5067,0.5165,0.5311,0.5173,0.4841,0.4965,0.4474,0.0,0.0,0.0,0.0,0.0,0.0,0.0,0.3555,0.3943,0.4263,0.4798,0.5247,0.5796,0.6336,0.6744,0.7169,0.7664,0.7702,0.7,0.5353,0.4735,0.4064,0.3048,0.2766,0.2188,0.0291,0.0,0.0,0.0,0.0,0.0,0.0,0.0,0.0,0.0,0.0,0.0,0.0,0.0,0.0,0.0,0.0,0.0,0.0,0.0,0.0,0.0,0.0,0.0,0.0,0.0,0.0,0.0,0.0,0.0,0.0,0.0,0.0,0.0,0.0,0.0,0.0,0.0,0.0,0.0,0.0,0.0,0.0,0.0,0.0,0.0,0.0,0.0,0.0,0.0,0.0,0.0,0.0,0.0,0.0,0.0,0.0,0.0,0.0,0.0,0.0,0.0,0.0,0.0,0.0,0.0,0.0,0.3765,0.3765,0.3765,0.3765,0.3765,0.4021,0.4461,0.4461,0.4594,0.4857,0.494,0.5018,0.5018,0.5018,0.5018,0.5023,0.5072,0.5132,0.5203,0.5382,0.524,0.5043,0.5151,0.4746,0.4125,0.4125,0.0,0.0,0.0,0.0,0.0,0.0,0.0,0.5066,0.5501,0.5854,0.6165,0.6774,0.721,0.7554,0.7954,0.7828,0.7161,0.598,0.4907,0.3935,0.2624,0.1751,0.1022,0.0146,0.0,0.0,0.0,0.0,0.0,0.0,0.0,0.0,0.0,0.0,0.0,0.0,0.0,0.0,0.0,0.0,0.0,0.0,0.0,0.0,0.0,0.0,0.0,0.0,0.0,0.0,0.0,0.0,0.0,0.0,0.0,0.0,0.0,0.0,0.0,0.0,0.0,0.0,0.0,0.0,0.0,0.0,0.0,0.0,0.0,0.0,0.0,0.0,0.0,0.0,0.0,0.0,0.0,0.0,0.0,0.0,0.0,0.0,0.0,0.0,0.0,0.0,0.0,0.0,0.0,0.0,0.0,0.3765,0.3765,0.3765,0.3843,0.4121,0.4622,0.4642,0.4859,0.511,0.5089,0.5067,0.5045,0.5045,0.5045,0.505,0.5148,0.5208,0.5268,0.5469,0.5389,0.5241,0.5338,0.5102,0.475,0.475,0.4567,0.4478,0.475,0.0,0.0,0.0,0.0,0.5768,0.61,0.6438,0.6623,0.6985,0.7433,0.7809,0.8112,0.7707,0.731,0.6705,0.5777,0.4517,0.3061,0.1312,0.0,0.0,0.0,0.0,0.0,0.0,0.0,0.0,0.0,0.0,0.0,0.0,0.0,0.0,0.0,0.0,0.0,0.0,0.0,0.0,0.0,0.0,0.0,0.0,0.0,0.0,0.0,0.0,0.0,0.0,0.0,0.0,0.0,0.0,0.0,0.0,0.0,0.0,0.0,0.0,0.0,0.0,0.0,0.0,0.0,0.0,0.0,0.0,0.0,0.0,0.0,0.0,0.0,0.0,0.0,0.0,0.0,0.3765,0.3765,0.0,0.0,0.0,0.0,0.0,0.0,0.3765,0.0,0.0,0.3765,0.3765,0.3765,0.3765,0.3999,0.4205,0.4622,0.4879,0.5136,0.5395,0.5371,0.5262,0.5165,0.5165,0.5165,0.5165,0.5181,0.5306,0.5502,0.5454,0.5436,0.5349,0.5369,0.5191,0.4919,0.4919,0.4919,0.4919,0.5191,0.5285,0.0,0.0,0.0,0.6267,0.6738,0.6877,0.7084,0.7434,0.7915,0.8156,0.8376,0.8238,0.8033,0.7504,0.6829,0.5967,0.5096,0.233,0.0,0.0,0.0,0.0,0.0,0.0,0.0,0.0,0.0,0.0,0.0,0.0,0.0,0.0,0.0,0.0,0.0,0.0,0.0,0.0,0.0,0.0,0.0,0.0,0.0,0.0,0.0,0.0,0.0,0.0,0.0,0.0,0.0,0.0,0.0,0.0,0.0,0.0,0.0,0.0,0.0,0.0,0.0,0.0,0.0,0.0,0.0,0.0,0.0,0.0,0.0,0.0,0.0,0.0,0.0,0.0,0.0,0.0,0.3765,0.0,0.0,0.0,0.3765,0.3765,0.3765,0.3765,0.3765,0.3765,0.3765,0.3765,0.3765,0.3765,0.4051,0.4366,0.4632,0.5049,0.5452,0.5746,0.5692,0.5567,0.5388,0.5322,0.529,0.5295,0.536,0.5453,0.547,0.5627,0.5598,0.5557,0.5621,0.5642,0.5471,0.5624,0.565,0.565,0.5742,0.5834,0.5866,0.6132,0.0,0.0,0.0,0.6828,0.7002,0.7551,0.7964,0.8189,0.8397,0.8443,0.8298,0.8169,0.7526,0.6837,0.6112,0.466,0.2914,0.1021,0.0729,0.0584,0.0,0.0,0.0,0.0,0.0,0.0,0.0,0.0,0.0,0.0,0.0,0.0,0.0,0.0,0.0,0.0,0.0,0.0,0.0,0.0,0.0,0.0,0.0,0.0,0.0,0.0,0.0,0.0,0.0,0.0,0.0,0.0,0.0,0.0,0.0,0.0,0.0,0.0,0.0,0.0,0.0,0.0,0.0,0.0,0.0,0.0,0.0,0.0,0.0,0.0,0.0,0.0,0.0,0.0,0.0,0.0,0.0,0.0,0.0,0.3765,0.3765,0.3765,0.3765,0.3765,0.3765,0.3765,0.3843,0.3843,0.4143,0.4484,0.4782,0.5231,0.5578,0.5904,0.5904,0.5806,0.5632,0.548,0.5415,0.542,0.5513,0.548,0.5518,0.5697,0.5752,0.5784,0.5871,0.5942,0.6007,0.61,0.6132,0.6132,0.6132,0.6111,0.6105,0.623,0.6268,0.0,0.0,0.0,0.7002,0.7519,0.7894,0.8198,0.8437,0.8412,0.848,0.8588,0.8154,0.767,0.7094,0.668,0.5825,0.3203,0.2186,0.1458,0.0,0.0,0.0,0.0,0.0,0.0,0.0,0.0,0.0,0.0,0.0,0.0,0.0,0.0,0.0,0.0,0.0,0.0,0.0,0.0,0.0,0.0,0.0,0.0,0.0,0.0,0.0,0.0,0.0,0.0,0.0,0.0,0.0,0.0,0.0,0.0,0.0,0.0,0.0,0.0,0.0,0.0,0.0,0.0,0.0,0.0,0.0,0.0,0.0,0.0,0.0,0.0,0.0,0.0,0.0,0.0,0.3765,0.3765,0.3765,0.3765,0.3765,0.3765,0.3765,0.3765,0.3765,0.3765,0.0,0.4077,0.4316,0.4654,0.5116,0.5326,0.5676,0.5904,0.5904,0.5893,0.5877,0.5643,0.5454,0.5454,0.5459,0.5529,0.5725,0.573,0.5801,0.5893,0.5899,0.6045,0.6252,0.6257,0.6257,0.6257,0.6257,0.6181,0.6105,0.623,0.6268,0.6317,0.0,0.0,0.0,0.7459,0.7703,0.7948,0.8193,0.8432,0.8638,0.8764,0.8547,0.8424,0.8424,0.793,0.7421,0.6841,0.495,0.3059,0.0,0.0,0.0,0.0,0.0,0.0,0.0,0.0,0.0,0.0,0.0,0.0,0.0,0.0,0.0,0.0,0.0,0.0,0.0,0.0,0.0,0.0,0.0,0.0,0.0,0.0,0.0,0.0,0.0,0.0,0.0,0.0,0.0,0.0,0.0,0.0,0.0,0.0,0.0,0.0,0.0,0.0,0.0,0.0,0.0,0.0,0.0,0.0,0.0,0.0,0.0,0.0,0.0,0.0,0.0,0.0,0.3765,0.3765,0.3765,0.3765,0.3765,0.3765,0.3765,0.3765,0.3765,0.3921,0.3999,0.4077,0.4535,0.4879,0.5116,0.548,0.5746,0.5904,0.5904,0.5904,0.5893,0.5735,0.5708,0.5773,0.5773,0.5801,0.5844,0.5844,0.5866,0.592,0.6078,0.6236,0.6399,0.6556,0.6611,0.66,0.6518,0.6464,0.642,0.6388,0.6377,0.6426,0.6665,0.6883,0.71,0.7334,0.7578,0.7801,0.7964,0.8182,0.8394,0.8519,0.859,0.8618,0.8347,0.8159,0.7969,0.775,0.6224,0.466,0.3932,0.0,0.0,0.0,0.0,0.0,0.0,0.0,0.0,0.0,0.0,0.0,0.0,0.0,0.0,0.0,0.0,0.0,0.0,0.0,0.0,0.0,0.0,0.0,0.0,0.0,0.0,0.0,0.0,0.0,0.0,0.0,0.0,0.0,0.0,0.0,0.0,0.0,0.0,0.0,0.0,0.0,0.0,0.0,0.0,0.0,0.0,0.0,0.0,0.0,0.0,0.0,0.0,0.0,0.0,0.0,0.0,0.3765,0.3765,0.3765,0.3765,0.3765,0.3793,0.381,0.381,0.4077,0.4254,0.4334,0.4723,0.5064,0.5257,0.5507,0.573,0.5844,0.5844,0.5866,0.5899,0.5822,0.5833,0.5904,0.5947,0.5964,0.5964,0.5964,0.5991,0.6045,0.6246,0.6448,0.6649,0.685,0.0,0.0,0.0,0.0,0.666,0.6535,0.6469,0.6475,0.6681,0.6828,0.6964,0.7165,0.7394,0.7595,0.7671,0.7905,0.8133,0.8214,0.8448,0.8666,0.8433,0.8428,0.8573,0.8404,0.7504,0.6406,0.5386,0.0,0.0,0.0,0.0,0.0,0.0,0.0,0.0,0.0,0.0,0.0,0.0,0.0,0.0,0.0,0.0,0.0,0.0,0.0,0.0,0.0,0.0,0.0,0.0,0.0,0.0,0.0,0.0,0.0,0.0,0.0,0.0,0.0,0.0,0.0,0.0,0.0,0.0,0.0,0.0,0.0,0.0,0.0,0.0,0.0,0.0,0.0,0.0,0.0,0.0,0.0,0.0,0.0,0.0,0.0,0.0,0.0,0.3765,0.3765,0.3765,0.3769,0.385,0.3899,0.3903,0.4233,0.4532,0.4703,0.4949,0.5257,0.5464,0.5464,0.5529,0.5735,0.5735,0.5795,0.5904,0.5909,0.5915,0.592,0.604,0.6089,0.6089,0.6089,0.6165,0.6285,0.6399,0.6671,0.7008,0.7122,0.716,0.0,0.716,0.0,0.679,0.666,0.654,0.6464,0.6589,0.6709,0.6828,0.0,0.0,0.0,0.7334,0.76,0.7861,0.7867,0.8149,0.8443,0.8557,0.8769,0.8976,0.9101,0.8929,0.828,0.6684,0.6406,0.0,0.0,0.0,0.0,0.0,0.0,0.0,0.0,0.0,0.0,0.0,0.0,0.0,0.0,0.0,0.0,0.0,0.0,0.0,0.0,0.0,0.0,0.0,0.0,0.0,0.0,0.0,0.0,0.0,0.0,0.0,0.0,0.0,0.0,0.0,0.0,0.0,0.0,0.0,0.0,0.0,0.0,0.0,0.0,0.0,0.0,0.0,0.0,0.0,0.0,0.0,0.0,0.0,0.0,0.0,0.3765,0.3765,0.3765,0.3793,0.3859,0.4044,0.425,0.4238,0.468,0.4949,0.4949,0.5199,0.5341,0.5464,0.5464,0.5529,0.5735,0.5817,0.5871,0.5909,0.6089,0.6165,0.617,0.6203,0.6219,0.6219,0.6219,0.6285,0.6404,0.6524,0.679,0.7122,0.0,0.7345,0.7404,0.0,0.7182,0.7008,0.6714,0.6594,0.6594,0.6714,0.6774,0.6844,0.7051,0.0,0.0,0.0,0.0,0.0,0.7731,0.803,0.8296,0.8329,0.8524,0.8725,0.8851,0.8761,0.8531,0.7912,0.7478,0.0,0.0,0.0,0.0,0.0,0.0,0.0,0.0,0.0,0.0,0.0,0.0,0.0,0.0,0.0,0.0,0.0,0.0,0.0,0.0,0.0,0.0,0.0,0.0,0.0,0.0,0.0,0.0,0.0,0.0,0.0,0.0,0.0,0.0,0.0,0.0,0.0,0.0,0.0,0.0,0.0,0.0,0.0,0.0,0.0,0.0,0.0,0.0,0.0,0.0,0.0,0.0,0.0,0.0,0.0,0.0,0.3818,0.3818,0.3939,0.4112,0.4316,0.4448,0.4596,0.4979,0.5256,0.5256,0.5432,0.5556,0.5627,0.5627,0.5687,0.5806,0.5871,0.5958,0.6062,0.6203,0.6295,0.6339,0.6393,0.6415,0.6415,0.6415,0.6486,0.6605,0.6779,0.7002,0.0,0.0,0.0,0.7584,0.7513,0.7339,0.0,0.6855,0.6736,0.6709,0.6779,0.6839,0.691,0.7046,0.7116,0.7171,0.7241,0.0,0.0,0.7595,0.7861,0.8111,0.0,0.8421,0.8628,0.8747,0.8812,0.8729,0.8665,0.8364,0.7746,0.0,0.0,0.0,0.0,0.0,0.0,0.0,0.0464,0.0,0.0,0.0,0.0,0.0,0.0,0.0,0.0,0.0,0.0,0.0,0.0,0.0,0.0,0.0,0.0,0.0,0.0,0.0,0.0,0.0,0.0,0.0,0.0,0.0,0.0,0.0,0.0,0.0,0.0,0.0,0.0,0.0,0.0,0.0,0.0,0.0,0.0,0.0,0.0,0.0,0.0,0.0,0.0,0.0,0.0,0.0,0.0,0.3993,0.4117,0.4457,0.4547,0.0,0.0,0.523,0.5463,0.5463,0.5641,0.5735,0.5735,0.5746,0.5806,0.5904,0.5931,0.6062,0.6268,0.6279,0.6344,0.6442,0.6567,0.6632,0.666,0.666,0.6741,0.6883,0.7095,0.7258,0.7404,0.7622,0.7709,0.772,0.7703,0.7486,0.0,0.0,0.6931,0.6839,0.6828,0.6899,0.6986,0.7002,0.7078,0.7154,0.7154,0.7247,0.0,0.7491,0.7703,0.7937,0.0,0.8394,0.8584,0.8693,0.8812,0.8894,0.8894,0.8916,0.8418,0.0,0.0,0.0,0.0,0.0,0.0,0.2562,0.1222,0.0308,0.0154,0.0156,0.0157,0.0,0.0,0.0,0.0,0.0,0.0,0.0,0.0,0.0,0.0,0.0,0.0,0.0,0.0,0.0,0.0,0.0,0.0,0.0,0.0,0.0,0.0,0.0,0.0,0.0,0.0,0.0,0.0,0.0,0.0,0.0,0.0,0.0,0.0,0.0,0.0,0.0,0.0,0.0,0.0,0.0,0.0,0.0,0.0,0.4338,0.4462,0.4822,0.4932,0.0,0.0,0.5542,0.5641,0.5641,0.5646,0.5735,0.5735,0.5822,0.5882,0.5909,0.6105,0.6225,0.6274,0.6366,0.6415,0.6442,0.6567,0.6736,0.6915,0.6915,0.704,0.7236,0.7285,0.7437,0.7638,0.7687,0.7763,0.7823,0.7731,0.7655,0.754,0.0,0.0,0.0,0.6975,0.697,0.7008,0.7095,0.7138,0.7154,0.7154,0.7247,0.0,0.7491,0.7703,0.7915,0.8057,0.8204,0.8312,0.8334,0.8437,0.8524,0.8524,0.8682,0.8602,0.8242,0.0,0.0,0.0,0.0,0.0,0.372,0.2561,0.1678,0.1079,0.1092,0.0785,0.0,0.0,0.0,0.0,0.0,0.0,0.0,0.0,0.0,0.0,0.0,0.0,0.0,0.0,0.0,0.0,0.0,0.0,0.0,0.0,0.0,0.0,0.0,0.0,0.0,0.0,0.0,0.0,0.3843,0.3765,0.0,0.0,0.0,0.0,0.0,0.0,0.0,0.0,0.0,0.0,0.4197,0.4244,0.0,0.0,0.0,0.0,0.0,0.0,0.0,0.0,0.5786,0.5909,0.5909,0.5909,0.5909,0.5909,0.5964,0.6024,0.6089,0.6208,0.6295,0.6355,0.641,0.6469,0.6535,0.666,0.6883,0.7154,0.7095,0.7214,0.7432,0.7497,0.7627,0.7796,0.7856,0.7954,0.8035,0.7915,0.7877,0.0,0.7524,0.7388,0.7312,0.0,0.7116,0.7084,0.7138,0.7154,0.0,0.7154,0.0,0.0,0.0,0.766,0.7839,0.8019,0.8149,0.8236,0.8236,0.8285,0.8329,0.8329,0.8475,0.8655,0.856,0.8313,0.0,0.0,0.0,0.0,0.529,0.4461,0.3616,0.3053,0.2613,0.2318,0.1866,0.1089,0.0473,0.0,0.0,0.0,0.0,0.0,0.0,0.0,0.0,0.0,0.0,0.0,0.0,0.0,0.0,0.0,0.0,0.0,0.0,0.0,0.0,0.0,0.0,0.0,0.0,0.0,0.3925,0.3843,0.3843,0.0,0.0,0.0,0.0,0.0,0.0,0.4047,0.4139,0.4295,0.4588,0.477,0.4952,0.5309,0.0,0.0,0.0,0.0,0.0,0.5975,0.6045,0.6094,0.6121,0.61,0.6083,0.6083,0.6111,0.617,0.6268,0.629,0.635,0.6437,0.6464,0.6524,0.6632,0.6796,0.7051,0.7334,0.7279,0.7394,0.76,0.7698,0.7807,0.7921,0.8046,0.8149,0.822,0.8122,0.8089,0.8051,0.7839,0.7687,0.0,0.0,0.0,0.0,0.0,0.0,0.0,0.0,0.0,0.7241,0.0,0.0,0.0,0.7943,0.8079,0.8166,0.8166,0.0,0.0,0.0,0.0,0.0,0.0,0.8534,0.0,0.0,0.0,0.0,0.0,0.6037,0.5366,0.4973,0.4381,0.3955,0.4004,0.2622,0.141,0.0486,0.0163,0.0,0.0,0.0,0.0,0.0,0.0,0.0,0.0,0.0,0.0,0.0,0.0,0.0,0.0,0.0,0.0,0.0,0.0,0.0,0.0,0.0,0.0,0.0,0.4191,0.4077,0.3999,0.3843,0.0,0.0,0.0,0.0,0.4151,0.4586,0.4876,0.5189,0.5475,0.5489,0.5654,0.5965,0.0,0.0,0.6236,0.0,0.0,0.623,0.6138,0.6138,0.6246,0.6143,0.6083,0.6083,0.6192,0.6257,0.6274,0.6372,0.6426,0.6442,0.6551,0.6605,0.6638,0.6975,0.7198,0.7355,0.7557,0.7714,0.0,0.7845,0.7926,0.8051,0.8171,0.8225,0.8231,0.0,0.8214,0.8193,0.0,0.7932,0.7807,0.7693,0.0,0.0,0.0,0.0,0.0,0.0,0.7312,0.0,0.0,0.0,0.7578,0.7714,0.0,0.7915,0.7915,0.0,0.0,0.0,0.0,0.0,0.8274,0.8492,0.8633,0.8954,0.0,0.0,0.0,0.6917,0.6086,0.5796,0.5409,0.5018,0.4773,0.4162,0.3432,0.2239,0.0809,0.0,0.0,0.0,0.0,0.0,0.0,0.0,0.0,0.0,0.0,0.0,0.0,0.0,0.0,0.0,0.0,0.0,0.0,0.0,0.0,0.0,0.0,0.0,0.4589,0.4408,0.4408,0.4326,0.0,0.0,0.0,0.0,0.4738,0.4914,0.5213,0.5485,0.5766,0.5987,0.6236,0.6442,0.0,0.6529,0.0,0.0,0.6469,0.6469,0.6491,0.6491,0.6469,0.642,0.6361,0.629,0.6339,0.6366,0.6366,0.6415,0.6475,0.6545,0.6594,0.6736,0.6942,0.7089,0.7345,0.7655,0.7758,0.791,0.0,0.8002,0.8095,0.828,0.8399,0.8437,0.8437,0.0,0.8437,0.0,0.0,0.0,0.0,0.7856,0.0,0.0,0.0,0.0,0.0,0.0,0.0,0.0,0.7529,0.0,0.766,0.0,0.0,0.0,0.0,0.0,0.0,0.0,0.8051,0.0,0.0,0.0,0.8568,0.0,0.0,0.0,0.0,0.0,0.0,0.0,0.6677,0.647,0.6403,0.5594,0.4778,0.3948,0.2399,0.0975,0.0,0.0,0.0,0.0,0.0,0.0,0.0,0.0,0.0,0.0,0.0,0.0,0.0,0.0,0.0,0.0,0.0,0.0,0.0,0.0,0.0,0.0,0.5044,0.491,0.4787,0.4703,0.4727,0.0,0.0,0.0,0.0,0.5408,0.5771,0.6088,0.6246,0.65,0.0,0.6997,0.6997,0.6986,0.0,0.0,0.6817,0.0,0.0,0.0,0.0,0.6671,0.6594,0.6535,0.6502,0.6502,0.6535,0.6535,0.6584,0.6671,0.6703,0.6866,0.7116,0.7214,0.7475,0.7828,0.7894,0.8068,0.8274,0.8187,0.8263,0.8432,0.8546,0.859,0.859,0.859,0.859,0.0,0.8492,0.0,0.8253,0.0,0.0,0.0,0.7741,0.0,0.0,0.0,0.0,0.0,0.0,0.0,0.0,0.0,0.0,0.0,0.0,0.0,0.7872,0.7872,0.0,0.8002,0.0,0.8187,0.0,0.0,0.0,0.0,0.0,0.0,0.0,0.8114,0.7785,0.7746,0.7851,0.7005,0.6108,0.5459,0.3803,0.2258,0.0658,0.0165,0.0,0.0,0.0,0.0,0.0,0.0,0.0,0.0,0.0,0.0,0.0,0.0,0.0,0.0,0.0,0.0,0.0,0.0,0.0,0.0,0.563,0.5357,0.5032,0.4787,0.4789,0.4927,0.0,0.0,0.0,0.0,0.0,0.0,0.0,0.0,0.0,0.0,0.0,0.7448,0.7328,0.0,0.7312,0.0,0.0,0.7029,0.0,0.6796,0.6676,0.679,0.6671,0.6676,0.679,0.679,0.679,0.6801,0.6921,0.698,0.7013,0.7361,0.7584,0.7725,0.7959,0.8193,0.841,0.0,0.841,0.8432,0.8546,0.0,0.0,0.859,0.859,0.0,0.0,0.0,0.0,0.0,0.0,0.0,0.0,0.0,0.0,0.7888,0.0,0.0,0.0,0.0,0.7703,0.0,0.0,0.0,0.0,0.7872,0.7872,0.7872,0.7872,0.0,0.0,0.7986,0.0,0.0,0.0,0.0,0.0,0.0,0.0,0.8809,0.8635,0.8464,0.8724,0.8053,0.7452,0.6627,0.5046,0.3535,0.244,0.0823,0.0,0.0,0.0,0.0,0.0,0.0,0.0,0.0,0.0,0.0,0.0,0.0,0.0,0.0,0.0,0.0,0.0,0.0,0.0,0.0,0.5964,0.5899,0.5727,0.5557,0.5489,0.5684,0.0,0.6147,0.0,0.0,0.7089,0.0,0.0,0.7703,0.7872,0.0,0.0,0.7736,0.7693,0.7546,0.0,0.0,0.0,0.7279,0.0,0.0,0.6915,0.6801,0.6757,0.6763,0.6801,0.6801,0.6844,0.6926,0.697,0.7073,0.723,0.7432,0.7682,0.7964,0.828,0.8459,0.8524,0.0,0.0,0.8535,0.8573,0.859,0.0,0.859,0.859,0.859,0.859,0.8562,0.8513,0.8443,0.8388,0.0,0.0,0.0,0.8144,0.8024,0.0,0.0,0.0,0.0,0.0,0.0,0.0,0.0,0.0,0.8046,0.7964,0.7883,0.7872,0.7872,0.0,0.7905,0.0,0.816,0.8388,0.0,0.0,0.0,0.0,0.8709,0.8686,0.8804,0.0,0.8644,0.8258,0.7452,0.5919,0.4618,0.3415,0.1634,0.0495,0.0,0.0,0.0,0.0,0.0,0.0,0.0,0.0,0.0,0.0,0.0,0.0,0.0,0.0,0.0,0.0,0.0,0.0,0.0,0.6203,0.6143,0.6062,0.598,0.604,0.6159,0.0,0.0,0.0,0.0,0.7464,0.0,0.7769,0.0,0.8117,0.0,0.8046,0.7997,0.7997,0.7856,0.0,0.7709,0.7665,0.0,0.0,0.0,0.0,0.6991,0.6948,0.6926,0.6926,0.6926,0.697,0.7046,0.7046,0.7154,0.7345,0.7464,0.7725,0.8084,0.8443,0.859,0.0,0.0,0.8524,0.859,0.0,0.859,0.859,0.859,0.859,0.859,0.859,0.859,0.8573,0.8497,0.8481,0.8459,0.8383,0.8329,0.0,0.8204,0.8149,0.0,0.8019,0.0,0.0,0.0,0.0,0.0,0.0,0.8106,0.8013,0.7888,0.7872,0.7872,0.0,0.7872,0.7915,0.804,0.8231,0.8372,0.0,0.8519,0.859,0.859,0.8704,0.8807,0.0,0.0,0.8725,0.7905,0.6597,0.5347,0.4174,0.2259,0.0818,0.0,0.0,0.0,0.0,0.0,0.0,0.0,0.0,0.0,0.0,0.0,0.0,0.0,0.0,0.0,0.0,0.0,0.0,0.0,0.6426,0.6263,0.6111,0.6111,0.6301,0.0,0.0,0.0,0.7442,0.0,0.7926,0.8117,0.8242,0.8253,0.8253,0.8258,0.8253,0.8242,0.8242,0.8236,0.0,0.0,0.7954,0.7834,0.7714,0.0,0.0,0.0,0.723,0.7171,0.7171,0.7165,0.716,0.7154,0.716,0.7225,0.7345,0.7475,0.7736,0.8095,0.8437,0.8584,0.859,0.859,0.859,0.859,0.859,0.859,0.859,0.859,0.859,0.859,0.859,0.859,0.859,0.859,0.859,0.859,0.859,0.8508,0.8426,0.8421,0.0,0.0,0.0,0.0,0.8247,0.0,0.0,0.0,0.0,0.0,0.803,0.7899,0.7877,0.7872,0.7872,0.7877,0.7921,0.804,0.8166,0.8291,0.8405,0.8513,0.8579,0.8579,0.8682,0.8747,0.0,0.0,0.8853,0.815,0.7239,0.6189,0.5025,0.2542,0.081,0.0,0.0,0.0,0.0,0.0,0.0,0.0,0.0,0.0,0.0,0.0,0.0,0.0,0.0,0.0,0.0,0.0,0.0,0.0172,0.6584,0.6524,0.648,0.0,0.6611,0.6806,0.0,0.0,0.0,0.0,0.8176,0.8367,0.8486,0.8497,0.8535,0.8628,0.8475,0.0,0.0,0.0,0.0,0.8193,0.816,0.804,0.7834,0.7763,0.7693,0.7606,0.7486,0.7426,0.7421,0.7334,0.7241,0.716,0.7247,0.7307,0.735,0.7562,0.7861,0.8204,0.8388,0.8513,0.859,0.0,0.859,0.859,0.859,0.859,0.859,0.859,0.859,0.859,0.859,0.859,0.859,0.859,0.859,0.859,0.859,0.8568,0.8524,0.8437,0.8394,0.8345,0.0,0.0,0.0,0.0,0.0,0.0,0.0,0.0,0.0,0.804,0.7932,0.7872,0.7872,0.7948,0.8019,0.8051,0.8242,0.8383,0.8416,0.8443,0.8459,0.8459,0.8405,0.8448,0.0,0.0,0.0,0.8145,0.7033,0.6012,0.5087,0.2553,0.0813,0.0,0.0,0.0,0.0,0.0,0.0,0.0,0.0,0.0,0.0,0.0,0.0,0.0,0.0,0.0,0.0,0.0,0.0859,0.2429,0.6866,0.6768,0.673,0.6834,0.0,0.0,0.7383,0.7665,0.0,0.8247,0.8454,0.0,0.8736,0.8747,0.8774,0.8845,0.8731,0.0,0.8649,0.0,0.0,0.8394,0.8339,0.8225,0.8035,0.803,0.0,0.7856,0.7731,0.7649,0.7595,0.7475,0.7377,0.7317,0.7383,0.7448,0.7513,0.7752,0.8002,0.8247,0.8367,0.8486,0.0,0.859,0.859,0.859,0.859,0.859,0.859,0.859,0.859,0.859,0.859,0.859,0.859,0.859,0.859,0.859,0.859,0.859,0.8573,0.8508,0.853,0.8552,0.8486,0.8562,0.8671,0.0,0.0,0.0,0.0,0.0,0.0,0.8253,0.8111,0.803,0.803,0.8138,0.0,0.8214,0.8378,0.8492,0.8492,0.8492,0.847,0.8421,0.8356,0.0,0.0,0.0,0.0,0.8074,0.74,0.6394,0.503,0.3322,0.1606,0.0,0.0,0.0,0.0,0.0,0.0,0.0,0.0,0.0,0.0,0.0,0.0,0.0,0.0,0.0,0.0,0.0,0.1215,0.3159,0.716,0.7002,0.6931,0.0,0.0,0.0,0.0,0.7905,0.0,0.8568,0.0,0.884,0.8965,0.8959,0.8959,0.8976,0.0,0.8954,0.8954,0.8851,0.8742,0.8617,0.8519,0.8399,0.8263,0.8258,0.8209,0.0,0.7981,0.7861,0.7747,0.7622,0.7546,0.7519,0.7535,0.7611,0.7736,0.7959,0.8122,0.8247,0.8367,0.8486,0.859,0.859,0.8595,0.8611,0.8611,0.86,0.859,0.859,0.859,0.859,0.8606,0.8611,0.8611,0.8633,0.8633,0.8633,0.8633,0.8633,0.8633,0.8633,0.8715,0.8796,0.8796,0.8878,0.8954,0.8954,0.8954,0.0,0.0,0.0,0.0,0.8497,0.835,0.0,0.0,0.0,0.8432,0.8459,0.0,0.0,0.8633,0.8595,0.8524,0.8426,0.0,0.0,0.0,0.0,0.0,0.7983,0.761,0.0,0.4786,0.0,0.2687,0.016,0.0,0.0,0.0,0.0,0.0,0.0,0.0,0.0,0.0,0.0,0.0,0.0,0.0,0.0,0.0,0.0,0.1226,0.301,0.7192,0.7203,0.7225,0.0,0.0,0.7997,0.8095,0.8329,0.8552,0.8715,0.8845,0.8965,0.909,0.9014,0.8992,0.9095,0.9008,0.0,0.0,0.0,0.0,0.8742,0.872,0.8606,0.8394,0.8383,0.8378,0.0,0.8231,0.8111,0.7992,0.7867,0.7703,0.7524,0.7622,0.7736,0.785,0.7992,0.0,0.8247,0.8367,0.8486,0.859,0.859,0.8649,0.8736,0.8736,0.8671,0.859,0.859,0.859,0.8606,0.8709,0.8736,0.8758,0.8856,0.8889,0.8889,0.8889,0.8889,0.8889,0.8889,0.8905,0.8921,0.8921,0.8938,0.8954,0.8954,0.8954,0.8943,0.8921,0.0,0.0,0.0,0.0,0.0,0.0,0.0,0.0,0.8687,0.0,0.8774,0.8878,0.8622,0.8437,0.8421,0.0,0.0,0.0,0.0,0.0,0.0,0.0,0.0,0.0,0.0,0.2857,0.1136,0.0325,0.0,0.0,0.0,0.0,0.0,0.0,0.0,0.0,0.0,0.0,0.0,0.0,0.0,0.0,0.0,0.07,0.2124,0.7475,0.7535,0.7595,0.7535,0.0,0.0,0.0,0.8677,0.0,0.8948,0.9008,0.909,0.9209,0.9171,0.916,0.922,0.9166,0.9133,0.9133,0.9079,0.8992,0.8867,0.8802,0.8687,0.8508,0.8508,0.8508,0.8508,0.0,0.8301,0.8242,0.8117,0.7964,0.7796,0.779,0.7856,0.797,0.0,0.0,0.8334,0.8394,0.8524,0.8682,0.8682,0.8758,0.8861,0.8861,0.8823,0.8774,0.8774,0.8774,0.8785,0.8845,0.8861,0.8878,0.8932,0.8954,0.8954,0.8954,0.8954,0.8954,0.8954,0.8997,0.9046,0.9046,0.909,0.9133,0.9133,0.9133,0.9133,0.9133,0.9035,0.0,0.0,0.0,0.0,0.0,0.0,0.8785,0.0,0.8883,0.8932,0.0,0.0,0.0,0.0,0.0,0.0,0.0,0.0,0.0,0.0,0.0,0.0,0.0,0.0,0.0,0.1954,0.0655,0.0,0.0,0.0,0.0,0.0,0.0,0.0,0.0,0.0,0.0,0.0,0.0,0.0,0.0,0.0,0.0871,0.2478,0.7801,0.7888,0.7981,0.0,0.8274,0.0,0.8649,0.8954,0.916,0.9139,0.9155,0.9204,0.9296,0.9302,0.9302,0.9302,0.9302,0.9302,0.9302,0.922,0.9117,0.8997,0.8872,0.8753,0.8628,0.86,0.859,0.0,0.0,0.8443,0.8416,0.8318,0.8209,0.8089,0.0,0.0,0.0,0.0,0.8242,0.8421,0.8475,0.8606,0.8774,0.8802,0.8883,0.8992,0.8992,0.9008,0.9024,0.9024,0.8992,0.8954,0.8981,0.8992,0.8997,0.9019,0.9024,0.9024,0.9024,0.9024,0.9024,0.9024,0.9101,0.9171,0.9171,0.9242,0.9302,0.9302,0.9302,0.9302,0.9302,0.9231,0.0,0.0,0.0,0.0,0.0,0.0,0.9035,0.0,0.9019,0.9052,0.8829,0.0,0.0,0.0,0.0,0.0,0.0,0.0,0.0,0.0,0.0,0.6731,0.5648,0.0,0.3862,0.0,0.0823,0.0,0.0,0.0,0.0,0.0,0.0,0.0,0.0,0.0,0.0,0.0,0.0,0.0,0.0,0.0,0.1213,0.3176,0.0,0.0,0.0,0.0,0.0,0.0,0.8916,0.9128,0.9253,0.915,0.9226,0.9291,0.9302,0.9302,0.9302,0.9302,0.9302,0.9302,0.9302,0.9296,0.9237,0.9122,0.8997,0.8878,0.8758,0.8644,0.859,0.0,0.0,0.8519,0.8416,0.8405,0.8334,0.0,0.0,0.0,0.0,0.8334,0.8399,0.8437,0.8649,0.8753,0.8785,0.8894,0.9008,0.9117,0.9117,0.9182,0.9269,0.9269,0.9128,0.897,0.9084,0.9117,0.9139,0.9242,0.9269,0.9269,0.9269,0.9269,0.9269,0.9269,0.928,0.9291,0.9291,0.9296,0.9302,0.9302,0.9302,0.9302,0.9302,0.9296,0.9291,0.0,0.0,0.0,0.0,0.0,0.9003,0.909,0.9122,0.9084,0.8948,0.8932,0.0,0.0,0.8535,0.0,0.0,0.0,0.0,0.7983,0.0,0.619,0.5648,0.3656,0.0,0.2442,0.0823,0.0,0.0,0.0,0.0,0.0,0.0,0.0,0.0,0.0,0.0,0.0,0.0,0.0,0.0,0.0,0.1207,0.3315,0.0,0.0,0.0,0.0,0.0,0.0,0.0,0.9198,0.9285,0.9242,0.9275,0.9302,0.9302,0.9302,0.9302,0.9302,0.9302,0.9302,0.9302,0.9302,0.9253,0.9139,0.909,0.897,0.8774,0.872,0.866,0.0,0.0,0.0,0.0,0.0,0.0,0.0,0.0,0.8274,0.835,0.847,0.8562,0.8644,0.8812,0.8921,0.8992,0.9041,0.9133,0.9237,0.9237,0.9264,0.9302,0.9302,0.9242,0.9171,0.922,0.9237,0.9242,0.9291,0.9302,0.9302,0.9302,0.9302,0.9302,0.9302,0.9302,0.9302,0.9302,0.9302,0.9302,0.9302,0.9302,0.9302,0.9302,0.9302,0.9302,0.0,0.0,0.0,0.0,0.0,0.0,0.9035,0.0,0.9057,0.8861,0.0,0.0,0.0,0.0,0.0,0.0,0.0,0.0,0.7888,0.0,0.5951,0.5176,0.3338,0.1945,0.0997,0.0334,0.0,0.0,0.0,0.0,0.0,0.0,0.0,0.0,0.0,0.0,0.0,0.0,0.0,0.0,0.0,0.12,0.3305,0.884,0.0,0.8981,0.0,0.9046,0.9182,0.9182,0.9253,0.9302,0.9302,0.9302,0.9302,0.9302,0.9302,0.9302,0.9302,0.9302,0.9302,0.9302,0.9302,0.9269,0.9188,0.9155,0.0,0.8829,0.8791,0.8709,0.859,0.859,0.0,0.0,0.0,0.0,0.0,0.8378,0.8405,0.8524,0.8606,0.8715,0.8834,0.8954,0.9057,0.9139,0.9171,0.9237,0.9302,0.9302,0.9302,0.9302,0.9302,0.9302,0.9302,0.9302,0.9302,0.9302,0.9302,0.9302,0.9302,0.9302,0.9302,0.9302,0.9302,0.9302,0.9302,0.9302,0.9302,0.9302,0.9302,0.9302,0.9302,0.9302,0.9302,0.9302,0.9302,0.0,0.0,0.0,0.0,0.0,0.8981,0.9063,0.9024,0.8742,0.8747,0.0,0.0,0.0,0.0,0.0,0.0,0.0,0.0,0.0,0.0,0.0,0.3014,0.1463,0.0,0.0,0.0,0.0,0.0,0.0,0.0,0.0,0.0,0.0,0.0,0.0,0.0,0.0,0.0,0.0,0.0676,0.1711,0.3302,0.8948,0.9046,0.9133,0.9128,0.9226,0.9302,0.9302,0.9302,0.9302,0.9302,0.9302,0.9302,0.9302,0.9302,0.9302,0.9302,0.9302,0.9302,0.9302,0.9302,0.9302,0.0,0.0,0.9079,0.8954,0.8834,0.8709,0.859,0.0,0.0,0.859,0.0,0.8584,0.8584,0.8584,0.8649,0.8764,0.8769,0.884,0.8959,0.9084,0.9133,0.915,0.9258,0.9302,0.9302,0.9302,0.9302,0.9302,0.9302,0.9302,0.9302,0.9302,0.9302,0.9302,0.9302,0.9302,0.9302,0.9302,0.9302,0.9302,0.9302,0.9302,0.9302,0.9302,0.9302,0.9302,0.9302,0.9302,0.9302,0.9302,0.9302,0.9302,0.9302,0.0,0.0,0.0,0.0,0.0,0.8981,0.9063,0.8992,0.8628,0.8698,0.0,0.0,0.0,0.0,0.0,0.0,0.0,0.7831,0.6455,0.0,0.4781,0.237,0.0809,0.0,0.0,0.0,0.0,0.0,0.0,0.0,0.0,0.0,0.0,0.0,0.0,0.0,0.0,0.0,0.0169,0.2215,0.2927,0.3305,0.9193,0.9226,0.9253,0.9253,0.928,0.9302,0.9302,0.9302,0.9302,0.9302,0.9302,0.9302,0.9302,0.9302,0.9302,0.0,0.9302,0.9302,0.0,0.9302,0.9302,0.9302,0.9269,0.9193,0.9079,0.8954,0.8834,0.8715,0.0,0.0,0.0,0.859,0.8633,0.8715,0.8715,0.878,0.8899,0.8981,0.9041,0.9084,0.9204,0.9253,0.9264,0.9383,0.9427,0.9438,0.9525,0.9552,0.9552,0.9552,0.9552,0.9552,0.9552,0.9497,0.9427,0.9427,0.9487,0.9552,0.9552,0.9552,0.9536,0.9449,0.9427,0.9405,0.9323,0.9302,0.9302,0.9302,0.9302,0.9302,0.9302,0.9302,0.9302,0.9302,0.9302,0.0,0.0,0.0,0.9128,0.897,0.8986,0.8932,0.0,0.8823,0.0,0.0,0.0,0.0,0.0,0.0,0.0,0.0,0.6777,0.0,0.4781,0.237,0.0809,0.0,0.0,0.0,0.0,0.0,0.0,0.0,0.0,0.0,0.0,0.0,0.0,0.0,0.0,0.0,0.017,0.2222,0.3635,0.5105,0.9302,0.9302,0.9302,0.9302,0.9302,0.9302,0.9302,0.9302,0.9302,0.9302,0.9302,0.9302,0.9302,0.9302,0.0,0.9302,0.9302,0.9302,0.9302,0.9302,0.9302,0.9302,0.9302,0.9253,0.9139,0.0,0.0,0.884,0.8764,0.8725,0.8725,0.8725,0.8764,0.884,0.884,0.8905,0.9024,0.9101,0.916,0.9204,0.9275,0.9334,0.9383,0.9459,0.9514,0.9568,0.9644,0.9671,0.9671,0.9671,0.9671,0.9671,0.9671,0.9644,0.9612,0.9568,0.9612,0.9671,0.9671,0.9671,0.965,0.9574,0.9557,0.9525,0.94,0.9372,0.9362,0.9313,0.9302,0.9302,0.9302,0.9302,0.9302,0.9302,0.9302,0.9302,0.9302,0.0,0.0,0.0,0.0,0.0,0.0,0.8976,0.0,0.0,0.0,0.0,0.0,0.0,0.0,0.8107,0.7219,0.0,0.481,0.2385,0.0813,0.0,0.0,0.0,0.0,0.0,0.0,0.0,0.0,0.0,0.0,0.0,0.0,0.0,0.0,0.0,0.0171,0.1727,0.3853,0.6053,0.9302,0.9302,0.0,0.0,0.9302,0.0,0.9302,0.9302,0.9302,0.9302,0.9302,0.9302,0.9302,0.9302,0.9302,0.9302,0.0,0.0,0.0,0.9302,0.9302,0.9302,0.9302,0.9253,0.915,0.9139,0.9073,0.8954,0.8954,0.8954,0.8954,0.8954,0.8954,0.8965,0.8965,0.903,0.9144,0.9144,0.9209,0.9302,0.9302,0.9378,0.9487,0.9497,0.9574,0.9682,0.9693,0.9693,0.9693,0.9693,0.9693,0.9693,0.9693,0.9764,0.9829,0.9715,0.9688,0.9693,0.9693,0.9693,0.9693,0.9682,0.9677,0.9639,0.9525,0.9497,0.9465,0.9351,0.9329,0.9329,0.9329,0.9323,0.9318,0.9318,0.9307,0.9302,0.9302,0.0,0.0,0.0,0.0,0.0,0.0,0.9166,0.922,0.0,0.0,0.0,0.0,0.0,0.9097,0.8307,0.7759,0.6667,0.5019,0.2572,0.0983,0.0,0.0,0.0,0.0,0.0,0.0,0.0,0.0,0.0,0.0,0.0,0.0,0.0,0.0,0.0,0.0172,0.1053,0.338,0.6117,0.0,0.0,0.9302,0.9302,0.9302,0.9302,0.9302,0.9302,0.9302,0.9302,0.9302,0.9302,0.9302,0.9302,0.9302,0.9302,0.9302,0.9302,0.9302,0.9302,0.9302,0.9302,0.9302,0.9291,0.9264,0.9177,0.9073,0.8954,0.8954,0.8954,0.8954,0.8954,0.9003,0.909,0.909,0.9155,0.9264,0.9264,0.928,0.9302,0.9302,0.9378,0.9497,0.959,0.9699,0.9807,0.9905,0.9938,0.9938,0.9938,0.9938,0.9938,0.9938,0.9954,0.9954,0.9835,0.9862,0.9938,0.9938,0.9938,0.9916,0.9818,0.9731,0.9661,0.9633,0.9628,0.9617,0.959,0.9584,0.9584,0.9584,0.9508,0.9443,0.9443,0.9367,0.9302,0.9302,0.9231,0.0,0.0,0.9264,0.9302,0.9394,0.9487,0.959,0.0,0.0,0.0,0.0,0.0,0.9382,0.887,0.8315,0.7501,0.6431,0.405,0.1988,0.0,0.0,0.0,0.0,0.0,0.0,0.0,0.0,0.0,0.0,0.0,0.0,0.0,0.0,0.0,0.0176,0.1058,0.3396,0.6181,0.9302,0.9302,0.9302,0.9302,0.9302,0.9302,0.9302,0.9302,0.9302,0.9302,0.9302,0.9323,0.9383,0.9389,0.941,0.9465,0.9367,0.9302,0.9302,0.9302,0.9329,0.9383,0.9334,0.9329,0.9389,0.9275,0.9182,0.9111,0.9111,0.9111,0.9111,0.9111,0.915,0.9209,0.9209,0.9247,0.9302,0.9302,0.9302,0.9302,0.9302,0.941,0.9579,0.9644,0.9775,0.9932,0.9998,1.0019,1.0019,1.0019,1.0019,1.0019,1.0019,1.0019,1.0008,0.9938,0.997,1.0019,1.0019,1.0019,1.0003,0.9938,0.9878,0.9813,0.9758,0.9748,0.9731,0.9682,0.9671,0.9671,0.9671,0.9617,0.9568,0.9568,0.9514,0.947,0.947,0.9416,0.0,0.9465,0.947,0.9519,0.9633,0.9709,0.9796,0.9911,0.0,0.0,1.0014,1.0008,0.9821,0.9295,0.8992,0.8304,0.7069,0.4466,0.2016,0.0,0.0,0.0,0.0,0.0,0.0,0.0,0.0,0.0,0.0,0.0,0.0,0.0,0.0,0.0,0.0177,0.1072,0.344,0.6061,0.9302,0.9302,0.9302,0.9302,0.9318,0.9334,0.9334,0.9345,0.9356,0.9356,0.9356,0.94,0.9503,0.9514,0.9557,0.9661,0.9465,0.934,0.9356,0.9356,0.9394,0.9481,0.9389,0.9372,0.9459,0.9356,0.9302,0.9302,0.9302,0.9302,0.9302,0.9302,0.9302,0.9302,0.9302,0.9302,0.9302,0.9302,0.9302,0.9302,0.9302,0.9438,0.9644,0.9661,0.9802,0.9992,1.0014,1.0019,1.0019,1.0019,1.003,1.0047,1.0047,1.0063,1.0074,1.0074,1.0074,1.0068,1.003,1.0036,1.0047,1.0047,1.0063,1.0041,0.9921,0.9894,0.9862,0.9748,0.972,0.972,0.972,0.9709,0.9693,0.9693,0.9682,0.9671,0.9671,0.0,0.9677,0.9693,0.9693,0.9742,0.9856,0.9867,0.9905,1.0014,1.0019,1.0019,0.0,1.0139,1.0056,0.9755,0.9708,0.8847,0.7139,0.4391,0.2039,0.0169,0.0,0.0,0.0,0.0,0.0,0.0,0.0,0.0,0.0,0.0,0.0,0.0,0.0,0.0,0.0178,0.1087,0.3488,0.6123,0.9302,0.9302,0.9302,0.9302,0.9389,0.9459,0.9459,0.9546,0.9612,0.9612,0.9612,0.9622,0.9639,0.9644,0.965,0.9666,0.9541,0.9503,0.9606,0.9612,0.9574,0.9492,0.947,0.9421,0.9334,0.9313,0.9302,0.9302,0.9302,0.9302,0.9302,0.9302,0.9302,0.9302,0.9302,0.9302,0.9302,0.9302,0.9302,0.9302,0.9302,0.9389,0.9525,0.9628,0.9753,0.9878,0.9981,1.0019,1.0019,1.0019,1.009,1.0177,1.0177,1.0248,1.0329,1.0329,1.0329,1.0286,1.0074,1.0095,1.0177,1.0177,1.0253,1.0297,1.0177,1.0144,1.0112,0.9992,0.9965,0.9965,0.9965,0.9883,0.9813,0.9813,0.9731,0.9671,0.9671,0.0,0.9704,0.9802,0.9813,0.9856,0.9981,0.9992,0.9998,1.0019,1.0019,1.0019,1.0019,1.0139,1.0253,1.0196,0.9983,0.8645,0.6284,0.4562,0.2877,0.1024,0.0339,0.0,0.0,0.0,0.0,0.0,0.0,0.0,0.0,0.0,0.0,0.0,0.0,0.0,0.0182,0.1093,0.3505,0.6182,0.94,0.9454,0.9503,0.9503,0.9546,0.9584,0.9584,0.9633,0.9671,0.9671,0.9671,0.9693,0.9753,0.9704,0.9693,0.9753,0.9655,0.9633,0.9753,0.9639,0.9601,0.9671,0.9552,0.9427,0.9307,0.9302,0.9302,0.9302,0.9302,0.9302,0.9302,0.9302,0.9302,0.9307,0.9372,0.9367,0.9307,0.9372,0.9362,0.9307,0.9378,0.9476,0.9595,0.9715,0.9835,0.9943,1.0003,1.0063,1.0117,1.0117,1.0199,1.0302,1.0302,1.034,1.0384,1.0384,1.0384,1.0362,1.0248,1.0259,1.0302,1.0302,1.0346,1.0373,1.0313,1.0302,1.0286,1.0226,1.0166,1.0117,1.0117,1.0019,0.9938,0.9938,0.9894,0.0,0.0,0.9856,0.9878,0.9932,0.9992,1.0057,1.0112,1.0177,1.0215,1.0215,1.0215,1.0215,1.0215,1.0329,1.0416,1.0476,0.9932,0.854,0.6431,0.5422,0.356,0.1356,0.034,0.0,0.0,0.0,0.0,0.0,0.0,0.0,0.0,0.0,0.0,0.0,0.0,0.0,0.0183,0.1101,0.3524,0.6199,0.953,0.9606,0.9671,0.9671,0.9693,0.9709,0.9709,0.9731,0.9753,0.9753,0.9753,0.9786,0.9867,0.9802,0.9786,0.9873,0.9775,0.9758,0.9873,0.9682,0.965,0.9829,0.9612,0.9427,0.9307,0.9302,0.9318,0.9345,0.9345,0.9362,0.9389,0.9362,0.9345,0.9351,0.9416,0.9394,0.9307,0.9405,0.9405,0.9356,0.9449,0.9557,0.9682,0.9796,0.9894,0.9981,1.0008,1.0101,1.0204,1.0204,1.0302,1.0427,1.0427,1.0443,1.0465,1.0465,1.0465,1.0454,1.04,1.0405,1.0427,1.0427,1.0449,1.046,1.0433,1.0427,1.0416,1.0394,1.0313,1.0237,1.021,1.0128,1.0052,1.0025,0.0,0.0,0.0,1.0019,1.003,1.0057,1.0144,1.0215,1.0242,1.0329,1.0384,1.0384,1.0384,1.0384,1.0384,1.0492,1.0585,1.0639,0.9898,0.8597,0.6913,0.5954,0.4085,0.1351,0.034,0.0,0.0,0.0,0.0,0.0,0.0,0.0,0.0,0.0,0.0,0.0,0.0,0.0,0.0183,0.1108,0.3357,0.5845,0.9655,0.9666,0.9671,0.9671,0.9758,0.9824,0.9824,0.9921,0.9998,0.9998,0.9998,0.9998,1.0008,0.9998,0.9998,1.0008,0.9894,0.9878,0.9998,0.9883,0.9818,0.9835,0.9612,0.9427,0.9307,0.9302,0.9362,0.947,0.947,0.953,0.9639,0.9525,0.947,0.947,0.9362,0.9313,0.9302,0.9313,0.9378,0.9476,0.9481,0.9557,0.9682,0.9796,0.9845,0.9867,0.9981,1.0101,1.0204,1.0204,1.0356,1.0541,1.0541,1.0623,1.071,1.071,1.071,1.0666,1.0443,1.046,1.0541,1.0541,1.0628,1.0683,1.0568,1.0541,1.0514,1.0405,1.0378,1.034,1.0226,1.0199,1.015,1.0041,0.0,0.0,1.0019,1.0019,1.0063,1.0177,1.0199,1.0248,1.0362,1.0378,1.0384,1.0384,1.0384,1.0384,1.0384,1.0492,1.0661,1.0884,1.0053,0.8866,0.7329,0.5975,0.4101,0.1367,0.0508,0.0,0.0,0.0,0.0,0.0,0.0,0.0,0.0,0.0,0.0,0.0,0.0,0.0,0.0185,0.1111,0.2811,0.4952,0.9775,0.9835,0.9889,0.9889,0.9921,0.9949,0.9949,0.9992,1.0019,1.0019,1.0019,1.0019,1.0019,0.9954,0.9905,0.9905,0.9802,0.9786,0.99,0.9862,0.9807,0.9737,0.965,0.9508,0.9307,0.9302,0.9329,0.9372,0.9372,0.9394,0.9443,0.9394,0.9372,0.9372,0.9405,0.9416,0.9421,0.9497,0.9557,0.9606,0.9677,0.9731,0.9786,0.9905,0.9949,0.9965,1.009,1.0215,1.0329,1.04,1.053,1.0666,1.0666,1.0699,1.0737,1.0737,1.0737,1.0715,1.0628,1.0634,1.0666,1.0666,1.0704,1.0726,1.0677,1.0666,1.0655,1.0612,1.0541,1.0476,1.0433,1.0362,1.0275,1.0155,0.0,1.0134,1.0134,1.0134,1.0177,1.0302,1.0378,1.0438,1.0487,1.0558,1.0601,1.0601,1.0601,1.0601,1.0601,1.0645,1.0748,1.0916,1.0073,0.8879,0.751,0.6108,0.406,0.1355,0.0506,0.0,0.0,0.0,0.0,0.0,0.0,0.0,0.0,0.0,0.0,0.0,0.0,0.0,0.0,0.037,0.1875,0.4002,0.9894,0.9965,1.0019,1.0019,1.0019,1.0019,1.0019,1.0019,1.0019,1.0019,1.0019,1.0019,1.0019,0.9943,0.9894,0.9894,0.9824,0.9813,0.9889,0.9894,0.9845,0.9726,0.9688,0.9574,0.9367,0.9362,0.9378,0.9421,0.9454,0.9492,0.953,0.9487,0.947,0.9476,0.9519,0.9546,0.9552,0.9633,0.9693,0.9726,0.9807,0.9862,0.9905,0.9987,1.0047,1.009,1.0172,1.0302,1.0449,1.053,1.0634,1.0737,1.0737,1.0737,1.0737,1.0737,1.0737,1.0737,1.0737,1.0737,1.0737,1.0737,1.0737,1.0737,1.0737,1.0737,1.0737,1.0737,1.0672,1.0601,1.0563,1.0492,1.04,1.028,1.0259,1.0259,1.0259,1.0259,1.0302,1.0427,1.0509,1.0568,1.0606,1.0688,1.0737,1.0737,1.0737,1.0737,1.0737,1.0737,1.0791,1.0916,1.0038,0.9018,0.8025,0.6271,0.4385,0.2018,0.0673,0.0,0.0,0.0,0.0,0.0,0.0,0.0,0.0,0.0,0.0,0.0,0.0,0.0,0.0,0.0,0.0937,0.2477,1.0019,1.0019,1.0019,1.0019,1.0019,1.0019,1.0019,1.0019,1.0019,1.0019,1.0019,1.0019,1.0019,1.0019,1.0019,1.0019,1.0019,1.0019,1.0019,1.0019,0.9965,0.9845,0.9731,0.9612,0.9492,0.9487,0.9546,0.9671,0.978,0.99,1.0014,0.9894,0.9835,0.9829,0.972,0.9671,0.9671,0.9671,0.9737,0.984,0.984,0.9911,1.0019,1.0019,1.0095,1.0204,1.0204,1.0356,1.0558,1.0558,1.0634,1.0737,1.0737,1.0737,1.0737,1.0737,1.0737,1.0737,1.0737,1.0737,1.0737,1.0737,1.0737,1.0737,1.0737,1.0737,1.0737,1.0737,1.0737,1.0699,1.0579,1.0558,1.052,1.0405,1.0389,1.0389,1.0389,1.0389,1.0433,1.0541,1.0558,1.0606,1.0726,1.0737,1.0737,1.0737,1.0737,1.0737,1.0737,1.0737,1.0791,1.0916,0.9963,0.9286,0.8875,0.6659,0.4927,0.353,0.1178,0.0,0.0,0.0,0.0,0.0,0.0,0.0,0.0,0.0,0.0,0.0,0.0,0.0,0.0,0.0,0.0,0.0381,1.0019,1.0019,1.0019,1.0019,1.0019,1.0019,1.0019,1.0019,1.0019,1.0019,1.0019,1.0019,1.0019,1.0019,1.0019,1.0019,1.0019,1.0019,1.0019,1.0019,1.0003,0.9965,0.9851,0.9731,0.9617,0.9617,0.9633,0.9671,0.9704,0.9737,0.9775,0.9737,0.972,0.972,0.9688,0.9715,0.9786,0.9786,0.9856,0.9965,0.9965,0.9987,1.003,1.0117,1.0172,1.0226,1.0389,1.0498,1.0568,1.0655,1.0704,1.0737,1.0737,1.0737,1.0737,1.0737,1.0737,1.0737,1.0737,1.0737,1.0737,1.0737,1.0737,1.0737,1.0737,1.0737,1.0737,1.0737,1.0737,1.0726,1.0688,1.0683,1.0645,1.0525,1.0503,1.0503,1.0503,1.0503,1.0547,1.0666,1.0683,1.0699,1.0732,1.0737,1.0737,1.0737,1.0737,1.0737,1.0737,1.0737,1.0791,1.0916,0.9963,0.9454,0.9389,0.712,0.5227,0.353,0.2523,0.1178,0.0,0.0,0.0,0.0,0.0,0.0,0.0,0.0,0.0,0.0,0.0,0.0,0.0,0.0,0.0,0.0381,1.0019,1.0019,1.0019,1.0019,1.0019,1.0019,1.0019,1.0019,1.0019,1.0019,1.0019,1.0019,1.0019,1.0019,1.0019,1.0019,1.0019,1.0019,1.0019,1.0019,1.0019,1.0019,0.9949,0.9856,0.9737,0.9737,0.9737,0.9737,0.9786,0.9807,0.9807,0.9807,0.9807,0.9807,0.9807,0.9845,0.9911,0.9911,0.9954,1.0025,1.0074,1.009,1.0106,1.0226,1.0302,1.0362,1.0503,1.0585,1.0639,1.071,1.0737,1.0737,1.0737,1.0737,1.0737,1.0737,1.0737,1.0737,1.0737,1.0737,1.0737,1.0737,1.0737,1.0737,1.0737,1.0737,1.0737,1.0737,1.0737,1.0737,1.0737,1.0737,1.0715,1.0639,1.0628,1.0628,1.0628,1.0628,1.0655,1.0726,1.0737,1.0737,1.0737,1.0737,1.0737,1.0737,1.0737,1.0737,1.0737,1.0737,1.077,1.0846,1.0106,0.9771,0.984,0.7921,0.605,0.4539,0.3363,0.1855,0.0509,0.0172,0.0,0.0,0.0,0.0,0.0,0.0,0.0,0.0,0.0,0.0,0.0,0.0,0.0,0.0191,1.0019,1.0019,1.0019,1.0019,1.0019,1.0019,1.0019,1.0019,1.0019,1.0019,1.0019,1.0019,1.0019,1.0019,1.0019,1.0019,1.0019,1.0019,1.0019,1.0019,1.0019,1.0019,1.0019,0.997,0.9856,0.9856,0.9856,0.9856,0.9965,1.0019,1.0019,1.0019,1.0019,1.0019,1.0019,1.0019,1.0019,1.0019,1.0025,1.0047,1.0161,1.021,1.0231,1.0356,1.0465,1.0558,1.0568,1.0634,1.0721,1.0721,1.0726,1.0737,1.0737,1.0737,1.0737,1.0737,1.0737,1.0737,1.0737,1.0737,1.0737,1.0737,1.0737,1.0737,1.0737,1.0737,1.0737,1.0737,1.0737,1.0737,1.0737,1.0737,1.0737,1.0737,1.0737,1.0737,1.0737,1.0737,1.0737,1.0737,1.0737,1.0737,1.0737,1.0737,1.0737,1.0737,1.0737,1.0737,1.0737,1.0737,1.0737,1.0737,1.0237,1.007,1.007,0.8733,0.7558,0.6053,0.3866,0.2368,0.1198,0.0346,0.0,0.0,0.0,0.0,0.0,0.0,0.0,0.0,0.0,0.0,0.0,0.0,0.0,0.0,1.0019,1.0019,1.0019,1.0019,1.0019,1.0019,1.0019,1.0019,1.0019,1.0019,1.0019,1.0019,1.0019,1.0019,1.0019,1.0019,1.0019,1.0019,1.0019,1.0019,1.0019,1.0019,1.0019,1.0008,0.9981,0.9981,0.9981,0.9981,1.0008,1.0019,1.0019,1.0019,1.0019,1.0019,1.0019,1.0019,1.0019,1.0019,1.0074,1.0166,1.0193,1.0259,1.0362,1.0476,1.0536,1.0568,1.0661,1.0655,1.0596,1.0596,1.0661,1.0737,1.0737,1.0737,1.0737,1.0737,1.0737,1.0737,1.0737,1.0737,1.0737,1.0737,1.0737,1.0737,1.0737,1.0737,1.0737,1.0737,1.0737,1.0737,1.0737,1.0737,1.0737,1.0737,1.0737,1.0737,1.0737,1.0737,1.0737,1.0737,1.0737,1.0737,1.0737,1.0737,1.0737,1.0737,1.0737,1.0737,1.0737,1.0737,1.0737,1.0737,1.0237,0.9908,0.9574,0.8905,0.7897,0.6553,0.4875,0.3044,0.1198,0.0346,0.0,0.0,0.0,0.0,0.0,0.0,0.0,0.0,0.0,0.0,0.0,0.0,0.0,0.0,1.0019,1.0019,1.0019,1.0019,1.0019,1.0019,1.0019,1.0019,1.0019,1.0019,1.0019,1.0019,1.0019,1.0019,1.0019,1.0019,1.0019,1.0019,1.0019,1.0019,1.0019,1.0019,1.0019,1.0019,1.0019,1.0019,1.0019,1.0019,1.0019,1.0019,1.0019,1.0019,1.0052,1.0106,1.0047,1.0052,1.0101,1.0047,1.009,1.021,1.0264,1.0362,1.0481,1.0596,1.0645,1.065,1.0715,1.0699,1.0634,1.0574,1.0634,1.0737,1.0737,1.0737,1.0737,1.0737,1.0737,1.0737,1.0737,1.0737,1.0737,1.0737,1.0737,1.0737,1.0737,1.0737,1.0737,1.0737,1.0737,1.0737,1.0737,1.0737,1.0737,1.0737,1.0737,1.0737,1.0737,1.0737,1.0737,1.0737,1.0737,1.0737,1.0737,1.0737,1.0737,1.0737,1.0737,1.0737,1.0737,1.0737,1.0737,1.0737,1.057,1.0237,0.9736,0.924,0.8424,0.7113,0.5592,0.4091,0.2586,0.0872,0.0,0.0,0.0,0.0,0.0,0.0,0.0,0.0,0.0,0.0,0.0,0.0,0.0,0.0,1.0019,1.0019,1.0019,1.0019,1.0019,1.0019,1.0019,1.0019,1.0019,1.0019,1.0019,1.0019,1.0019,1.0019,1.0019,1.0019,1.0019,1.0019,1.0019,1.0019,1.0019,1.0019,1.0019,1.0019,1.0019,1.0019,1.0019,1.0019,1.0019,1.003,1.0052,1.0052,1.0106,1.0199,1.0095,1.0095,1.0166,1.0085,1.0123,1.0248,1.0367,1.0481,1.0596,1.0699,1.0726,1.0704,1.0704,1.0704,1.0688,1.059,1.0634,1.0737,1.0737,1.0737,1.0737,1.0737,1.0737,1.0737,1.0737,1.0737,1.0737,1.0737,1.0737,1.0737,1.0737,1.0737,1.0737,1.0737,1.0737,1.0737,1.0737,1.0737,1.0737,1.0737,1.0737,1.0737,1.0737,1.0737,1.0737,1.0737,1.0737,1.0737,1.0737,1.0737,1.0737,1.0737,1.0737,1.0737,1.0737,1.0737,1.0737,1.0737,1.0737,1.0404,0.9908,0.9588,0.88,0.7348,0.6004,0.5009,0.4011,0.1408,0.0178,0.0,0.0,0.0,0.0,0.0,0.0,0.0,0.0,0.0,0.0,0.0,0.0,0.0,1.0019,1.0019,1.0019,1.0019,1.0019,1.0019,1.0019,1.0019,1.0019,1.0019,1.0019,1.0019,1.0019,1.0019,1.0019,1.0019,1.0019,1.0019,1.0019,1.0019,1.0019,1.0019,1.0019,1.0019,1.0019,1.0019,1.0019,1.0019,1.0019,1.0074,1.0177,1.0177,1.0188,1.0204,1.0188,1.0128,1.0052,1.0139,1.0248,1.0373,1.0487,1.0606,1.0715,1.0732,1.0672,1.0579,1.0579,1.0579,1.0579,1.0563,1.0634,1.0737,1.0737,1.0737,1.0737,1.0737,1.0737,1.0737,1.0737,1.0737,1.0737,1.0737,1.0737,1.0737,1.0737,1.0737,1.0737,1.0737,1.0737,1.0737,1.0737,1.0737,1.0737,1.0737,1.0737,1.0737,1.0737,1.0737,1.0737,1.0737,1.0737,1.0737,1.0737,1.0737,1.0737,1.0737,1.0737,1.0737,1.0737,1.0737,1.0737,1.0737,1.0737,1.0237,0.9574,0.9497,0.8696,0.6836,0.5923,0.5103,0.4054,0.1942,0.0711,0.0,0.0,0.0,0.0,0.0,0.0,0.0,0.0,0.0,0.0,0.0,0.0,0.0,1.033,1.0175,1.0019,1.0019,1.0019,1.0019,1.0019,1.0019,1.0019,1.0019,1.0019,1.0019,1.0019,1.0019,1.0019,1.0019,1.0019,1.0019,1.0019,1.0019,1.0019,1.0019,1.0085,1.0123,1.0123,1.0188,1.0226,1.0226,1.0155,1.0182,1.0307,1.0307,1.034,1.04,1.0335,1.0313,1.0318,1.0307,1.0373,1.0487,1.0536,1.0628,1.0732,1.0661,1.0601,1.0547,1.0481,1.0503,1.0558,1.0558,1.0634,1.0737,1.0737,1.0737,1.0737,1.0737,1.0737,1.0737,1.0737,1.0737,1.0737,1.0737,1.0737,1.0737,1.0737,1.0737,1.0737,1.0737,1.0737,1.0737,1.0737,1.0737,1.0737,1.0737,1.0737,1.0737,1.0737,1.0737,1.0737,1.0737,1.0737,1.0737,1.0737,1.0737,1.0737,1.0737,1.0737,1.0737,1.0737,1.0737,1.0737,1.0737,1.0737,1.0404,0.9736,0.968,0.891,0.7585,0.6307,0.5122,0.4064,0.2133,0.0894,0.0,0.0,0.0,0.0,0.0,0.0,0.0,0.0,0.0,0.0,0.0,0.0,0.0]}]]